Darstellungsparameter: Aktuell verwendete Einstellungen:
Skalierung der Graphiken ... ?
xyx+y,   Skalierungsfaktor:      Skalierung: Modus: x, Faktor: 1
Darstellungszeitraum ... ?
Vom - - bis: - -   Zeitraum: 20.04.2020 - 17.05.2020
Min/Max/Avg-Anzeige ... ?
Zeige MMA aktuell
Zeige MMA Monat
Zeige MMA alles
Zeige --A aktuell
Zeige --A Monat
Zeige --A alles
Keine MMA-Anzeige
MMA:
Average (ber die Originaldaten)
MMA-Basis: 20.04.2020 - 17.05.2020
Quicknavigation für Darstellung... ?
Tage:      1T, 2T, 3T, 5T -1T -2T -3T -5T +1T +2T +3T +5T
Wochen: 1W, 2W, 3W -1W -2W -3W +1W +2W +3W
Monate: 1M, 3M, 6M -1M -3M -6M +1M +3M +6M
Jahre:    1J, 3J, 5J, 10J -1J -3J -5J -10J +1J +3J +5J +10J
Nutze für die Darstellung ... ?
Originaldaten oder Mittelwerte auf ...
Stundenbasis Tagesbasis Wochenbasis
Monatsbasis Jahresbasis      Datenbasis: Original-Daten
Darstellen als:
Statistik (Auto) Statistik J:M      Darstellung:
Zur Graphik,    zurück zur Übersicht aller Sensoren.
 
Tabellarische Datenbersicht: ?
 
Sensor: Nr:Datum:Temp:Feuchte:
Aussen-T/F 1 20-04-2020 00:02:17 10.1 C 25 %
2 20-04-2020 00:12:17 9.6 C 25 %
3 20-04-2020 00:22:17 10.1 C 21 %
4 20-04-2020 00:32:18 9.9 C 23 %
5 20-04-2020 00:42:18 9.6 C 25 %
6 20-04-2020 00:52:18 9.3 C 25 %
7 20-04-2020 01:02:17 9.8 C 23 %
8 20-04-2020 01:12:17 9.3 C 23 %
9 20-04-2020 01:22:17 9.1 C 21 %
10 20-04-2020 01:32:17 9.6 C 21 %
11 20-04-2020 01:42:17 9.1 C 21 %
12 20-04-2020 01:52:17 8.5 C 25 %
13 20-04-2020 02:02:18 8.1 C 26 %
14 20-04-2020 02:12:18 7.9 C 26 %
15 20-04-2020 02:22:17 7.5 C 27 %
16 20-04-2020 02:32:18 7.3 C 27 %
17 20-04-2020 02:42:18 7.3 C 27 %
18 20-04-2020 02:52:17 7.3 C 27 %
19 20-04-2020 03:02:17 7 C 27 %
20 20-04-2020 03:12:17 6.9 C 28 %
21 20-04-2020 03:22:17 6.7 C 29 %
22 20-04-2020 03:32:17 6.9 C 28 %
23 20-04-2020 03:42:17 6.9 C 28 %
24 20-04-2020 03:52:17 6.7 C 29 %
25 20-04-2020 04:02:17 6.6 C 28 %
Sensor: Nr:Datum:Temp:Feuchte:
Aussen-T/F 26 20-04-2020 04:12:17 6.5 C 28 %
27 20-04-2020 04:22:17 6.4 C 29 %
28 20-04-2020 04:32:18 6.4 C 28 %
29 20-04-2020 04:42:18 6.4 C 28 %
30 20-04-2020 04:52:17 6.2 C 29 %
31 20-04-2020 05:02:18 6.4 C 29 %
32 20-04-2020 05:12:18 6.3 C 29 %
33 20-04-2020 05:22:17 6.3 C 29 %
34 20-04-2020 05:32:17 6.2 C 30 %
35 20-04-2020 05:42:18 6.3 C 29 %
36 20-04-2020 05:52:17 6.3 C 29 %
37 20-04-2020 06:02:18 6 C 30 %
38 20-04-2020 06:12:18 5.9 C 30 %
39 20-04-2020 06:22:17 5.9 C 30 %
40 20-04-2020 06:32:17 6.1 C 30 %
41 20-04-2020 06:42:17 6.1 C 30 %
42 20-04-2020 06:52:17 5.9 C 30 %
43 20-04-2020 07:02:17 6.1 C 30 %
44 20-04-2020 07:12:17 6.2 C 30 %
45 20-04-2020 07:22:17 6.2 C 30 %
46 20-04-2020 07:32:17 6.4 C 30 %
47 20-04-2020 07:42:17 7.2 C 27 %
48 20-04-2020 07:52:17 7.4 C 27 %
49 20-04-2020 08:02:18 7.3 C 27 %
50 20-04-2020 08:12:18 7.9 C 26 %
Sensor: Nr:Datum:Temp:Feuchte:
Aussen-T/F 51 20-04-2020 08:22:17 7.8 C 27 %
52 20-04-2020 08:32:17 7.7 C 28 %
53 20-04-2020 08:42:18 7.9 C 26 %
54 20-04-2020 08:52:18 8.1 C 26 %
55 20-04-2020 09:02:17 8.3 C 26 %
56 20-04-2020 09:12:17 8.2 C 27 %
57 20-04-2020 09:22:17 8.4 C 27 %
58 20-04-2020 09:32:17 9 C 25 %
59 20-04-2020 09:42:17 9.4 C 25 %
60 20-04-2020 09:52:18 9.4 C 26 %
61 20-04-2020 10:02:18 9.9 C 26 %
62 20-04-2020 10:12:18 10.7 C 22 %
63 20-04-2020 10:22:17 11.4 C 20 %
64 20-04-2020 10:32:17 12.1 C 20 %
65 20-04-2020 10:42:18 12.7 C 20 %
66 20-04-2020 10:52:17 13.1 C 20 %
67 20-04-2020 11:02:18 13.7 C 20 %
68 20-04-2020 11:12:18 14 C 20 %
69 20-04-2020 11:22:17 14.4 C 20 %
70 20-04-2020 11:32:17 14.7 C 20 %
71 20-04-2020 11:42:18 14.8 C 20 %
72 20-04-2020 11:52:17 15 C 20 %
73 20-04-2020 12:02:17 15.2 C 20 %
74 20-04-2020 12:12:17 15 C 20 %
75 20-04-2020 12:22:17 15 C 20 %
Sensor: Nr:Datum:Temp:Feuchte:
Aussen-T/F 76 20-04-2020 12:32:17 15.1 C 20 %
77 20-04-2020 12:42:17 15.1 C 20 %
78 20-04-2020 12:52:17 15.4 C 20 %
79 20-04-2020 13:02:17 15.4 C 20 %
80 20-04-2020 13:12:17 16 C 20 %
81 20-04-2020 13:22:17 15.8 C 20 %
82 20-04-2020 13:32:17 16.1 C 20 %
83 20-04-2020 13:42:17 16.1 C 20 %
84 20-04-2020 13:52:17 16.8 C 20 %
85 20-04-2020 14:02:17 16.9 C 20 %
86 20-04-2020 14:12:17 17.3 C 20 %
87 20-04-2020 14:22:17 18.3 C 20 %
88 20-04-2020 14:32:18 21 C 20 %
89 20-04-2020 14:42:18 23 C 20 %
90 20-04-2020 14:52:18 23.2 C 20 %
91 20-04-2020 15:02:17 22.9 C 20 %
92 20-04-2020 15:12:17 21.8 C 20 %
93 20-04-2020 15:22:17 22.9 C 20 %
94 20-04-2020 15:32:17 23.3 C 20 %
95 20-04-2020 15:42:17 24.7 C 20 %
96 20-04-2020 15:52:17 22.5 C 20 %
97 20-04-2020 16:02:17 24.5 C 20 %
98 20-04-2020 16:12:17 22.7 C 20 %
99 20-04-2020 16:22:17 23 C 20 %
100 20-04-2020 16:32:17 23.5 C 20 %
Sensor: Nr:Datum:Temp:Feuchte:
Aussen-T/F 101 20-04-2020 16:42:17 23.6 C 20 %
102 20-04-2020 16:52:17 23.4 C 20 %
103 20-04-2020 17:02:17 23.7 C 20 %
104 20-04-2020 17:12:17 22.3 C 20 %
105 20-04-2020 17:22:17 21.6 C 20 %
106 20-04-2020 17:32:17 20.4 C 20 %
107 20-04-2020 17:42:17 22.4 C 20 %
108 20-04-2020 17:52:17 20.9 C 20 %
109 20-04-2020 18:02:18 19.1 C 20 %
110 20-04-2020 18:12:18 19 C 20 %
111 20-04-2020 18:22:18 18.5 C 20 %
112 20-04-2020 18:32:17 18.4 C 20 %
113 20-04-2020 18:42:18 18.2 C 20 %
114 20-04-2020 18:52:18 18.3 C 20 %
115 20-04-2020 19:02:17 17.8 C 20 %
116 20-04-2020 19:12:17 17.6 C 20 %
117 20-04-2020 19:22:17 17.2 C 20 %
118 20-04-2020 19:32:17 17 C 20 %
119 20-04-2020 19:42:17 16.6 C 20 %
120 20-04-2020 19:52:17 16.3 C 20 %
121 20-04-2020 20:02:17 16 C 20 %
122 20-04-2020 20:12:17 15.6 C 20 %
123 20-04-2020 20:22:17 15 C 20 %
124 20-04-2020 20:32:17 14.4 C 20 %
125 20-04-2020 20:42:17 14.5 C 20 %
Sensor: Nr:Datum:Temp:Feuchte:
Aussen-T/F 126 20-04-2020 20:52:17 13.8 C 20 %
127 20-04-2020 21:02:17 13.7 C 20 %
128 20-04-2020 21:12:17 12.9 C 20 %
129 20-04-2020 21:22:17 12.6 C 20 %
130 20-04-2020 21:32:17 12 C 20 %
131 20-04-2020 21:42:17 12.2 C 20 %
132 20-04-2020 21:52:17 12.6 C 20 %
133 20-04-2020 22:02:17 11.8 C 20 %
134 20-04-2020 22:12:17 11.9 C 20 %
135 20-04-2020 22:22:17 12.1 C 20 %
136 20-04-2020 22:32:17 12.2 C 20 %
137 20-04-2020 22:42:17 11.9 C 20 %
138 20-04-2020 22:52:18 11.5 C 20 %
139 20-04-2020 23:02:17 11.5 C 20 %
140 20-04-2020 23:12:17 11.6 C 20 %
141 20-04-2020 23:22:17 11 C 20 %
142 20-04-2020 23:32:18 11.6 C 20 %
143 20-04-2020 23:42:18 11 C 20 %
144 20-04-2020 23:52:17 11 C 20 %
145 21-04-2020 00:02:17 10.9 C 20 %
146 21-04-2020 00:12:17 10.3 C 20 %
147 21-04-2020 00:22:17 10.4 C 20 %
148 21-04-2020 00:32:17 9.9 C 20 %
149 21-04-2020 00:42:17 10.5 C 20 %
150 21-04-2020 00:52:17 10 C 20 %
Sensor: Nr:Datum:Temp:Feuchte:
Aussen-T/F 151 21-04-2020 01:02:18 9.4 C 20 %
152 21-04-2020 01:12:18 8.9 C 20 %
153 21-04-2020 01:22:18 9 C 20 %
154 21-04-2020 01:32:18 8.9 C 20 %
155 21-04-2020 01:42:18 9.2 C 20 %
156 21-04-2020 01:52:17 8.4 C 20 %
157 21-04-2020 02:02:17 9.2 C 20 %
158 21-04-2020 02:12:18 9.1 C 20 %
159 21-04-2020 02:22:17 9.1 C 20 %
160 21-04-2020 02:32:18 8.9 C 20 %
161 21-04-2020 02:42:18 9.2 C 20 %
162 21-04-2020 02:52:17 9 C 20 %
163 21-04-2020 03:02:17 9.3 C 20 %
164 21-04-2020 03:12:17 9.1 C 20 %
165 21-04-2020 03:22:18 9.2 C 20 %
166 21-04-2020 03:32:17 9.1 C 20 %
167 21-04-2020 03:42:17 8.3 C 20 %
168 21-04-2020 03:52:18 8.6 C 20 %
169 21-04-2020 04:02:18 8.1 C 20 %
170 21-04-2020 04:12:18 7.4 C 23 %
171 21-04-2020 04:22:17 7.8 C 20 %
172 21-04-2020 04:32:17 7.7 C 23 %
173 21-04-2020 04:42:17 7.5 C 25 %
174 21-04-2020 04:52:17 7.5 C 25 %
175 21-04-2020 05:02:17 7.1 C 25 %
Sensor: Nr:Datum:Temp:Feuchte:
Aussen-T/F 176 21-04-2020 05:12:17 7.7 C 25 %
177 21-04-2020 05:22:17 7.3 C 25 %
178 21-04-2020 05:32:18 7 C 25 %
179 21-04-2020 05:42:18 6.8 C 26 %
180 21-04-2020 05:52:17 6.5 C 27 %
181 21-04-2020 06:02:17 6.9 C 27 %
182 21-04-2020 06:12:17 6.6 C 27 %
183 21-04-2020 06:22:18 6.6 C 27 %
184 21-04-2020 06:32:18 6.3 C 28 %
185 21-04-2020 06:42:18 6.4 C 28 %
186 21-04-2020 06:52:17 6.3 C 29 %
187 21-04-2020 07:02:18 6.1 C 30 %
188 21-04-2020 07:12:18 6.2 C 29 %
189 21-04-2020 07:22:17 6.3 C 30 %
190 21-04-2020 07:32:17 6.5 C 30 %
191 21-04-2020 07:42:17 7.3 C 27 %
192 21-04-2020 07:52:17 6.9 C 29 %
193 21-04-2020 08:02:17 7.4 C 27 %
194 21-04-2020 08:12:17 7.7 C 26 %
195 21-04-2020 08:22:17 7.6 C 26 %
196 21-04-2020 08:32:17 7.2 C 28 %
197 21-04-2020 08:42:18 7.5 C 27 %
198 21-04-2020 08:52:17 8.3 C 27 %
199 21-04-2020 09:02:17 8.7 C 25 %
200 21-04-2020 09:12:17 9.2 C 23 %
Sensor: Nr:Datum:Temp:Feuchte:
Aussen-T/F 201 21-04-2020 09:22:17 9.7 C 21 %
202 21-04-2020 09:32:17 10.2 C 20 %
203 21-04-2020 09:42:17 10.7 C 20 %
204 21-04-2020 09:52:17 10.9 C 20 %
205 21-04-2020 10:02:17 10.9 C 20 %
206 21-04-2020 10:12:17 11.7 C 20 %
207 21-04-2020 10:22:17 12.2 C 20 %
208 21-04-2020 10:32:17 12.8 C 20 %
209 21-04-2020 10:42:17 13.2 C 20 %
210 21-04-2020 10:52:17 13.5 C 20 %
211 21-04-2020 11:02:17 13.9 C 20 %
212 21-04-2020 11:12:17 14.6 C 20 %
213 21-04-2020 11:22:17 14.6 C 20 %
214 21-04-2020 11:32:18 14.7 C 20 %
215 21-04-2020 11:42:18 15.2 C 20 %
216 21-04-2020 11:52:18 15.7 C 20 %
217 21-04-2020 12:02:17 16.4 C 20 %
218 21-04-2020 12:12:18 16.1 C 20 %
219 21-04-2020 12:22:17 16.1 C 20 %
220 21-04-2020 12:32:17 16.2 C 20 %
221 21-04-2020 12:42:17 16.4 C 20 %
222 21-04-2020 12:52:17 16.6 C 20 %
223 21-04-2020 13:02:17 16.9 C 20 %
224 21-04-2020 13:12:17 17.4 C 20 %
225 21-04-2020 13:22:17 17.2 C 20 %
Sensor: Nr:Datum:Temp:Feuchte:
Aussen-T/F 226 21-04-2020 13:32:17 17.3 C 20 %
227 21-04-2020 13:42:17 17.9 C 20 %
228 21-04-2020 13:52:17 18.1 C 20 %
229 21-04-2020 14:02:17 18.5 C 20 %
230 21-04-2020 14:12:17 19 C 20 %
231 21-04-2020 14:22:17 19.4 C 20 %
232 21-04-2020 14:32:17 22 C 20 %
233 21-04-2020 14:42:17 24.4 C 20 %
234 21-04-2020 14:52:17 24.2 C 20 %
235 21-04-2020 15:02:17 24.5 C 20 %
236 21-04-2020 15:12:17 22.2 C 20 %
237 21-04-2020 15:22:17 23.7 C 20 %
238 21-04-2020 15:32:18 23.2 C 20 %
239 21-04-2020 15:42:18 24 C 20 %
240 21-04-2020 15:52:17 23.4 C 20 %
241 21-04-2020 16:02:18 22.8 C 20 %
242 21-04-2020 16:12:18 23.2 C 20 %
243 21-04-2020 16:22:17 22.9 C 20 %
244 21-04-2020 16:32:17 23.2 C 20 %
245 21-04-2020 16:42:17 24.3 C 20 %
246 21-04-2020 16:52:17 22.8 C 20 %
247 21-04-2020 17:02:17 23.6 C 20 %
248 21-04-2020 17:12:17 24.8 C 20 %
249 21-04-2020 17:22:18 22.8 C 20 %
250 21-04-2020 17:32:17 21.9 C 20 %
Sensor: Nr:Datum:Temp:Feuchte:
Aussen-T/F 251 21-04-2020 17:42:17 22.3 C 20 %
252 21-04-2020 17:52:17 22.9 C 20 %
253 21-04-2020 18:02:18 21.1 C 20 %
254 21-04-2020 18:12:18 20.9 C 20 %
255 21-04-2020 18:22:17 20.5 C 20 %
256 21-04-2020 18:32:17 20.3 C 20 %
257 21-04-2020 18:42:17 20 C 20 %
258 21-04-2020 18:52:18 20 C 20 %
259 21-04-2020 19:02:17 19.6 C 20 %
260 21-04-2020 19:12:17 19.4 C 20 %
261 21-04-2020 19:22:17 19.1 C 20 %
262 21-04-2020 19:32:18 18.9 C 20 %
263 21-04-2020 19:42:18 18.7 C 20 %
264 21-04-2020 19:52:17 18.3 C 20 %
265 21-04-2020 20:02:17 17.9 C 20 %
266 21-04-2020 20:12:17 17.4 C 20 %
267 21-04-2020 20:22:17 16.7 C 20 %
268 21-04-2020 20:32:17 16.2 C 20 %
269 21-04-2020 20:42:17 15.5 C 20 %
270 21-04-2020 20:52:17 14.8 C 20 %
271 21-04-2020 21:02:18 14.2 C 20 %
272 21-04-2020 21:12:18 14.5 C 20 %
273 21-04-2020 21:22:17 14.1 C 20 %
274 21-04-2020 21:32:17 13.9 C 20 %
275 21-04-2020 21:42:17 13.2 C 20 %
Sensor: Nr:Datum:Temp:Feuchte:
Aussen-T/F 276 21-04-2020 21:52:18 12.9 C 20 %
277 21-04-2020 22:02:17 13.2 C 20 %
278 21-04-2020 22:12:17 13 C 20 %
279 21-04-2020 22:22:17 13.4 C 20 %
280 21-04-2020 22:32:17 12.6 C 20 %
281 21-04-2020 22:42:17 12 C 20 %
282 21-04-2020 22:52:18 11.8 C 20 %
283 21-04-2020 23:02:18 12.1 C 20 %
284 21-04-2020 23:12:18 11.8 C 20 %
285 21-04-2020 23:22:17 11.5 C 20 %
286 21-04-2020 23:32:18 11.3 C 20 %
287 21-04-2020 23:42:18 11.3 C 20 %
288 21-04-2020 23:52:18 11.1 C 20 %
289 22-04-2020 00:02:18 11.1 C 20 %
290 22-04-2020 00:12:18 10.6 C 20 %
291 22-04-2020 00:22:17 11.1 C 20 %
292 22-04-2020 00:32:18 11.4 C 20 %
293 22-04-2020 00:42:18 10.9 C 20 %
294 22-04-2020 00:52:17 11 C 20 %
295 22-04-2020 01:02:17 10.8 C 20 %
296 22-04-2020 01:12:17 10 C 21 %
297 22-04-2020 01:22:17 9.9 C 25 %
298 22-04-2020 01:32:18 9.7 C 25 %
299 22-04-2020 01:42:18 10.2 C 21 %
300 22-04-2020 01:52:17 9.9 C 23 %
Sensor: Nr:Datum:Temp:Feuchte:
Aussen-T/F 301 22-04-2020 02:02:17 9.9 C 23 %
302 22-04-2020 02:12:17 9.8 C 25 %
303 22-04-2020 02:22:17 9.5 C 25 %
304 22-04-2020 02:32:17 9.3 C 25 %
305 22-04-2020 02:42:17 9.7 C 25 %
306 22-04-2020 02:52:17 9.3 C 25 %
307 22-04-2020 03:02:17 9.5 C 25 %
308 22-04-2020 03:12:17 9 C 25 %
309 22-04-2020 03:22:18 8.8 C 26 %
310 22-04-2020 03:32:18 8.5 C 27 %
311 22-04-2020 03:42:18 8.4 C 27 %
312 22-04-2020 03:52:17 8.3 C 27 %
313 22-04-2020 04:02:18 8.4 C 27 %
314 22-04-2020 04:12:18 8.3 C 27 %
315 22-04-2020 04:22:17 8 C 27 %
316 22-04-2020 04:32:18 7.9 C 27 %
317 22-04-2020 04:42:18 7.9 C 27 %
318 22-04-2020 04:52:17 7.4 C 28 %
319 22-04-2020 05:02:18 7.5 C 28 %
320 22-04-2020 05:12:18 7.3 C 28 %
321 22-04-2020 05:22:17 7.1 C 29 %
322 22-04-2020 05:32:17 7.1 C 29 %
323 22-04-2020 05:42:18 6.9 C 30 %
324 22-04-2020 05:52:17 6.7 C 30 %
325 22-04-2020 06:02:18 6.7 C 30 %
Sensor: Nr:Datum:Temp:Feuchte:
Aussen-T/F 326 22-04-2020 06:12:18 6.1 C 31 %
327 22-04-2020 06:22:17 5.8 C 32 %
328 22-04-2020 06:32:17 5.6 C 33 %
329 22-04-2020 06:42:17 5.3 C 35 %
330 22-04-2020 06:52:17 5.6 C 35 %
331 22-04-2020 07:02:17 5.6 C 35 %
332 22-04-2020 07:12:17 5.4 C 35 %
333 22-04-2020 07:22:18 5.9 C 35 %
334 22-04-2020 07:32:17 5.5 C 35 %
335 22-04-2020 07:42:17 5.7 C 35 %
336 22-04-2020 07:52:17 5.9 C 35 %
337 22-04-2020 08:02:17 6.5 C 34 %
338 22-04-2020 08:12:17 6.6 C 34 %
339 22-04-2020 08:22:17 7 C 33 %
340 22-04-2020 08:32:17 7.5 C 32 %
341 22-04-2020 08:42:17 8 C 31 %
342 22-04-2020 08:52:18 8.9 C 30 %
343 22-04-2020 09:02:18 9.1 C 30 %
344 22-04-2020 09:12:18 9.1 C 30 %
345 22-04-2020 09:22:17 10.1 C 26 %
346 22-04-2020 09:32:17 10.7 C 26 %
347 22-04-2020 09:42:17 10.7 C 26 %
348 22-04-2020 09:52:17 11.3 C 24 %
349 22-04-2020 10:02:17 11.5 C 24 %
350 22-04-2020 10:12:17 12.5 C 20 %
Sensor: Nr:Datum:Temp:Feuchte:
Aussen-T/F 351 22-04-2020 10:22:17 13 C 20 %
352 22-04-2020 10:32:17 13.7 C 20 %
353 22-04-2020 10:42:17 14.2 C 20 %
354 22-04-2020 10:52:17 14.8 C 20 %
355 22-04-2020 11:02:17 15.4 C 20 %
356 22-04-2020 11:12:17 15.7 C 20 %
357 22-04-2020 11:22:17 16.2 C 20 %
358 22-04-2020 11:32:17 16.4 C 20 %
359 22-04-2020 11:42:17 17.1 C 20 %
360 22-04-2020 11:52:18 17.1 C 20 %
361 22-04-2020 12:02:18 17.9 C 20 %
362 22-04-2020 12:12:18 17.6 C 20 %
363 22-04-2020 12:22:17 17.7 C 20 %
364 22-04-2020 12:32:17 17.7 C 20 %
365 22-04-2020 12:42:17 17.7 C 20 %
366 22-04-2020 12:52:18 18 C 20 %
367 22-04-2020 13:02:17 18.6 C 20 %
368 22-04-2020 13:12:17 19.3 C 20 %
369 22-04-2020 13:22:17 19 C 20 %
370 22-04-2020 13:32:17 18.9 C 20 %
371 22-04-2020 13:42:17 19.1 C 20 %
372 22-04-2020 13:52:17 19.4 C 20 %
373 22-04-2020 14:02:17 19.8 C 20 %
374 22-04-2020 14:12:17 20.3 C 20 %
375 22-04-2020 14:22:17 21.2 C 20 %
Sensor: Nr:Datum:Temp:Feuchte:
Aussen-T/F 376 22-04-2020 14:32:17 25.4 C 20 %
377 22-04-2020 14:42:17 27.1 C 20 %
378 22-04-2020 14:52:17 25.8 C 20 %
379 22-04-2020 15:02:17 24.9 C 20 %
380 22-04-2020 15:12:18 26.4 C 20 %
381 22-04-2020 15:22:17 27.6 C 20 %
382 22-04-2020 15:32:17 27 C 20 %
383 22-04-2020 15:42:17 25.4 C 20 %
384 22-04-2020 15:52:17 25.7 C 20 %
385 22-04-2020 16:02:17 25.3 C 20 %
386 22-04-2020 16:12:17 27.2 C 20 %
387 22-04-2020 16:22:17 26.8 C 20 %
388 22-04-2020 16:32:18 27.7 C 20 %
389 22-04-2020 16:42:18 25.2 C 20 %
390 22-04-2020 16:52:17 26.3 C 20 %
391 22-04-2020 17:02:17 25.2 C 20 %
392 22-04-2020 17:12:17 24.6 C 20 %
393 22-04-2020 17:22:17 25.1 C 20 %
394 22-04-2020 17:32:17 25.5 C 20 %
395 22-04-2020 17:42:17 25.6 C 20 %
396 22-04-2020 17:52:17 25.2 C 20 %
397 22-04-2020 18:02:17 23.1 C 20 %
398 22-04-2020 18:12:17 22 C 20 %
399 22-04-2020 18:22:17 22.1 C 20 %
400 22-04-2020 18:32:17 21.9 C 20 %
Sensor: Nr:Datum:Temp:Feuchte:
Aussen-T/F 401 22-04-2020 18:42:17 21.9 C 20 %
402 22-04-2020 18:52:17 21.6 C 20 %
403 22-04-2020 19:02:17 21.1 C 20 %
404 22-04-2020 19:12:17 21.2 C 20 %
405 22-04-2020 19:22:17 20.8 C 20 %
406 22-04-2020 19:32:18 20.4 C 20 %
407 22-04-2020 19:42:18 20.3 C 20 %
408 22-04-2020 19:52:17 20 C 20 %
409 22-04-2020 20:02:18 19.4 C 20 %
410 22-04-2020 20:12:18 18.4 C 20 %
411 22-04-2020 20:22:17 17 C 20 %
412 22-04-2020 20:32:17 16.3 C 20 %
413 22-04-2020 20:42:17 16.2 C 20 %
414 22-04-2020 20:52:17 15.9 C 20 %
415 22-04-2020 21:02:17 15.7 C 20 %
416 22-04-2020 21:12:17 15 C 20 %
417 22-04-2020 21:22:17 14.6 C 20 %
418 22-04-2020 21:32:17 14.4 C 20 %
419 22-04-2020 21:42:17 14.4 C 20 %
420 22-04-2020 21:52:17 14.1 C 20 %
421 22-04-2020 22:02:17 13.7 C 20 %
422 22-04-2020 22:12:17 13.8 C 20 %
423 22-04-2020 22:22:17 14.2 C 20 %
424 22-04-2020 22:32:17 13.6 C 20 %
425 22-04-2020 22:42:17 13.5 C 20 %
Sensor: Nr:Datum:Temp:Feuchte:
Aussen-T/F 426 22-04-2020 22:52:18 13.5 C 20 %
427 22-04-2020 23:02:17 13.7 C 20 %
428 22-04-2020 23:12:17 13.5 C 20 %
429 22-04-2020 23:22:17 13.2 C 20 %
430 22-04-2020 23:32:17 12.9 C 20 %
431 22-04-2020 23:42:17 13.2 C 20 %
432 22-04-2020 23:52:18 12.8 C 20 %
433 23-04-2020 00:02:17 12.6 C 20 %
434 23-04-2020 00:12:17 12.4 C 20 %
435 23-04-2020 00:22:17 12.4 C 20 %
436 23-04-2020 00:32:17 12.2 C 20 %
437 23-04-2020 00:42:17 12.2 C 20 %
438 23-04-2020 00:52:17 12.3 C 20 %
439 23-04-2020 01:02:17 12.1 C 20 %
440 23-04-2020 01:12:17 11.9 C 20 %
441 23-04-2020 01:22:18 11 C 20 %
442 23-04-2020 01:32:17 12 C 20 %
443 23-04-2020 01:42:17 10.9 C 20 %
444 23-04-2020 01:52:17 10.5 C 22 %
445 23-04-2020 02:02:17 9.7 C 25 %
446 23-04-2020 02:12:17 9.7 C 26 %
447 23-04-2020 02:22:18 9.7 C 25 %
448 23-04-2020 02:32:17 9.8 C 26 %
449 23-04-2020 02:42:17 9.6 C 25 %
450 23-04-2020 02:52:17 9.3 C 26 %
Sensor: Nr:Datum:Temp:Feuchte:
Aussen-T/F 451 23-04-2020 03:02:18 9.2 C 26 %
452 23-04-2020 03:12:18 9.2 C 26 %
453 23-04-2020 03:22:17 9.4 C 26 %
454 23-04-2020 03:32:17 9.4 C 26 %
455 23-04-2020 03:42:17 9.3 C 26 %
456 23-04-2020 03:52:17 9.1 C 26 %
457 23-04-2020 04:02:17 8.6 C 27 %
458 23-04-2020 04:12:17 8.1 C 29 %
459 23-04-2020 04:22:17 7.5 C 30 %
460 23-04-2020 04:32:17 7.2 C 32 %
461 23-04-2020 04:42:17 7.2 C 32 %
462 23-04-2020 04:52:17 6.9 C 33 %
463 23-04-2020 05:02:17 6.4 C 34 %
464 23-04-2020 05:12:17 6.2 C 34 %
465 23-04-2020 05:22:17 5.9 C 35 %
466 23-04-2020 05:32:17 6 C 35 %
467 23-04-2020 05:42:17 6 C 35 %
468 23-04-2020 05:52:17 5.8 C 36 %
469 23-04-2020 06:02:17 5.8 C 36 %
470 23-04-2020 06:12:18 5.4 C 36 %
471 23-04-2020 06:22:17 5.4 C 36 %
472 23-04-2020 06:32:18 5.3 C 36 %
473 23-04-2020 06:42:18 5.3 C 36 %
474 23-04-2020 06:52:17 5.3 C 36 %
475 23-04-2020 07:02:17 5.3 C 37 %
Sensor: Nr:Datum:Temp:Feuchte:
Aussen-T/F 476 23-04-2020 07:12:17 5.3 C 37 %
477 23-04-2020 07:22:17 5.2 C 37 %
478 23-04-2020 07:32:17 5.2 C 39 %
479 23-04-2020 07:42:17 5.2 C 39 %
480 23-04-2020 07:52:17 5.3 C 39 %
481 23-04-2020 08:02:17 5.4 C 39 %
482 23-04-2020 08:12:18 5.5 C 39 %
483 23-04-2020 08:22:18 5.9 C 39 %
484 23-04-2020 08:32:18 6.2 C 38 %
485 23-04-2020 08:42:18 6.5 C 38 %
486 23-04-2020 08:52:17 6.9 C 38 %
487 23-04-2020 09:02:17 7.7 C 36 %
488 23-04-2020 09:12:17 8.1 C 36 %
489 23-04-2020 09:22:17 8.6 C 35 %
490 23-04-2020 09:32:17 9.2 C 35 %
491 23-04-2020 09:42:17 9.7 C 34 %
492 23-04-2020 09:52:17 9.9 C 34 %
493 23-04-2020 10:02:18 10.5 C 33 %
494 23-04-2020 10:12:18 11 C 32 %
495 23-04-2020 10:22:17 11.8 C 30 %
496 23-04-2020 10:32:17 12.7 C 28 %
497 23-04-2020 10:42:17 13.2 C 27 %
498 23-04-2020 10:52:17 14.8 C 22 %
499 23-04-2020 11:02:18 16 C 20 %
500 23-04-2020 11:12:18 16.3 C 20 %
Sensor: Nr:Datum:Temp:Feuchte:
Aussen-T/F 501 23-04-2020 11:22:17 17.2 C 20 %
502 23-04-2020 11:32:17 17.4 C 20 %
503 23-04-2020 11:42:17 17.7 C 20 %
504 23-04-2020 11:52:18 17.9 C 20 %
505 23-04-2020 12:02:17 18.9 C 20 %
506 23-04-2020 12:12:17 18.2 C 20 %
507 23-04-2020 12:22:17 18 C 20 %
508 23-04-2020 12:32:18 18.5 C 20 %
509 23-04-2020 12:42:18 18.3 C 20 %
510 23-04-2020 12:52:17 18.4 C 20 %
511 23-04-2020 13:02:17 19.2 C 20 %
512 23-04-2020 13:12:17 19.5 C 20 %
513 23-04-2020 13:22:17 19.1 C 20 %
514 23-04-2020 13:32:17 19.2 C 20 %
515 23-04-2020 13:42:17 19.7 C 20 %
516 23-04-2020 13:52:17 20.1 C 20 %
517 23-04-2020 14:02:17 20.4 C 20 %
518 23-04-2020 14:12:17 20.7 C 20 %
519 23-04-2020 14:22:17 21.6 C 20 %
520 23-04-2020 14:32:17 27.4 C 20 %
521 23-04-2020 14:42:17 29.1 C 20 %
522 23-04-2020 14:52:17 29 C 20 %
523 23-04-2020 15:02:17 29.3 C 20 %
524 23-04-2020 15:12:17 29.5 C 20 %
525 23-04-2020 15:22:18 28.8 C 20 %
Sensor: Nr:Datum:Temp:Feuchte:
Aussen-T/F 526 23-04-2020 15:32:17 30.3 C 20 %
527 23-04-2020 15:42:17 31.4 C 20 %
528 23-04-2020 15:52:17 28.9 C 20 %
529 23-04-2020 16:02:18 27.7 C 20 %
530 23-04-2020 16:12:18 28.1 C 20 %
531 23-04-2020 16:22:17 28.4 C 20 %
532 23-04-2020 16:32:18 28.3 C 20 %
533 23-04-2020 16:42:18 29 C 20 %
534 23-04-2020 16:52:17 29.2 C 20 %
535 23-04-2020 17:02:17 31.6 C 20 %
536 23-04-2020 17:12:18 28.2 C 20 %
537 23-04-2020 17:22:17 28.6 C 20 %
538 23-04-2020 17:32:18 28.1 C 20 %
539 23-04-2020 17:42:18 28 C 20 %
540 23-04-2020 17:52:18 30.1 C 20 %
541 23-04-2020 18:02:17 27.1 C 20 %
542 23-04-2020 18:12:17 24.5 C 20 %
543 23-04-2020 18:22:17 23.9 C 20 %
544 23-04-2020 18:32:17 23.6 C 20 %
545 23-04-2020 18:42:17 23.7 C 20 %
546 23-04-2020 18:52:17 23.2 C 20 %
547 23-04-2020 19:02:17 22.5 C 20 %
548 23-04-2020 19:12:17 22.4 C 20 %
549 23-04-2020 19:22:17 22 C 20 %
550 23-04-2020 19:32:18 21.2 C 20 %
Sensor: Nr:Datum:Temp:Feuchte:
Aussen-T/F 551 23-04-2020 19:42:18 20 C 20 %
552 23-04-2020 19:52:17 18.6 C 20 %
553 23-04-2020 20:02:18 18.6 C 20 %
554 23-04-2020 20:12:18 17.9 C 20 %
555 23-04-2020 20:22:17 17.2 C 20 %
556 23-04-2020 20:32:18 16.5 C 20 %
557 23-04-2020 20:42:18 15.5 C 20 %
558 23-04-2020 20:52:18 14.3 C 20 %
559 23-04-2020 21:02:18 14 C 20 %
560 23-04-2020 21:12:18 14.1 C 20 %
561 23-04-2020 21:22:17 13.5 C 20 %
562 23-04-2020 21:32:17 13.1 C 20 %
563 23-04-2020 21:42:17 12.9 C 20 %
564 23-04-2020 21:52:17 12.5 C 20 %
565 23-04-2020 22:02:17 12 C 23 %
566 23-04-2020 22:12:17 11.6 C 25 %
567 23-04-2020 22:22:17 11.5 C 25 %
568 23-04-2020 22:32:18 11 C 26 %
569 23-04-2020 22:42:18 11.1 C 26 %
570 23-04-2020 22:52:18 10.8 C 26 %
571 23-04-2020 23:02:18 10.4 C 27 %
572 23-04-2020 23:12:18 10.3 C 27 %
573 23-04-2020 23:22:18 9.6 C 29 %
574 23-04-2020 23:32:17 9.6 C 29 %
575 23-04-2020 23:42:17 9.6 C 29 %
Sensor: Nr:Datum:Temp:Feuchte:
Aussen-T/F 576 23-04-2020 23:52:17 9.2 C 30 %
577 24-04-2020 00:02:18 9.2 C 30 %
578 24-04-2020 00:12:18 9.3 C 30 %
579 24-04-2020 00:22:17 9.2 C 30 %
580 24-04-2020 00:32:18 8.6 C 31 %
581 24-04-2020 00:42:18 8.4 C 31 %
582 24-04-2020 00:52:17 8.3 C 32 %
583 24-04-2020 01:02:18 8.1 C 32 %
584 24-04-2020 01:12:18 8.3 C 33 %
585 24-04-2020 01:22:17 8.1 C 32 %
586 24-04-2020 01:32:18 8.1 C 33 %
587 24-04-2020 01:42:18 8.2 C 33 %
588 24-04-2020 01:52:17 7.8 C 33 %
589 24-04-2020 02:02:17 7.5 C 34 %
590 24-04-2020 02:12:17 7.1 C 34 %
591 24-04-2020 02:22:17 7 C 35 %
592 24-04-2020 02:32:18 7.2 C 35 %
593 24-04-2020 02:42:18 6.8 C 36 %
594 24-04-2020 02:52:18 7 C 35 %
595 24-04-2020 03:02:17 7 C 35 %
596 24-04-2020 03:12:18 6.8 C 36 %
597 24-04-2020 03:22:17 6.2 C 36 %
598 24-04-2020 03:32:17 6.4 C 37 %
599 24-04-2020 03:42:17 6.3 C 37 %
600 24-04-2020 03:52:17 6.2 C 37 %
Sensor: Nr:Datum:Temp:Feuchte:
Aussen-T/F 601 24-04-2020 04:02:17 6.2 C 37 %
602 24-04-2020 04:12:17 6.1 C 37 %
603 24-04-2020 04:22:17 6 C 37 %
604 24-04-2020 04:32:17 5.9 C 38 %
605 24-04-2020 04:42:17 6.2 C 38 %
606 24-04-2020 04:52:17 6.3 C 38 %
607 24-04-2020 05:02:17 6.2 C 38 %
608 24-04-2020 05:12:17 6 C 38 %
609 24-04-2020 05:22:17 5.9 C 39 %
610 24-04-2020 05:32:18 6.3 C 38 %
611 24-04-2020 05:42:18 6.2 C 38 %
612 24-04-2020 05:52:17 6.1 C 38 %
613 24-04-2020 06:02:17 6.1 C 38 %
614 24-04-2020 06:12:17 5.9 C 39 %
615 24-04-2020 06:22:18 6 C 39 %
616 24-04-2020 06:32:17 6 C 38 %
617 24-04-2020 06:42:17 6 C 39 %
618 24-04-2020 06:52:17 6.2 C 39 %
619 24-04-2020 07:02:17 6.3 C 38 %
620 24-04-2020 07:12:17 6.3 C 39 %
621 24-04-2020 07:22:17 6.3 C 39 %
622 24-04-2020 07:32:18 6.3 C 39 %
623 24-04-2020 07:42:18 6.5 C 39 %
624 24-04-2020 07:52:17 6.7 C 39 %
625 24-04-2020 08:02:18 6.8 C 39 %
Sensor: Nr:Datum:Temp:Feuchte:
Aussen-T/F 626 24-04-2020 08:12:18 7.3 C 38 %
627 24-04-2020 08:22:17 8.2 C 36 %
628 24-04-2020 08:32:17 9 C 35 %
629 24-04-2020 08:42:17 9.6 C 35 %
630 24-04-2020 08:52:17 9.9 C 34 %
631 24-04-2020 09:02:17 10.4 C 33 %
632 24-04-2020 09:12:18 11 C 32 %
633 24-04-2020 09:22:17 11.5 C 31 %
634 24-04-2020 09:32:18 11.9 C 31 %
635 24-04-2020 09:42:18 12.5 C 30 %
636 24-04-2020 09:52:17 12.4 C 30 %
637 24-04-2020 10:02:17 12.8 C 30 %
638 24-04-2020 10:12:17 13.1 C 29 %
639 24-04-2020 10:22:17 14 C 28 %
640 24-04-2020 10:32:17 14.2 C 28 %
641 24-04-2020 10:42:17 14.6 C 27 %
642 24-04-2020 10:52:17 15 C 26 %
643 24-04-2020 11:02:17 15.6 C 26 %
644 24-04-2020 11:12:18 15.6 C 26 %
645 24-04-2020 11:22:17 16.5 C 25 %
646 24-04-2020 11:32:18 16.6 C 24 %
647 24-04-2020 11:42:18 17 C 24 %
648 24-04-2020 11:52:17 17 C 23 %
649 24-04-2020 12:02:17 17.9 C 23 %
650 24-04-2020 12:12:17 18.1 C 21 %
Sensor: Nr:Datum:Temp:Feuchte:
Aussen-T/F 651 24-04-2020 12:22:17 18.2 C 21 %
652 24-04-2020 12:32:18 18.4 C 21 %
653 24-04-2020 12:42:18 18.9 C 20 %
654 24-04-2020 12:52:18 19.3 C 20 %
655 24-04-2020 13:02:17 19.6 C 20 %
656 24-04-2020 13:12:17 20.2 C 20 %
657 24-04-2020 13:22:17 20.5 C 20 %
658 24-04-2020 13:32:18 20.7 C 20 %
659 24-04-2020 13:42:18 21 C 20 %
660 24-04-2020 13:52:17 21.3 C 20 %
661 24-04-2020 14:02:17 21.8 C 20 %
662 24-04-2020 14:12:17 22.2 C 20 %
663 24-04-2020 14:22:17 23.5 C 20 %
664 24-04-2020 14:32:17 26.8 C 20 %
665 24-04-2020 14:42:17 28.5 C 20 %
666 24-04-2020 14:52:17 27.1 C 20 %
667 24-04-2020 15:02:18 28 C 20 %
668 24-04-2020 15:12:18 31 C 20 %
669 24-04-2020 15:22:17 27.6 C 20 %
670 24-04-2020 15:32:17 28.1 C 20 %
671 24-04-2020 15:42:18 27.5 C 20 %
672 24-04-2020 15:52:17 28.8 C 20 %
673 24-04-2020 16:02:18 28.7 C 20 %
674 24-04-2020 16:12:18 28.7 C 20 %
675 24-04-2020 16:22:18 27.2 C 20 %
Sensor: Nr:Datum:Temp:Feuchte:
Aussen-T/F 676 24-04-2020 16:32:18 26.8 C 20 %
677 24-04-2020 16:42:18 28 C 20 %
678 24-04-2020 16:52:17 26.3 C 20 %
679 24-04-2020 17:02:17 26 C 20 %
680 24-04-2020 17:12:17 26.7 C 20 %
681 24-04-2020 17:22:18 26.4 C 20 %
682 24-04-2020 17:32:18 26.3 C 20 %
683 24-04-2020 17:42:18 24.2 C 20 %
684 24-04-2020 17:52:17 26 C 20 %
685 24-04-2020 18:02:18 24.1 C 20 %
686 24-04-2020 18:12:18 22.3 C 20 %
687 24-04-2020 18:22:17 22.2 C 20 %
688 24-04-2020 18:32:17 22 C 20 %
689 24-04-2020 18:42:17 20.9 C 20 %
690 24-04-2020 18:52:18 21 C 20 %
691 24-04-2020 19:02:17 20.5 C 20 %
692 24-04-2020 19:12:17 20.3 C 20 %
693 24-04-2020 19:23:17 20 C 20 %
694 24-04-2020 19:32:17 19.9 C 20 %
695 24-04-2020 19:42:18 19.6 C 20 %
696 24-04-2020 19:53:17 19.2 C 20 %
697 24-04-2020 20:02:18 19 C 20 %
698 24-04-2020 20:12:18 18.5 C 20 %
699 24-04-2020 20:22:17 17.7 C 20 %
700 24-04-2020 20:32:18 17.3 C 20 %
Sensor: Nr:Datum:Temp:Feuchte:
Aussen-T/F 701 24-04-2020 20:42:18 16.8 C 20 %
702 24-04-2020 20:52:18 16.1 C 20 %
703 24-04-2020 21:02:18 15.9 C 20 %
704 24-04-2020 21:12:18 15.5 C 20 %
705 24-04-2020 21:23:17 15.4 C 20 %
706 24-04-2020 21:33:17 15 C 20 %
707 24-04-2020 21:42:17 15.1 C 20 %
708 24-04-2020 21:52:17 14.7 C 20 %
709 24-04-2020 22:03:17 14.4 C 20 %
710 24-04-2020 22:13:17 14.1 C 20 %
711 24-04-2020 22:22:18 14.2 C 20 %
712 24-04-2020 22:32:18 14.4 C 20 %
713 24-04-2020 22:42:18 13.9 C 20 %
714 24-04-2020 22:52:18 13.3 C 20 %
715 24-04-2020 23:02:18 13.2 C 20 %
716 24-04-2020 23:12:18 13.2 C 20 %
717 24-04-2020 23:22:17 12.7 C 20 %
718 24-04-2020 23:33:17 12.5 C 20 %
719 24-04-2020 23:43:17 13 C 20 %
720 24-04-2020 23:53:17 12.4 C 20 %
721 25-04-2020 00:02:18 12.6 C 20 %
722 25-04-2020 00:12:18 12.7 C 20 %
723 25-04-2020 00:23:17 12.6 C 20 %
724 25-04-2020 00:32:18 12.3 C 20 %
725 25-04-2020 00:42:18 11.8 C 20 %
Sensor: Nr:Datum:Temp:Feuchte:
Aussen-T/F 726 25-04-2020 00:52:18 11.7 C 20 %
727 25-04-2020 01:03:17 11.7 C 20 %
728 25-04-2020 01:12:17 11.7 C 20 %
729 25-04-2020 01:23:17 11.3 C 22 %
730 25-04-2020 01:33:17 11 C 25 %
731 25-04-2020 01:43:17 11.1 C 25 %
732 25-04-2020 01:52:17 11.1 C 25 %
733 25-04-2020 02:02:18 10.4 C 26 %
734 25-04-2020 02:12:18 10.3 C 26 %
735 25-04-2020 02:23:17 9.7 C 29 %
736 25-04-2020 02:33:17 9.5 C 29 %
737 25-04-2020 02:43:17 9.4 C 30 %
738 25-04-2020 02:53:17 9.8 C 29 %
739 25-04-2020 03:03:17 10.1 C 28 %
740 25-04-2020 03:13:17 10 C 28 %
741 25-04-2020 03:22:18 10 C 28 %
742 25-04-2020 03:33:17 9.7 C 30 %
743 25-04-2020 03:43:17 9 C 30 %
744 25-04-2020 03:53:17 9 C 30 %
745 25-04-2020 04:02:18 9.3 C 30 %
746 25-04-2020 04:12:18 8.9 C 30 %
747 25-04-2020 04:23:17 8.9 C 30 %
748 25-04-2020 04:33:18 8.7 C 31 %
749 25-04-2020 04:42:18 8.2 C 32 %
750 25-04-2020 04:53:17 8.3 C 33 %
Sensor: Nr:Datum:Temp:Feuchte:
Aussen-T/F 751 25-04-2020 05:03:17 8.1 C 33 %
752 25-04-2020 05:13:18 7.5 C 35 %
753 25-04-2020 05:23:18 7 C 36 %
754 25-04-2020 05:32:18 7.1 C 37 %
755 25-04-2020 05:42:18 7.2 C 38 %
756 25-04-2020 05:53:18 7.6 C 38 %
757 25-04-2020 06:02:18 8 C 36 %
758 25-04-2020 06:12:18 8.2 C 36 %
759 25-04-2020 06:23:17 8.3 C 36 %
760 25-04-2020 06:33:17 8.3 C 36 %
761 25-04-2020 06:43:18 8.4 C 35 %
762 25-04-2020 06:53:17 8.3 C 35 %
763 25-04-2020 07:03:18 8.3 C 35 %
764 25-04-2020 07:12:18 8.4 C 35 %
765 25-04-2020 07:23:17 8.3 C 35 %
766 25-04-2020 07:32:18 8.4 C 35 %
767 25-04-2020 07:42:18 8.4 C 35 %
768 25-04-2020 07:52:18 8.4 C 35 %
769 25-04-2020 08:03:17 8.4 C 34 %
770 25-04-2020 08:13:17 8.7 C 34 %
771 25-04-2020 08:23:17 8.6 C 34 %
772 25-04-2020 08:33:17 8.7 C 34 %
773 25-04-2020 08:43:17 8.8 C 34 %
774 25-04-2020 08:53:17 8.8 C 32 %
775 25-04-2020 09:03:17 9.3 C 32 %
Sensor: Nr:Datum:Temp:Feuchte:
Aussen-T/F 776 25-04-2020 09:13:17 9.6 C 31 %
777 25-04-2020 09:23:17 9.7 C 31 %
778 25-04-2020 09:33:17 9.8 C 31 %
779 25-04-2020 09:43:17 10.2 C 30 %
780 25-04-2020 09:53:17 10.4 C 30 %
781 25-04-2020 10:03:17 10.8 C 30 %
782 25-04-2020 10:13:17 10.5 C 28 %
783 25-04-2020 10:23:17 11 C 28 %
784 25-04-2020 10:32:18 11.1 C 27 %
785 25-04-2020 10:42:18 10.5 C 27 %
786 25-04-2020 10:53:17 11.5 C 26 %
787 25-04-2020 11:03:17 12.4 C 25 %
788 25-04-2020 11:13:18 12 C 24 %
789 25-04-2020 11:23:17 10.9 C 25 %
790 25-04-2020 11:32:18 11.6 C 25 %
791 25-04-2020 11:42:18 11.2 C 25 %
792 25-04-2020 11:53:17 11.8 C 25 %
793 25-04-2020 12:03:18 11.2 C 25 %
794 25-04-2020 12:13:18 11.5 C 25 %
795 25-04-2020 12:23:18 11.7 C 25 %
796 25-04-2020 12:33:17 11.7 C 25 %
797 25-04-2020 12:43:18 11.4 C 25 %
798 25-04-2020 12:53:17 12.3 C 24 %
799 25-04-2020 13:03:17 12.4 C 22 %
800 25-04-2020 13:13:17 12.5 C 23 %
Sensor: Nr:Datum:Temp:Feuchte:
Aussen-T/F 801 25-04-2020 13:23:17 13.2 C 21 %
802 25-04-2020 13:33:17 13.1 C 21 %
803 25-04-2020 13:43:17 13.2 C 21 %
804 25-04-2020 13:53:17 13.7 C 20 %
805 25-04-2020 14:03:17 13.8 C 20 %
806 25-04-2020 14:13:17 14.1 C 20 %
807 25-04-2020 14:23:17 15.8 C 20 %
808 25-04-2020 14:33:17 21 C 20 %
809 25-04-2020 14:43:17 22.5 C 20 %
810 25-04-2020 14:53:17 20.7 C 20 %
811 25-04-2020 15:03:17 23.8 C 20 %
812 25-04-2020 15:13:17 23.8 C 20 %
813 25-04-2020 15:23:17 23.7 C 20 %
814 25-04-2020 15:33:18 25.7 C 20 %
815 25-04-2020 15:43:18 25.7 C 20 %
816 25-04-2020 15:53:18 26.3 C 20 %
817 25-04-2020 16:03:17 23.2 C 20 %
818 25-04-2020 16:13:17 24.8 C 20 %
819 25-04-2020 16:23:17 23.9 C 20 %
820 25-04-2020 16:33:17 25.3 C 20 %
821 25-04-2020 16:43:17 22.5 C 20 %
822 25-04-2020 16:53:17 23.9 C 20 %
823 25-04-2020 17:03:17 25.1 C 20 %
824 25-04-2020 17:13:17 25.9 C 20 %
825 25-04-2020 17:23:17 26.4 C 20 %
Sensor: Nr:Datum:Temp:Feuchte:
Aussen-T/F 826 25-04-2020 17:33:18 27.1 C 20 %
827 25-04-2020 17:43:18 22.5 C 20 %
828 25-04-2020 17:53:17 23.3 C 20 %
829 25-04-2020 18:03:17 20.1 C 20 %
830 25-04-2020 18:13:17 18.5 C 20 %
831 25-04-2020 18:23:17 18.6 C 20 %
832 25-04-2020 18:33:17 18.3 C 20 %
833 25-04-2020 18:43:17 17.9 C 20 %
834 25-04-2020 18:53:17 17.7 C 20 %
835 25-04-2020 19:03:17 17.5 C 20 %
836 25-04-2020 19:13:17 17.1 C 20 %
837 25-04-2020 19:23:17 16.9 C 20 %
838 25-04-2020 19:33:17 16.4 C 20 %
839 25-04-2020 19:43:18 16.2 C 20 %
840 25-04-2020 19:53:17 15.7 C 20 %
841 25-04-2020 20:03:18 15.4 C 20 %
842 25-04-2020 20:13:18 14.7 C 20 %
843 25-04-2020 20:23:17 13.9 C 20 %
844 25-04-2020 20:33:17 13.8 C 20 %
845 25-04-2020 20:43:17 12.7 C 20 %
846 25-04-2020 20:53:17 12.4 C 20 %
847 25-04-2020 21:03:18 12.1 C 20 %
848 25-04-2020 21:13:18 12 C 20 %
849 25-04-2020 21:23:17 11.4 C 21 %
850 25-04-2020 21:33:17 11.1 C 22 %
Sensor: Nr:Datum:Temp:Feuchte:
Aussen-T/F 851 25-04-2020 21:43:18 11.2 C 21 %
852 25-04-2020 21:53:17 11 C 22 %
853 25-04-2020 22:03:17 11 C 22 %
854 25-04-2020 22:13:17 10.9 C 23 %
855 25-04-2020 22:23:17 10.1 C 25 %
856 25-04-2020 22:33:17 10.1 C 25 %
857 25-04-2020 22:43:17 9.9 C 26 %
858 25-04-2020 22:53:18 9.8 C 27 %
859 25-04-2020 23:03:17 9.6 C 27 %
860 25-04-2020 23:13:17 9.5 C 27 %
861 25-04-2020 23:23:17 9.1 C 28 %
862 25-04-2020 23:33:18 8.7 C 30 %
863 25-04-2020 23:43:18 8.2 C 31 %
864 25-04-2020 23:53:17 7.7 C 32 %
865 26-04-2020 00:03:18 7.1 C 33 %
866 26-04-2020 00:13:18 6.8 C 35 %
867 26-04-2020 00:23:17 6.6 C 35 %
868 26-04-2020 00:33:18 6.3 C 35 %
869 26-04-2020 00:43:18 6.2 C 36 %
870 26-04-2020 00:53:17 5.9 C 37 %
871 26-04-2020 01:03:17 5.8 C 37 %
872 26-04-2020 01:13:18 5.5 C 38 %
873 26-04-2020 01:23:17 5.6 C 38 %
874 26-04-2020 01:33:17 5.2 C 38 %
875 26-04-2020 01:43:17 5.1 C 38 %
Sensor: Nr:Datum:Temp:Feuchte:
Aussen-T/F 876 26-04-2020 01:53:17 5.1 C 39 %
877 26-04-2020 02:03:17 4.7 C 40 %
878 26-04-2020 02:13:17 4.7 C 40 %
879 26-04-2020 02:23:17 4.6 C 40 %
880 26-04-2020 02:33:17 4.5 C 40 %
881 26-04-2020 02:43:17 4.8 C 41 %
882 26-04-2020 02:53:18 4.7 C 41 %
883 26-04-2020 03:03:17 4.4 C 41 %
884 26-04-2020 03:13:18 4.3 C 41 %
885 26-04-2020 03:23:17 4.1 C 41 %
886 26-04-2020 03:33:18 4 C 41 %
887 26-04-2020 03:43:18 3.8 C 42 %
888 26-04-2020 03:53:17 3.6 C 43 %
889 26-04-2020 04:03:18 3.9 C 44 %
890 26-04-2020 04:13:18 3.6 C 43 %
891 26-04-2020 04:23:17 3.4 C 43 %
892 26-04-2020 04:33:17 3.2 C 43 %
893 26-04-2020 04:43:17 3.3 C 44 %
894 26-04-2020 04:53:17 3.1 C 44 %
895 26-04-2020 05:03:18 3.1 C 45 %
896 26-04-2020 05:13:18 3 C 44 %
897 26-04-2020 05:23:17 2.7 C 45 %
898 26-04-2020 05:33:17 2.6 C 45 %
899 26-04-2020 05:43:17 2.7 C 46 %
900 26-04-2020 05:53:17 2.5 C 46 %
Sensor: Nr:Datum:Temp:Feuchte:
Aussen-T/F 901 26-04-2020 06:03:17 2.3 C 46 %
902 26-04-2020 06:13:17 2.4 C 46 %
903 26-04-2020 06:23:17 2.4 C 46 %
904 26-04-2020 06:33:17 2.4 C 46 %
905 26-04-2020 06:43:18 2.3 C 46 %
906 26-04-2020 06:53:17 2.3 C 46 %
907 26-04-2020 07:03:17 2.3 C 46 %
908 26-04-2020 07:13:17 2.6 C 47 %
909 26-04-2020 07:23:17 2.7 C 47 %
910 26-04-2020 07:33:17 2.8 C 46 %
911 26-04-2020 07:43:17 2.8 C 46 %
912 26-04-2020 07:53:17 2.9 C 47 %
913 26-04-2020 08:03:17 3.2 C 46 %
914 26-04-2020 08:13:17 3.4 C 46 %
915 26-04-2020 08:23:17 3.6 C 46 %
916 26-04-2020 08:33:17 4 C 45 %
917 26-04-2020 08:43:17 4.3 C 45 %
918 26-04-2020 08:53:17 4.5 C 45 %
919 26-04-2020 09:03:17 4.9 C 45 %
920 26-04-2020 09:13:17 5.2 C 43 %
921 26-04-2020 09:23:17 5.8 C 44 %
922 26-04-2020 09:33:17 6.4 C 42 %
923 26-04-2020 09:43:17 6.8 C 41 %
924 26-04-2020 09:53:17 7.4 C 40 %
925 26-04-2020 10:03:18 7.8 C 39 %
Sensor: Nr:Datum:Temp:Feuchte:
Aussen-T/F 926 26-04-2020 10:13:18 8.5 C 38 %
927 26-04-2020 10:23:17 9 C 37 %
928 26-04-2020 10:33:18 9.6 C 36 %
929 26-04-2020 10:43:18 10.4 C 35 %
930 26-04-2020 10:53:17 11.3 C 32 %
931 26-04-2020 11:03:17 12.2 C 31 %
932 26-04-2020 11:13:17 12.8 C 29 %
933 26-04-2020 11:23:17 13.6 C 27 %
934 26-04-2020 11:33:17 14.1 C 26 %
935 26-04-2020 11:43:17 14.7 C 25 %
936 26-04-2020 11:53:17 15.2 C 22 %
937 26-04-2020 12:03:17 15.2 C 21 %
938 26-04-2020 12:13:17 15.1 C 20 %
939 26-04-2020 12:23:18 15.4 C 20 %
940 26-04-2020 12:33:17 15.9 C 20 %
941 26-04-2020 12:43:18 15.9 C 20 %
942 26-04-2020 12:53:17 16.2 C 20 %
943 26-04-2020 13:03:17 16.5 C 20 %
944 26-04-2020 13:13:17 16.8 C 20 %
945 26-04-2020 13:23:18 16.6 C 20 %
946 26-04-2020 13:33:17 16.8 C 20 %
947 26-04-2020 13:43:17 17.1 C 20 %
948 26-04-2020 13:53:17 17.1 C 20 %
949 26-04-2020 14:03:17 17.4 C 20 %
950 26-04-2020 14:13:17 18.1 C 20 %
Sensor: Nr:Datum:Temp:Feuchte:
Aussen-T/F 951 26-04-2020 14:23:17 19.3 C 20 %
952 26-04-2020 14:33:18 25 C 20 %
953 26-04-2020 14:43:18 24.8 C 20 %
954 26-04-2020 14:53:17 26.7 C 20 %
955 26-04-2020 15:03:18 26.6 C 20 %
956 26-04-2020 15:13:18 28.3 C 20 %
957 26-04-2020 15:23:17 29.7 C 20 %
958 26-04-2020 15:33:17 29.5 C 20 %
959 26-04-2020 15:43:17 28 C 20 %
960 26-04-2020 15:53:18 29 C 20 %
961 26-04-2020 16:03:18 30.5 C 20 %
962 26-04-2020 16:13:18 27.6 C 20 %
963 26-04-2020 16:23:17 28.4 C 20 %
964 26-04-2020 16:33:17 26.5 C 20 %
965 26-04-2020 16:43:17 30.3 C 20 %
966 26-04-2020 16:53:17 28.1 C 20 %
967 26-04-2020 17:03:18 29 C 20 %
968 26-04-2020 17:13:18 28.3 C 20 %
969 26-04-2020 17:23:18 27.4 C 20 %
970 26-04-2020 17:33:18 27.2 C 20 %
971 26-04-2020 17:43:18 28 C 20 %
972 26-04-2020 17:53:17 26.5 C 20 %
973 26-04-2020 18:03:17 25.8 C 20 %
974 26-04-2020 18:13:17 23.1 C 20 %
975 26-04-2020 18:23:17 22 C 20 %
Sensor: Nr:Datum:Temp:Feuchte:
Aussen-T/F 976 26-04-2020 18:33:17 21.9 C 20 %
977 26-04-2020 18:43:17 21.1 C 20 %
978 26-04-2020 18:53:17 21.1 C 20 %
979 26-04-2020 19:03:17 20.9 C 20 %
980 26-04-2020 19:13:17 20.2 C 20 %
981 26-04-2020 19:23:17 19.7 C 20 %
982 26-04-2020 19:33:17 19.5 C 20 %
983 26-04-2020 19:43:18 19.1 C 20 %
984 26-04-2020 19:53:17 18.2 C 20 %
985 26-04-2020 20:03:18 17.3 C 20 %
986 26-04-2020 20:13:18 16.6 C 20 %
987 26-04-2020 20:23:17 15.8 C 20 %
988 26-04-2020 20:33:17 14.7 C 20 %
989 26-04-2020 20:43:17 14.3 C 20 %
990 26-04-2020 20:53:18 14 C 20 %
991 26-04-2020 21:03:18 13.7 C 20 %
992 26-04-2020 21:13:18 13.1 C 20 %
993 26-04-2020 21:23:17 12.6 C 20 %
994 26-04-2020 21:33:18 12.4 C 20 %
995 26-04-2020 21:43:18 12.1 C 20 %
996 26-04-2020 21:53:17 11.6 C 23 %
997 26-04-2020 22:03:17 11.3 C 25 %
998 26-04-2020 22:13:17 10.9 C 26 %
999 26-04-2020 22:23:18 10.7 C 26 %
1000 26-04-2020 22:33:17 10.5 C 26 %
Sensor: Nr:Datum:Temp:Feuchte:
Aussen-T/F 1001 26-04-2020 22:43:17 9.9 C 28 %
1002 26-04-2020 22:53:17 9.6 C 29 %
1003 26-04-2020 23:03:17 9.2 C 29 %
1004 26-04-2020 23:13:17 9 C 30 %
1005 26-04-2020 23:23:17 8.9 C 30 %
1006 26-04-2020 23:33:18 8.8 C 30 %
1007 26-04-2020 23:43:18 8.7 C 30 %
1008 26-04-2020 23:53:17 8.5 C 30 %
1009 27-04-2020 00:03:18 8.3 C 30 %
1010 27-04-2020 00:13:18 8 C 31 %
1011 27-04-2020 00:23:18 7.9 C 32 %
1012 27-04-2020 00:33:17 7.6 C 32 %
1013 27-04-2020 00:43:17 7.4 C 33 %
1014 27-04-2020 00:53:17 7.2 C 33 %
1015 27-04-2020 01:03:18 7.1 C 33 %
1016 27-04-2020 01:13:18 6.8 C 35 %
1017 27-04-2020 01:23:18 6.9 C 35 %
1018 27-04-2020 01:33:17 6.9 C 35 %
1019 27-04-2020 01:43:17 6.8 C 35 %
1020 27-04-2020 01:53:17 6.4 C 35 %
1021 27-04-2020 02:03:17 6.2 C 36 %
1022 27-04-2020 02:13:17 6 C 36 %
1023 27-04-2020 02:23:17 5.9 C 37 %
1024 27-04-2020 02:33:17 5.7 C 37 %
1025 27-04-2020 02:43:17 6 C 37 %
Sensor: Nr:Datum:Temp:Feuchte:
Aussen-T/F 1026 27-04-2020 02:53:17 6 C 37 %
1027 27-04-2020 03:03:18 5.7 C 38 %
1028 27-04-2020 03:13:18 5.6 C 38 %
1029 27-04-2020 03:23:18 5.6 C 38 %
1030 27-04-2020 03:33:17 5.6 C 38 %
1031 27-04-2020 03:43:17 5.6 C 39 %
1032 27-04-2020 03:53:17 5.7 C 39 %
1033 27-04-2020 04:03:18 5 C 38 %
1034 27-04-2020 04:13:18 4.8 C 40 %
1035 27-04-2020 04:23:17 4.4 C 40 %
1036 27-04-2020 04:33:18 4.3 C 41 %
1037 27-04-2020 04:43:18 4 C 41 %
1038 27-04-2020 04:53:17 4.1 C 42 %
1039 27-04-2020 05:03:17 4 C 42 %
1040 27-04-2020 05:13:17 4.2 C 42 %
1041 27-04-2020 05:23:17 3.7 C 43 %
1042 27-04-2020 05:33:17 3.7 C 43 %
1043 27-04-2020 05:43:17 3.4 C 43 %
1044 27-04-2020 05:53:17 3.7 C 44 %
1045 27-04-2020 06:03:18 3.5 C 44 %
1046 27-04-2020 06:13:18 3.4 C 44 %
1047 27-04-2020 06:23:17 3.6 C 45 %
1048 27-04-2020 06:33:17 3.8 C 45 %
1049 27-04-2020 06:43:17 3.8 C 44 %
1050 27-04-2020 06:53:17 3.8 C 44 %
Sensor: Nr:Datum:Temp:Feuchte:
Aussen-T/F 1051 27-04-2020 07:03:17 3.8 C 44 %
1052 27-04-2020 07:13:17 3.9 C 45 %
1053 27-04-2020 07:23:17 3.9 C 45 %
1054 27-04-2020 07:33:17 4.2 C 44 %
1055 27-04-2020 07:43:17 4.5 C 43 %
1056 27-04-2020 07:53:17 4.6 C 43 %
1057 27-04-2020 08:03:17 4.9 C 42 %
1058 27-04-2020 08:13:17 4.8 C 42 %
1059 27-04-2020 08:23:17 5.1 C 42 %
1060 27-04-2020 08:33:17 5.5 C 41 %
1061 27-04-2020 08:43:17 5.7 C 41 %
1062 27-04-2020 08:53:17 6 C 41 %
1063 27-04-2020 09:03:18 6.4 C 40 %
1064 27-04-2020 09:13:18 6.6 C 40 %
1065 27-04-2020 09:23:17 7 C 40 %
1066 27-04-2020 09:33:17 7.6 C 39 %
1067 27-04-2020 09:43:17 8.3 C 37 %
1068 27-04-2020 09:53:17 8.5 C 38 %
1069 27-04-2020 10:03:17 9.1 C 37 %
1070 27-04-2020 10:13:17 9.9 C 37 %
1071 27-04-2020 10:23:17 10.7 C 35 %
1072 27-04-2020 10:33:17 11.7 C 34 %
1073 27-04-2020 10:43:17 12.3 C 32 %
1074 27-04-2020 10:53:17 13.5 C 30 %
1075 27-04-2020 11:03:17 15.5 C 25 %
Sensor: Nr:Datum:Temp:Feuchte:
Aussen-T/F 1076 27-04-2020 11:13:17 16.6 C 22 %
1077 27-04-2020 11:23:17 16.8 C 20 %
1078 27-04-2020 11:33:17 17.2 C 20 %
1079 27-04-2020 11:43:17 17.5 C 20 %
1080 27-04-2020 11:53:17 17.7 C 20 %
1081 27-04-2020 12:03:17 18.1 C 20 %
1082 27-04-2020 12:13:17 18.4 C 20 %
1083 27-04-2020 12:23:17 18.3 C 20 %
1084 27-04-2020 12:33:17 18.7 C 20 %
1085 27-04-2020 12:43:17 19 C 20 %
1086 27-04-2020 12:53:18 19.1 C 20 %
1087 27-04-2020 13:03:17 19.7 C 20 %
1088 27-04-2020 13:13:17 19.5 C 20 %
1089 27-04-2020 13:23:17 19.6 C 20 %
1090 27-04-2020 13:33:17 20.1 C 20 %
1091 27-04-2020 13:43:17 20.2 C 20 %
1092 27-04-2020 13:53:17 20.4 C 20 %
1093 27-04-2020 14:03:18 21 C 20 %
1094 27-04-2020 14:13:18 21.4 C 20 %
1095 27-04-2020 14:23:17 25.1 C 20 %
1096 27-04-2020 14:33:18 25.5 C 20 %
1097 27-04-2020 14:43:18 28.2 C 20 %
1098 27-04-2020 14:53:17 28.9 C 20 %
1099 27-04-2020 15:03:17 30.1 C 20 %
1100 27-04-2020 15:13:17 27.6 C 20 %
Sensor: Nr:Datum:Temp:Feuchte:
Aussen-T/F 1101 27-04-2020 15:23:17 26.7 C 20 %
1102 27-04-2020 15:33:17 27.5 C 20 %
1103 27-04-2020 15:43:17 27.6 C 20 %
1104 27-04-2020 15:53:17 27.9 C 20 %
1105 27-04-2020 16:03:17 26.8 C 20 %
1106 27-04-2020 16:13:17 23.7 C 20 %
1107 27-04-2020 16:23:17 23.4 C 20 %
1108 27-04-2020 16:33:17 24.1 C 20 %
1109 27-04-2020 16:43:17 23.7 C 20 %
1110 27-04-2020 16:53:17 22.7 C 20 %
1111 27-04-2020 17:03:18 22.1 C 20 %
1112 27-04-2020 17:13:18 22.1 C 20 %
1113 27-04-2020 17:23:17 21.6 C 20 %
1114 27-04-2020 17:33:17 21.7 C 20 %
1115 27-04-2020 17:43:17 21.6 C 20 %
1116 27-04-2020 17:53:17 22.2 C 20 %
1117 27-04-2020 18:03:17 21.5 C 20 %
1118 27-04-2020 18:13:17 21.8 C 20 %
1119 27-04-2020 18:23:17 24 C 20 %
1120 27-04-2020 18:33:18 23.1 C 20 %
1121 27-04-2020 18:43:18 22.4 C 20 %
1122 27-04-2020 18:53:17 22.1 C 20 %
1123 27-04-2020 19:03:17 20.9 C 20 %
1124 27-04-2020 19:13:17 19.4 C 20 %
1125 27-04-2020 19:23:18 19.2 C 20 %
Sensor: Nr:Datum:Temp:Feuchte:
Aussen-T/F 1126 27-04-2020 19:33:17 18.3 C 20 %
1127 27-04-2020 19:43:18 18.2 C 20 %
1128 27-04-2020 19:53:17 17.4 C 20 %
1129 27-04-2020 20:03:17 17.1 C 20 %
1130 27-04-2020 20:13:17 16.8 C 20 %
1131 27-04-2020 20:23:17 16.2 C 20 %
1132 27-04-2020 20:33:17 15.4 C 21 %
1133 27-04-2020 20:43:17 15.1 C 21 %
1134 27-04-2020 20:53:18 15.2 C 21 %
1135 27-04-2020 21:03:17 15 C 21 %
1136 27-04-2020 21:13:17 15 C 22 %
1137 27-04-2020 21:23:17 14.6 C 25 %
1138 27-04-2020 21:33:18 14.2 C 25 %
1139 27-04-2020 21:43:18 13.6 C 26 %
1140 27-04-2020 21:53:17 13.2 C 27 %
1141 27-04-2020 22:03:18 13.3 C 27 %
1142 27-04-2020 22:13:18 13.3 C 27 %
1143 27-04-2020 22:23:17 13 C 28 %
1144 27-04-2020 22:33:17 12.3 C 30 %
1145 27-04-2020 22:43:17 12.1 C 30 %
1146 27-04-2020 22:53:18 12 C 30 %
1147 27-04-2020 23:03:17 12 C 30 %
1148 27-04-2020 23:13:17 12 C 30 %
1149 27-04-2020 23:23:17 11.8 C 31 %
1150 27-04-2020 23:33:17 11.4 C 32 %
Sensor: Nr:Datum:Temp:Feuchte:
Aussen-T/F 1151 27-04-2020 23:43:17 11 C 32 %
1152 27-04-2020 23:53:18 10.6 C 34 %
1153 28-04-2020 00:03:17 10.5 C 35 %
1154 28-04-2020 00:13:17 10 C 35 %
1155 28-04-2020 00:23:17 10 C 35 %
1156 28-04-2020 00:33:18 9.8 C 36 %
1157 28-04-2020 00:43:18 9.8 C 36 %
1158 28-04-2020 00:53:17 9.7 C 36 %
1159 28-04-2020 01:03:18 9.5 C 36 %
1160 28-04-2020 01:13:18 9.3 C 37 %
1161 28-04-2020 01:23:17 9.1 C 37 %
1162 28-04-2020 01:33:17 9.1 C 37 %
1163 28-04-2020 01:43:18 9.2 C 37 %
1164 28-04-2020 01:53:17 8.8 C 38 %
1165 28-04-2020 02:03:18 8.7 C 39 %
1166 28-04-2020 02:13:18 8.8 C 39 %
1167 28-04-2020 02:23:17 8.4 C 39 %
1168 28-04-2020 02:33:18 8.2 C 39 %
1169 28-04-2020 02:43:18 8.3 C 40 %
1170 28-04-2020 02:53:18 8.6 C 40 %
1171 28-04-2020 03:03:17 8.7 C 40 %
1172 28-04-2020 03:13:17 8.4 C 40 %
1173 28-04-2020 03:23:17 8.3 C 40 %
1174 28-04-2020 03:33:18 8.3 C 40 %
1175 28-04-2020 03:43:18 7.8 C 40 %
Sensor: Nr:Datum:Temp:Feuchte:
Aussen-T/F 1176 28-04-2020 03:53:18 7.7 C 41 %
1177 28-04-2020 04:03:18 7.9 C 41 %
1178 28-04-2020 04:13:18 7.4 C 41 %
1179 28-04-2020 04:23:18 7.3 C 41 %
1180 28-04-2020 04:33:18 7.3 C 42 %
1181 28-04-2020 04:43:18 7.6 C 43 %
1182 28-04-2020 04:53:17 7.7 C 42 %
1183 28-04-2020 05:03:17 7.8 C 41 %
1184 28-04-2020 05:13:17 7.8 C 42 %
1185 28-04-2020 05:23:17 7.8 C 41 %
1186 28-04-2020 05:33:18 7.9 C 41 %
1187 28-04-2020 05:43:18 7.7 C 41 %
1188 28-04-2020 05:53:17 7.5 C 41 %
1189 28-04-2020 06:03:17 7.2 C 41 %
1190 28-04-2020 06:13:17 7 C 42 %
1191 28-04-2020 06:23:17 7.3 C 43 %
1192 28-04-2020 06:33:18 7.6 C 43 %
1193 28-04-2020 06:43:18 8 C 42 %
1194 28-04-2020 06:53:17 8.3 C 41 %
1195 28-04-2020 07:03:18 8.7 C 41 %
1196 28-04-2020 07:13:18 9.1 C 40 %
1197 28-04-2020 07:23:18 9.3 C 39 %
1198 28-04-2020 07:33:17 9.5 C 39 %
1199 28-04-2020 07:43:17 9.6 C 39 %
1200 28-04-2020 07:53:17 9.4 C 39 %
Sensor: Nr:Datum:Temp:Feuchte:
Aussen-T/F 1201 28-04-2020 08:03:17 9.2 C 40 %
1202 28-04-2020 08:13:17 9.5 C 41 %
1203 28-04-2020 08:23:17 9.8 C 41 %
1204 28-04-2020 08:33:17 10 C 41 %
1205 28-04-2020 08:43:17 10.1 C 41 %
1206 28-04-2020 08:53:17 10.6 C 40 %
1207 28-04-2020 09:03:17 10.7 C 40 %
1208 28-04-2020 09:13:17 11.2 C 39 %
1209 28-04-2020 09:23:17 11.7 C 39 %
1210 28-04-2020 09:33:18 11.8 C 39 %
1211 28-04-2020 09:43:18 11.8 C 38 %
1212 28-04-2020 09:53:17 12.2 C 38 %
1213 28-04-2020 10:03:17 12.8 C 38 %
1214 28-04-2020 10:13:17 12.9 C 37 %
1215 28-04-2020 10:23:18 13.3 C 36 %
1216 28-04-2020 10:33:17 13.7 C 36 %
1217 28-04-2020 10:43:17 14 C 35 %
1218 28-04-2020 10:53:17 14.1 C 35 %
1219 28-04-2020 11:03:17 13.4 C 37 %
1220 28-04-2020 11:13:17 13.8 C 38 %
1221 28-04-2020 11:23:17 13.5 C 38 %
1222 28-04-2020 11:33:17 14.2 C 38 %
1223 28-04-2020 11:43:17 14.3 C 37 %
1224 28-04-2020 11:53:17 14.6 C 38 %
1225 28-04-2020 12:03:17 14.9 C 37 %
Sensor: Nr:Datum:Temp:Feuchte:
Aussen-T/F 1226 28-04-2020 12:13:17 15 C 37 %
1227 28-04-2020 12:23:17 14.9 C 38 %
1228 28-04-2020 12:33:17 15.2 C 37 %
1229 28-04-2020 12:43:17 15 C 38 %
1230 28-04-2020 12:53:17 14.9 C 39 %
1231 28-04-2020 13:03:18 14.7 C 39 %
1232 28-04-2020 13:13:18 14.5 C 41 %
1233 28-04-2020 13:23:17 14.2 C 41 %
1234 28-04-2020 13:33:17 14.9 C 40 %
1235 28-04-2020 13:43:17 14.9 C 38 %
1236 28-04-2020 13:53:17 15.2 C 36 %
1237 28-04-2020 14:03:17 16.2 C 36 %
1238 28-04-2020 14:13:17 16.9 C 35 %
1239 28-04-2020 14:23:18 20.2 C 30 %
1240 28-04-2020 14:33:18 17.5 C 32 %
1241 28-04-2020 14:43:18 16.5 C 34 %
1242 28-04-2020 14:53:17 17.2 C 33 %
1243 28-04-2020 15:03:17 16.4 C 34 %
1244 28-04-2020 15:13:17 15.6 C 36 %
1245 28-04-2020 15:23:17 15.6 C 36 %
1246 28-04-2020 15:33:17 18.1 C 32 %
1247 28-04-2020 15:43:17 16.5 C 33 %
1248 28-04-2020 15:53:17 17 C 32 %
1249 28-04-2020 16:03:18 17.1 C 32 %
1250 28-04-2020 16:13:18 16.7 C 32 %
Sensor: Nr:Datum:Temp:Feuchte:
Aussen-T/F 1251 28-04-2020 16:23:17 16.9 C 32 %
1252 28-04-2020 16:33:17 18.5 C 30 %
1253 28-04-2020 16:43:17 20.1 C 26 %
1254 28-04-2020 16:53:17 19.4 C 27 %
1255 28-04-2020 17:03:17 17.6 C 30 %
1256 28-04-2020 17:13:17 17.4 C 30 %
1257 28-04-2020 17:23:17 17.2 C 29 %
1258 28-04-2020 17:33:17 17 C 30 %
1259 28-04-2020 17:43:17 16.8 C 30 %
1260 28-04-2020 17:53:17 17.6 C 28 %
1261 28-04-2020 18:03:17 18.2 C 27 %
1262 28-04-2020 18:13:17 17.4 C 29 %
1263 28-04-2020 18:23:17 18 C 28 %
1264 28-04-2020 18:33:18 17.6 C 28 %
1265 28-04-2020 18:43:18 17.7 C 28 %
1266 28-04-2020 18:53:17 16.6 C 30 %
1267 28-04-2020 19:03:17 16.3 C 30 %
1268 28-04-2020 19:13:17 16.3 C 30 %
1269 28-04-2020 19:23:17 16.3 C 30 %
1270 28-04-2020 19:33:18 16.4 C 30 %
1271 28-04-2020 19:43:18 16.5 C 30 %
1272 28-04-2020 19:53:17 16.1 C 30 %
1273 28-04-2020 20:03:18 15 C 32 %
1274 28-04-2020 20:13:18 14.2 C 35 %
1275 28-04-2020 20:23:17 13.6 C 37 %
Sensor: Nr:Datum:Temp:Feuchte:
Aussen-T/F 1276 28-04-2020 20:33:17 13.4 C 37 %
1277 28-04-2020 20:43:18 13.1 C 37 %
1278 28-04-2020 20:53:17 13 C 38 %
1279 28-04-2020 21:03:17 12.5 C 39 %
1280 28-04-2020 21:13:17 13.5 C 36 %
1281 28-04-2020 21:23:17 13.9 C 35 %
1282 28-04-2020 21:33:17 14.6 C 34 %
1283 28-04-2020 21:43:17 14.4 C 34 %
1284 28-04-2020 21:53:17 14.2 C 34 %
1285 28-04-2020 22:03:17 13.4 C 35 %
1286 28-04-2020 22:13:17 12.8 C 37 %
1287 28-04-2020 22:23:17 12.8 C 37 %
1288 28-04-2020 22:33:17 13 C 36 %
1289 28-04-2020 22:43:17 13.1 C 36 %
1290 28-04-2020 22:53:18 12.9 C 37 %
1291 28-04-2020 23:03:17 12.7 C 38 %
1292 28-04-2020 23:13:18 12.7 C 38 %
1293 28-04-2020 23:23:18 12.7 C 38 %
1294 28-04-2020 23:33:18 12.7 C 38 %
1295 28-04-2020 23:43:18 12.5 C 39 %
1296 28-04-2020 23:53:18 12.2 C 39 %
1297 29-04-2020 00:03:17 12.2 C 39 %
1298 29-04-2020 00:13:17 12.2 C 39 %
1299 29-04-2020 00:23:17 12.1 C 39 %
1300 29-04-2020 00:33:18 11.8 C 40 %
Sensor: Nr:Datum:Temp:Feuchte:
Aussen-T/F 1301 29-04-2020 00:43:18 11.5 C 40 %
1302 29-04-2020 00:53:18 11.5 C 40 %
1303 29-04-2020 01:03:18 11.5 C 40 %
1304 29-04-2020 01:13:18 11.6 C 40 %
1305 29-04-2020 01:23:17 11.7 C 40 %
1306 29-04-2020 01:33:17 11.6 C 42 %
1307 29-04-2020 01:43:17 11.4 C 43 %
1308 29-04-2020 01:53:17 11.4 C 44 %
1309 29-04-2020 02:03:17 11.4 C 44 %
1310 29-04-2020 02:13:17 11.4 C 41 %
1311 29-04-2020 02:23:17 12.3 C 37 %
1312 29-04-2020 02:33:18 12.6 C 37 %
1313 29-04-2020 02:43:18 12.5 C 36 %
1314 29-04-2020 02:53:17 12.1 C 36 %
1315 29-04-2020 03:03:17 12 C 36 %
1316 29-04-2020 03:13:17 11.4 C 39 %
1317 29-04-2020 03:23:17 11.5 C 39 %
1318 29-04-2020 03:33:17 11.7 C 39 %
1319 29-04-2020 03:43:17 12 C 37 %
1320 29-04-2020 03:53:17 12.1 C 37 %
1321 29-04-2020 04:03:17 11.9 C 39 %
1322 29-04-2020 04:13:17 11.9 C 39 %
1323 29-04-2020 04:23:17 11.7 C 39 %
1324 29-04-2020 04:33:17 11.9 C 38 %
1325 29-04-2020 04:43:18 11.6 C 39 %
Sensor: Nr:Datum:Temp:Feuchte:
Aussen-T/F 1326 29-04-2020 04:53:17 11.4 C 39 %
1327 29-04-2020 05:03:18 11.7 C 39 %
1328 29-04-2020 05:13:18 11.5 C 39 %
1329 29-04-2020 05:23:18 11.7 C 39 %
1330 29-04-2020 05:33:17 11.5 C 39 %
1331 29-04-2020 05:43:17 11.4 C 39 %
1332 29-04-2020 05:53:17 11.3 C 40 %
1333 29-04-2020 06:03:18 11.3 C 40 %
1334 29-04-2020 06:13:18 11.5 C 39 %
1335 29-04-2020 06:23:17 11.6 C 38 %
1336 29-04-2020 06:33:17 11.2 C 39 %
1337 29-04-2020 06:43:17 11 C 40 %
1338 29-04-2020 06:53:17 11.2 C 40 %
1339 29-04-2020 07:03:17 11.5 C 39 %
1340 29-04-2020 07:13:17 11.9 C 39 %
1341 29-04-2020 07:23:17 12.1 C 37 %
1342 29-04-2020 07:33:17 12.3 C 37 %
1343 29-04-2020 07:43:17 12.4 C 36 %
1344 29-04-2020 07:53:17 12.7 C 36 %
1345 29-04-2020 08:03:17 12.9 C 36 %
1346 29-04-2020 08:13:17 12.9 C 36 %
1347 29-04-2020 08:23:17 12.7 C 36 %
1348 29-04-2020 08:33:17 12.6 C 36 %
1349 29-04-2020 08:43:17 12.5 C 36 %
1350 29-04-2020 08:53:17 13 C 35 %
Sensor: Nr:Datum:Temp:Feuchte:
Aussen-T/F 1351 29-04-2020 09:03:17 13.1 C 35 %
1352 29-04-2020 09:13:17 13.2 C 35 %
1353 29-04-2020 09:23:17 13.5 C 34 %
1354 29-04-2020 09:33:17 13.6 C 33 %
1355 29-04-2020 09:43:17 13.9 C 32 %
1356 29-04-2020 09:53:17 14.1 C 32 %
1357 29-04-2020 10:03:17 14.5 C 31 %
1358 29-04-2020 10:13:17 14.8 C 30 %
1359 29-04-2020 10:23:17 15.1 C 29 %
1360 29-04-2020 10:33:17 14.8 C 30 %
1361 29-04-2020 10:43:17 15 C 29 %
1362 29-04-2020 10:53:17 15.5 C 28 %
1363 29-04-2020 11:03:17 16 C 28 %
1364 29-04-2020 11:13:17 16 C 28 %
1365 29-04-2020 11:23:17 16.3 C 27 %
1366 29-04-2020 11:33:18 16.8 C 27 %
1367 29-04-2020 11:43:18 16.9 C 25 %
1368 29-04-2020 11:53:17 17.1 C 25 %
1369 29-04-2020 12:03:18 17.5 C 25 %
1370 29-04-2020 12:13:18 16.4 C 25 %
1371 29-04-2020 12:23:17 15.5 C 26 %
1372 29-04-2020 12:33:17 15.9 C 26 %
1373 29-04-2020 12:43:17 16.3 C 25 %
1374 29-04-2020 12:53:17 16.2 C 25 %
1375 29-04-2020 13:03:17 17.5 C 25 %
Sensor: Nr:Datum:Temp:Feuchte:
Aussen-T/F 1376 29-04-2020 13:13:17 16.4 C 25 %
1377 29-04-2020 13:23:18 16.1 C 25 %
1378 29-04-2020 13:33:18 17.5 C 25 %
1379 29-04-2020 13:43:18 17.3 C 25 %
1380 29-04-2020 13:53:18 16.6 C 25 %
1381 29-04-2020 14:03:18 16.7 C 26 %
1382 29-04-2020 14:13:18 15.7 C 26 %
1383 29-04-2020 14:23:18 15.9 C 26 %
1384 29-04-2020 14:33:17 16.1 C 26 %
1385 29-04-2020 14:43:17 19.2 C 22 %
1386 29-04-2020 14:53:17 21.1 C 20 %
1387 29-04-2020 15:03:17 20.9 C 20 %
1388 29-04-2020 15:13:17 22.7 C 20 %
1389 29-04-2020 15:23:17 22.3 C 20 %
1390 29-04-2020 15:33:17 19.6 C 20 %
1391 29-04-2020 15:43:17 18.7 C 20 %
1392 29-04-2020 15:53:17 19.2 C 20 %
1393 29-04-2020 16:03:17 17.4 C 22 %
1394 29-04-2020 16:13:17 17.9 C 22 %
1395 29-04-2020 16:23:17 18.4 C 20 %
1396 29-04-2020 16:33:17 17.7 C 21 %
1397 29-04-2020 16:43:17 20.2 C 20 %
1398 29-04-2020 16:53:17 18.2 C 20 %
1399 29-04-2020 17:03:17 17.4 C 22 %
1400 29-04-2020 17:13:17 16 C 25 %
Sensor: Nr:Datum:Temp:Feuchte:
Aussen-T/F 1401 29-04-2020 17:23:17 19.4 C 23 %
1402 29-04-2020 17:33:17 21.1 C 20 %
1403 29-04-2020 17:43:17 21.2 C 20 %
1404 29-04-2020 17:53:17 20.2 C 20 %
1405 29-04-2020 18:03:17 21 C 20 %
1406 29-04-2020 18:13:18 17.5 C 21 %
1407 29-04-2020 18:23:17 17.4 C 21 %
1408 29-04-2020 18:33:17 17.7 C 22 %
1409 29-04-2020 18:43:17 17.9 C 22 %
1410 29-04-2020 18:53:17 17.2 C 23 %
1411 29-04-2020 19:03:18 17 C 25 %
1412 29-04-2020 19:13:18 17.5 C 24 %
1413 29-04-2020 19:23:17 17.5 C 23 %
1414 29-04-2020 19:33:17 17.1 C 23 %
1415 29-04-2020 19:43:18 16.7 C 24 %
1416 29-04-2020 19:53:17 16.1 C 25 %
1417 29-04-2020 20:03:18 15.4 C 26 %
1418 29-04-2020 20:13:18 15 C 26 %
1419 29-04-2020 20:23:18 14.7 C 29 %
1420 29-04-2020 20:33:17 14.5 C 29 %
1421 29-04-2020 20:43:17 14.5 C 28 %
1422 29-04-2020 20:53:18 14.4 C 28 %
1423 29-04-2020 21:03:18 13.8 C 30 %
1424 29-04-2020 21:13:18 13.2 C 31 %
1425 29-04-2020 21:23:17 12.9 C 33 %
Sensor: Nr:Datum:Temp:Feuchte:
Aussen-T/F 1426 29-04-2020 21:33:17 13 C 32 %
1427 29-04-2020 21:43:17 13.5 C 32 %
1428 29-04-2020 21:53:17 13.2 C 32 %
1429 29-04-2020 22:03:18 13 C 32 %
1430 29-04-2020 22:13:18 13.2 C 33 %
1431 29-04-2020 22:23:17 13.5 C 32 %
1432 29-04-2020 22:33:17 13.3 C 32 %
1433 29-04-2020 22:43:17 13.1 C 32 %
1434 29-04-2020 22:53:18 13.3 C 33 %
1435 29-04-2020 23:03:18 12.8 C 35 %
1436 29-04-2020 23:13:18 12.8 C 35 %
1437 29-04-2020 23:23:17 13 C 34 %
1438 29-04-2020 23:33:17 13.2 C 33 %
1439 29-04-2020 23:43:17 13.2 C 34 %
1440 29-04-2020 23:53:18 12.9 C 35 %
1441 30-04-2020 00:03:17 13 C 34 %
1442 30-04-2020 00:13:17 13.2 C 34 %
1443 30-04-2020 00:23:17 13.3 C 33 %
1444 30-04-2020 00:33:17 13.2 C 33 %
1445 30-04-2020 00:43:17 13.3 C 33 %
1446 30-04-2020 00:53:17 13.1 C 33 %
1447 30-04-2020 01:03:17 13.1 C 33 %
1448 30-04-2020 01:13:17 13.2 C 33 %
1449 30-04-2020 01:23:17 13.2 C 33 %
1450 30-04-2020 01:33:17 13.4 C 33 %
Sensor: Nr:Datum:Temp:Feuchte:
Aussen-T/F 1451 30-04-2020 01:43:17 13.4 C 32 %
1452 30-04-2020 01:53:17 13 C 34 %
1453 30-04-2020 02:03:17 12 C 37 %
1454 30-04-2020 02:13:17 11.8 C 39 %
1455 30-04-2020 02:23:17 11.5 C 39 %
1456 30-04-2020 02:33:17 11.8 C 38 %
1457 30-04-2020 02:43:17 11.7 C 38 %
1458 30-04-2020 02:53:17 11.8 C 37 %
1459 30-04-2020 03:03:17 11.7 C 37 %
1460 30-04-2020 03:13:17 11.2 C 38 %
1461 30-04-2020 03:23:17 10.9 C 40 %
1462 30-04-2020 03:33:17 10.9 C 40 %
1463 30-04-2020 03:43:18 11 C 40 %
1464 30-04-2020 03:53:17 11 C 40 %
1465 30-04-2020 04:03:17 10.8 C 41 %
1466 30-04-2020 04:13:17 10.7 C 41 %
1467 30-04-2020 04:23:17 10.6 C 43 %
1468 30-04-2020 04:33:18 10.7 C 44 %
1469 30-04-2020 04:43:18 10.6 C 44 %
1470 30-04-2020 04:53:17 10.7 C 45 %
1471 30-04-2020 05:03:17 10.7 C 45 %
1472 30-04-2020 05:13:17 10.8 C 45 %
1473 30-04-2020 05:23:17 10.8 C 45 %
1474 30-04-2020 05:33:17 10.8 C 45 %
1475 30-04-2020 05:43:17 10.7 C 45 %
Sensor: Nr:Datum:Temp:Feuchte:
Aussen-T/F 1476 30-04-2020 05:53:18 10.8 C 45 %
1477 30-04-2020 06:03:17 10.7 C 45 %
1478 30-04-2020 06:13:18 10.7 C 45 %
1479 30-04-2020 06:23:17 10.7 C 45 %
1480 30-04-2020 06:33:17 10.8 C 45 %
1481 30-04-2020 06:43:17 10.7 C 45 %
1482 30-04-2020 06:53:17 10.8 C 45 %
1483 30-04-2020 07:03:17 10.6 C 44 %
1484 30-04-2020 07:13:17 10.3 C 42 %
1485 30-04-2020 07:23:17 10.2 C 42 %
1486 30-04-2020 07:33:17 10.2 C 42 %
1487 30-04-2020 07:43:17 10.1 C 42 %
1488 30-04-2020 07:53:17 10 C 43 %
1489 30-04-2020 08:03:17 9.9 C 42 %
1490 30-04-2020 08:13:17 9.8 C 43 %
1491 30-04-2020 08:23:17 10 C 43 %
1492 30-04-2020 08:33:17 11 C 39 %
1493 30-04-2020 08:43:17 10.7 C 40 %
1494 30-04-2020 08:53:17 10.9 C 40 %
1495 30-04-2020 09:03:17 11.2 C 39 %
1496 30-04-2020 09:13:17 11.8 C 37 %
1497 30-04-2020 09:23:18 12.1 C 36 %
1498 30-04-2020 09:33:17 12.5 C 36 %
1499 30-04-2020 09:43:17 12.5 C 36 %
1500 30-04-2020 09:53:17 12.7 C 36 %
Sensor: Nr:Datum:Temp:Feuchte:
Aussen-T/F 1501 30-04-2020 10:03:17 13.2 C 35 %
1502 30-04-2020 10:13:17 13.9 C 35 %
1503 30-04-2020 10:23:17 14 C 33 %
1504 30-04-2020 10:33:17 13.7 C 32 %
1505 30-04-2020 10:43:17 14.4 C 31 %
1506 30-04-2020 10:53:18 14 C 31 %
1507 30-04-2020 11:03:18 14 C 30 %
1508 30-04-2020 11:13:18 14 C 30 %
1509 30-04-2020 11:23:17 14 C 31 %
1510 30-04-2020 11:33:17 14.5 C 31 %
1511 30-04-2020 11:43:17 14.2 C 30 %
1512 30-04-2020 11:53:17 14.3 C 30 %
1513 30-04-2020 12:03:18 14.5 C 30 %
1514 30-04-2020 12:13:18 14.2 C 29 %
1515 30-04-2020 12:23:17 14.6 C 29 %
1516 30-04-2020 12:33:17 14.4 C 29 %
1517 30-04-2020 12:43:17 14.5 C 29 %
1518 30-04-2020 12:53:18 15 C 27 %
1519 30-04-2020 13:03:17 14.7 C 27 %
1520 30-04-2020 13:13:17 14.6 C 27 %
1521 30-04-2020 13:23:17 14.6 C 27 %
1522 30-04-2020 13:33:17 14.5 C 27 %
1523 30-04-2020 13:43:17 15.2 C 26 %
1524 30-04-2020 13:53:17 15.9 C 25 %
1525 30-04-2020 14:03:18 16.8 C 23 %
Sensor: Nr:Datum:Temp:Feuchte:
Aussen-T/F 1526 30-04-2020 14:13:18 16.2 C 21 %
1527 30-04-2020 14:23:17 16.6 C 21 %
1528 30-04-2020 14:33:18 19.7 C 20 %
1529 30-04-2020 14:43:18 18.3 C 20 %
1530 30-04-2020 14:53:17 18.1 C 20 %
1531 30-04-2020 15:03:18 19.2 C 20 %
1532 30-04-2020 15:13:18 19.5 C 20 %
1533 30-04-2020 15:23:17 17.4 C 20 %
1534 30-04-2020 15:33:17 16.5 C 20 %
1535 30-04-2020 15:43:17 15.8 C 20 %
1536 30-04-2020 15:53:18 15.9 C 21 %
1537 30-04-2020 16:03:17 16.2 C 20 %
1538 30-04-2020 16:13:17 16.3 C 20 %
1539 30-04-2020 16:23:17 16.7 C 21 %
1540 30-04-2020 16:33:17 16.4 C 20 %
1541 30-04-2020 16:43:18 16.3 C 21 %
1542 30-04-2020 16:53:17 15.9 C 21 %
1543 30-04-2020 17:03:17 14.8 C 25 %
1544 30-04-2020 17:13:17 12.5 C 33 %
1545 30-04-2020 17:23:18 11.8 C 37 %
1546 30-04-2020 17:33:17 11.5 C 37 %
1547 30-04-2020 17:43:17 10.7 C 40 %
1548 30-04-2020 17:53:17 10.8 C 42 %
1549 30-04-2020 18:03:17 10.6 C 41 %
1550 30-04-2020 18:13:18 10.3 C 42 %
Sensor: Nr:Datum:Temp:Feuchte:
Aussen-T/F 1551 30-04-2020 18:23:17 10.2 C 42 %
1552 30-04-2020 18:33:17 10.2 C 43 %
1553 30-04-2020 18:43:17 10 C 41 %
1554 30-04-2020 18:53:17 9.9 C 41 %
1555 30-04-2020 19:03:18 9.6 C 41 %
1556 30-04-2020 19:13:18 9.5 C 41 %
1557 30-04-2020 19:23:17 10 C 40 %
1558 30-04-2020 19:33:18 10.1 C 41 %
1559 30-04-2020 19:43:18 10 C 41 %
1560 30-04-2020 19:53:17 9.9 C 44 %
1561 30-04-2020 20:03:17 9.7 C 45 %
1562 30-04-2020 20:13:17 9.6 C 45 %
1563 30-04-2020 20:23:17 9.4 C 44 %
1564 30-04-2020 20:33:18 9 C 44 %
1565 30-04-2020 20:43:18 8.6 C 45 %
1566 30-04-2020 20:53:17 8.6 C 46 %
1567 30-04-2020 21:03:17 8.7 C 46 %
1568 30-04-2020 21:13:17 8.8 C 45 %
1569 30-04-2020 21:23:17 8.9 C 45 %
1570 30-04-2020 21:33:17 9 C 45 %
1571 30-04-2020 21:43:18 9 C 45 %
1572 30-04-2020 21:53:17 9 C 45 %
1573 30-04-2020 22:03:18 8.6 C 45 %
1574 30-04-2020 22:13:18 8.4 C 45 %
1575 30-04-2020 22:23:18 8.7 C 45 %
Sensor: Nr:Datum:Temp:Feuchte:
Aussen-T/F 1576 30-04-2020 22:33:17 8.7 C 45 %
1577 30-04-2020 22:43:17 8.6 C 45 %
1578 30-04-2020 22:53:18 8.5 C 45 %
1579 30-04-2020 23:03:17 8.4 C 45 %
1580 30-04-2020 23:13:17 8.3 C 45 %
1581 30-04-2020 23:23:17 8.3 C 45 %
1582 30-04-2020 23:33:17 8.6 C 45 %
1583 30-04-2020 23:43:17 9 C 44 %
1584 30-04-2020 23:53:17 9.2 C 43 %
1585 01-05-2020 00:03:17 8.9 C 43 %
1586 01-05-2020 00:13:17 8.6 C 44 %
1587 01-05-2020 00:23:17 8.2 C 44 %
1588 01-05-2020 00:33:18 8.4 C 44 %
1589 01-05-2020 00:43:18 8.2 C 44 %
1590 01-05-2020 00:53:17 7.8 C 45 %
1591 01-05-2020 01:03:17 8.1 C 45 %
1592 01-05-2020 01:13:18 8.2 C 44 %
1593 01-05-2020 01:23:18 8.1 C 43 %
1594 01-05-2020 01:33:18 8.1 C 43 %
1595 01-05-2020 01:43:18 8.5 C 42 %
1596 01-05-2020 01:53:17 8.5 C 41 %
1597 01-05-2020 02:03:17 8.1 C 42 %
1598 01-05-2020 02:13:18 8 C 42 %
1599 01-05-2020 02:23:17 7.7 C 43 %
1600 01-05-2020 02:33:17 7.6 C 43 %
Sensor: Nr:Datum:Temp:Feuchte:
Aussen-T/F 1601 01-05-2020 02:43:17 7.8 C 43 %
1602 01-05-2020 02:53:17 7.7 C 44 %
1603 01-05-2020 03:03:17 7.4 C 44 %
1604 01-05-2020 03:13:18 7.4 C 46 %
1605 01-05-2020 03:23:17 7.9 C 44 %
1606 01-05-2020 03:33:17 8.2 C 41 %
1607 01-05-2020 03:43:17 8 C 42 %
1608 01-05-2020 03:53:18 7.4 C 44 %
1609 01-05-2020 04:03:17 7.3 C 45 %
1610 01-05-2020 04:13:17 7 C 45 %
1611 01-05-2020 04:23:17 7.1 C 46 %
1612 01-05-2020 04:33:17 7.3 C 46 %
1613 01-05-2020 04:43:17 7.4 C 46 %
1614 01-05-2020 04:53:17 7.6 C 46 %
1615 01-05-2020 05:03:18 7.8 C 46 %
1616 01-05-2020 05:13:18 7.9 C 46 %
1617 01-05-2020 05:23:17 8 C 45 %
1618 01-05-2020 05:33:18 8 C 45 %
1619 01-05-2020 05:43:18 8.6 C 41 %
1620 01-05-2020 05:53:17 8.4 C 40 %
1621 01-05-2020 06:03:17 8.1 C 41 %
1622 01-05-2020 06:13:17 7.8 C 43 %
1623 01-05-2020 06:23:17 7.6 C 44 %
1624 01-05-2020 06:33:17 7.6 C 45 %
1625 01-05-2020 06:43:17 7.4 C 45 %
Sensor: Nr:Datum:Temp:Feuchte:
Aussen-T/F 1626 01-05-2020 06:53:17 7 C 45 %
1627 01-05-2020 07:03:17 6.8 C 46 %
1628 01-05-2020 07:13:17 6.9 C 46 %
1629 01-05-2020 07:23:17 7.8 C 46 %
1630 01-05-2020 07:33:18 7.9 C 46 %
1631 01-05-2020 07:43:18 8.3 C 45 %
1632 01-05-2020 07:53:17 8.1 C 41 %
1633 01-05-2020 08:03:18 8.1 C 41 %
1634 01-05-2020 08:13:18 8.4 C 41 %
1635 01-05-2020 08:23:18 8.3 C 42 %
1636 01-05-2020 08:33:18 8.3 C 44 %
1637 01-05-2020 08:43:18 9 C 44 %
1638 01-05-2020 08:53:17 9.2 C 42 %
1639 01-05-2020 09:03:17 9.6 C 42 %
1640 01-05-2020 09:13:17 9.7 C 42 %
1641 01-05-2020 09:23:17 10.1 C 40 %
1642 01-05-2020 09:33:17 10.4 C 38 %
1643 01-05-2020 09:43:18 10.6 C 39 %
1644 01-05-2020 09:53:18 10.5 C 38 %
1645 01-05-2020 10:03:18 10.5 C 38 %
1646 01-05-2020 10:13:18 10.6 C 37 %
1647 01-05-2020 10:23:17 10.5 C 37 %
1648 01-05-2020 10:33:17 11 C 37 %
1649 01-05-2020 10:43:17 11.5 C 36 %
1650 01-05-2020 10:53:17 12.6 C 34 %
Sensor: Nr:Datum:Temp:Feuchte:
Aussen-T/F 1651 01-05-2020 11:03:17 12.5 C 33 %
1652 01-05-2020 11:13:18 12.8 C 33 %
1653 01-05-2020 11:23:17 12.7 C 32 %
1654 01-05-2020 11:33:18 13.1 C 31 %
1655 01-05-2020 11:43:18 13.1 C 31 %
1656 01-05-2020 11:53:17 12.8 C 32 %
1657 01-05-2020 12:03:17 12.1 C 32 %
1658 01-05-2020 12:13:17 11.9 C 34 %
1659 01-05-2020 12:23:17 12.1 C 33 %
1660 01-05-2020 12:33:17 11.1 C 36 %
1661 01-05-2020 12:43:17 10.7 C 38 %
1662 01-05-2020 12:53:17 10.4 C 39 %
1663 01-05-2020 13:03:18 10.3 C 38 %
1664 01-05-2020 13:13:18 9.7 C 38 %
1665 01-05-2020 13:23:17 10.5 C 38 %
1666 01-05-2020 13:33:17 11.3 C 36 %
1667 01-05-2020 13:43:17 12.4 C 34 %
1668 01-05-2020 13:53:17 12.8 C 34 %
1669 01-05-2020 14:03:17 12.3 C 33 %
1670 01-05-2020 14:13:17 13.5 C 31 %
1671 01-05-2020 14:23:18 14.7 C 28 %
1672 01-05-2020 14:33:18 14.2 C 27 %
1673 01-05-2020 14:43:18 16.8 C 22 %
1674 01-05-2020 14:53:17 19.6 C 20 %
1675 01-05-2020 15:03:17 19.2 C 20 %
Sensor: Nr:Datum:Temp:Feuchte:
Aussen-T/F 1676 01-05-2020 15:13:17 20 C 20 %
1677 01-05-2020 15:23:17 16.6 C 20 %
1678 01-05-2020 15:33:17 14.9 C 25 %
1679 01-05-2020 15:43:17 13.5 C 27 %
1680 01-05-2020 15:53:17 11.7 C 34 %
1681 01-05-2020 16:03:18 13.5 C 30 %
1682 01-05-2020 16:13:18 18.5 C 24 %
1683 01-05-2020 16:23:17 19 C 20 %
1684 01-05-2020 16:33:18 18 C 20 %
1685 01-05-2020 16:43:18 18.4 C 20 %
1686 01-05-2020 16:53:17 17.1 C 22 %
1687 01-05-2020 17:03:18 19.1 C 20 %
1688 01-05-2020 17:13:18 18.3 C 20 %
1689 01-05-2020 17:23:17 15.5 C 25 %
1690 01-05-2020 17:33:17 14 C 28 %
1691 01-05-2020 17:43:17 12.2 C 34 %
1692 01-05-2020 17:53:17 12.3 C 35 %
1693 01-05-2020 18:03:18 12.5 C 35 %
1694 01-05-2020 18:13:18 12.1 C 35 %
1695 01-05-2020 18:23:17 12.2 C 35 %
1696 01-05-2020 18:33:18 12.8 C 35 %
1697 01-05-2020 18:43:18 13.8 C 34 %
1698 01-05-2020 18:53:17 13.2 C 31 %
1699 01-05-2020 19:03:18 12.7 C 34 %
1700 01-05-2020 19:13:18 12.1 C 35 %
Sensor: Nr:Datum:Temp:Feuchte:
Aussen-T/F 1701 01-05-2020 19:23:18 11.7 C 36 %
1702 01-05-2020 19:33:17 11.8 C 35 %
1703 01-05-2020 19:43:17 11.8 C 35 %
1704 01-05-2020 19:53:17 11.4 C 35 %
1705 01-05-2020 20:03:17 11.3 C 35 %
1706 01-05-2020 20:13:17 11.3 C 35 %
1707 01-05-2020 20:23:17 11.5 C 34 %
1708 01-05-2020 20:33:17 11.1 C 34 %
1709 01-05-2020 20:43:17 10.5 C 36 %
1710 01-05-2020 20:53:17 10.3 C 37 %
1711 01-05-2020 21:03:18 10.3 C 37 %
1712 01-05-2020 21:13:18 10.4 C 37 %
1713 01-05-2020 21:23:17 10.2 C 37 %
1714 01-05-2020 21:33:17 9.8 C 38 %
1715 01-05-2020 21:43:17 9.3 C 39 %
1716 01-05-2020 21:53:17 8.8 C 40 %
1717 01-05-2020 22:03:18 9 C 40 %
1718 01-05-2020 22:13:18 9 C 40 %
1719 01-05-2020 22:23:17 9.2 C 39 %
1720 01-05-2020 22:33:17 9.3 C 39 %
1721 01-05-2020 22:43:17 9.3 C 40 %
1722 01-05-2020 22:53:18 9.5 C 39 %
1723 01-05-2020 23:03:17 9.4 C 40 %
1724 01-05-2020 23:13:17 9.3 C 40 %
1725 01-05-2020 23:23:17 9.3 C 40 %
Sensor: Nr:Datum:Temp:Feuchte:
Aussen-T/F 1726 01-05-2020 23:33:17 9.4 C 40 %
1727 01-05-2020 23:43:17 9.5 C 39 %
1728 01-05-2020 23:53:17 9.4 C 40 %
1729 02-05-2020 00:03:17 9.3 C 40 %
1730 02-05-2020 00:13:17 9.2 C 40 %
1731 02-05-2020 00:23:17 9 C 40 %
1732 02-05-2020 00:33:18 8.9 C 40 %
1733 02-05-2020 00:43:18 8.9 C 40 %
1734 02-05-2020 00:53:17 8.9 C 40 %
1735 02-05-2020 01:03:18 9.1 C 40 %
1736 02-05-2020 01:13:18 9.3 C 39 %
1737 02-05-2020 01:23:17 9.3 C 39 %
1738 02-05-2020 01:33:17 9.1 C 40 %
1739 02-05-2020 01:43:18 8.8 C 40 %
1740 02-05-2020 01:53:17 8.5 C 40 %
1741 02-05-2020 02:03:18 8.3 C 41 %
1742 02-05-2020 02:13:18 8.3 C 42 %
1743 02-05-2020 02:23:17 8.4 C 42 %
1744 02-05-2020 02:33:18 8.7 C 41 %
1745 02-05-2020 02:43:18 9.1 C 40 %
1746 02-05-2020 02:53:17 9.3 C 39 %
1747 02-05-2020 03:03:18 9.3 C 39 %
1748 02-05-2020 03:13:18 9.1 C 39 %
1749 02-05-2020 03:23:17 9.3 C 39 %
1750 02-05-2020 03:33:17 9.2 C 39 %
Sensor: Nr:Datum:Temp:Feuchte:
Aussen-T/F 1751 02-05-2020 03:43:17 8.9 C 40 %
1752 02-05-2020 03:53:17 8.9 C 40 %
1753 02-05-2020 04:03:18 8.6 C 40 %
1754 02-05-2020 04:13:18 8.4 C 41 %
1755 02-05-2020 04:23:17 8.4 C 41 %
1756 02-05-2020 04:33:18 8.8 C 40 %
1757 02-05-2020 04:43:18 9 C 39 %
1758 02-05-2020 04:53:18 8.8 C 40 %
1759 02-05-2020 05:03:17 8.8 C 39 %
1760 02-05-2020 05:13:17 8.8 C 39 %
1761 02-05-2020 05:23:17 8.7 C 39 %
1762 02-05-2020 05:33:17 8.8 C 39 %
1763 02-05-2020 05:43:17 8.4 C 40 %
1764 02-05-2020 05:53:17 8.2 C 39 %
1765 02-05-2020 06:03:17 8.2 C 39 %
1766 02-05-2020 06:13:17 7.7 C 40 %
1767 02-05-2020 06:23:17 7.9 C 40 %
1768 02-05-2020 06:33:17 7.9 C 40 %
1769 02-05-2020 06:43:17 8 C 39 %
1770 02-05-2020 06:53:17 8.2 C 39 %
1771 02-05-2020 07:03:17 8 C 39 %
1772 02-05-2020 07:13:17 8.3 C 39 %
1773 02-05-2020 07:23:17 8.4 C 38 %
1774 02-05-2020 07:33:17 8.2 C 38 %
1775 02-05-2020 07:43:17 8 C 39 %
Sensor: Nr:Datum:Temp:Feuchte:
Aussen-T/F 1776 02-05-2020 07:53:17 8.4 C 39 %
1777 02-05-2020 08:03:17 8.5 C 39 %
1778 02-05-2020 08:13:17 8.9 C 38 %
1779 02-05-2020 08:23:17 9 C 37 %
1780 02-05-2020 08:33:17 9.8 C 37 %
1781 02-05-2020 08:43:17 9.8 C 37 %
1782 02-05-2020 08:53:17 9.5 C 37 %
1783 02-05-2020 09:03:17 9.6 C 36 %
1784 02-05-2020 09:13:17 9.7 C 36 %
1785 02-05-2020 09:23:17 9.9 C 36 %
1786 02-05-2020 09:33:17 10.8 C 35 %
1787 02-05-2020 09:43:17 10.8 C 35 %
1788 02-05-2020 09:53:17 10.2 C 35 %
1789 02-05-2020 10:03:18 9.7 C 36 %
1790 02-05-2020 10:13:18 8.6 C 40 %
1791 02-05-2020 10:23:17 6.8 C 41 %
1792 02-05-2020 10:33:17 6.7 C 44 %
1793 02-05-2020 10:43:17 6.7 C 43 %
1794 02-05-2020 10:53:17 6.9 C 43 %
1795 02-05-2020 11:03:17 7.4 C 42 %
1796 02-05-2020 11:13:17 8.4 C 40 %
1797 02-05-2020 11:23:17 8.7 C 40 %
1798 02-05-2020 11:33:17 8.8 C 40 %
1799 02-05-2020 11:43:17 9.3 C 39 %
1800 02-05-2020 11:53:17 9.2 C 39 %
Sensor: Nr:Datum:Temp:Feuchte:
Aussen-T/F 1801 02-05-2020 12:03:17 9.6 C 38 %
1802 02-05-2020 12:13:17 10 C 36 %
1803 02-05-2020 12:23:17 10.3 C 36 %
1804 02-05-2020 12:33:18 10.8 C 36 %
1805 02-05-2020 12:43:18 11.8 C 35 %
1806 02-05-2020 12:53:17 10.4 C 37 %
1807 02-05-2020 13:03:17 11.7 C 32 %
1808 02-05-2020 13:13:17 12.1 C 31 %
1809 02-05-2020 13:23:17 11.4 C 32 %
1810 02-05-2020 13:33:17 11.3 C 32 %
1811 02-05-2020 13:43:17 11.5 C 33 %
1812 02-05-2020 13:53:17 12.2 C 32 %
1813 02-05-2020 14:03:17 12.7 C 31 %
1814 02-05-2020 14:13:17 14.3 C 28 %
1815 02-05-2020 14:23:18 15.6 C 25 %
1816 02-05-2020 14:33:17 12.8 C 27 %
1817 02-05-2020 14:43:18 8.8 C 37 %
1818 02-05-2020 14:53:17 8.4 C 40 %
1819 02-05-2020 15:03:17 7.7 C 42 %
1820 02-05-2020 15:13:17 8.1 C 45 %
1821 02-05-2020 15:23:17 8.9 C 41 %
1822 02-05-2020 15:33:18 13.2 C 32 %
1823 02-05-2020 15:43:18 17.2 C 29 %
1824 02-05-2020 15:53:17 16.8 C 25 %
1825 02-05-2020 16:03:17 18.1 C 23 %
Sensor: Nr:Datum:Temp:Feuchte:
Aussen-T/F 1826 02-05-2020 16:13:17 19.2 C 20 %
1827 02-05-2020 16:23:17 19.8 C 20 %
1828 02-05-2020 16:33:17 16.9 C 20 %
1829 02-05-2020 16:43:17 14.2 C 28 %
1830 02-05-2020 16:53:17 13.5 C 29 %
1831 02-05-2020 17:03:17 18.1 C 23 %
1832 02-05-2020 17:13:17 16.2 C 22 %
1833 02-05-2020 17:23:18 14.5 C 25 %
1834 02-05-2020 17:33:18 14 C 28 %
1835 02-05-2020 17:43:18 14.2 C 27 %
1836 02-05-2020 17:53:17 16.8 C 22 %
1837 02-05-2020 18:03:17 14.7 C 20 %
1838 02-05-2020 18:13:17 14.1 C 22 %
1839 02-05-2020 18:23:17 13.3 C 26 %
1840 02-05-2020 18:33:17 13.2 C 27 %
1841 02-05-2020 18:43:17 12.6 C 29 %
1842 02-05-2020 18:53:17 12.3 C 29 %
1843 02-05-2020 19:03:17 11.9 C 31 %
1844 02-05-2020 19:13:17 11.2 C 31 %
1845 02-05-2020 19:23:17 11.7 C 29 %
1846 02-05-2020 19:33:17 11.5 C 29 %
1847 02-05-2020 19:43:18 11.5 C 30 %
1848 02-05-2020 19:53:17 11.9 C 30 %
1849 02-05-2020 20:03:17 12.1 C 30 %
1850 02-05-2020 20:13:17 11.5 C 30 %
Sensor: Nr:Datum:Temp:Feuchte:
Aussen-T/F 1851 02-05-2020 20:23:17 11.3 C 30 %
1852 02-05-2020 20:33:17 10 C 35 %
1853 02-05-2020 20:43:17 9.2 C 38 %
1854 02-05-2020 20:53:17 8.8 C 39 %
1855 02-05-2020 21:03:17 8.5 C 40 %
1856 02-05-2020 21:13:17 8.3 C 40 %
1857 02-05-2020 21:23:17 8.2 C 39 %
1858 02-05-2020 21:33:17 7.9 C 40 %
1859 02-05-2020 21:43:17 7.8 C 41 %
1860 02-05-2020 21:53:18 7.4 C 41 %
1861 02-05-2020 22:03:17 6.9 C 43 %
1862 02-05-2020 22:13:17 6.8 C 44 %
1863 02-05-2020 22:23:17 6.5 C 45 %
1864 02-05-2020 22:33:17 6.3 C 45 %
1865 02-05-2020 22:43:17 6.3 C 45 %
1866 02-05-2020 22:53:18 6.6 C 45 %
1867 02-05-2020 23:03:17 6.6 C 44 %
1868 02-05-2020 23:13:17 6.4 C 44 %
1869 02-05-2020 23:23:17 6.4 C 44 %
1870 02-05-2020 23:33:17 6.4 C 44 %
1871 02-05-2020 23:43:17 6.2 C 44 %
1872 02-05-2020 23:53:17 6 C 45 %
1873 03-05-2020 00:03:17 6 C 45 %
1874 03-05-2020 00:13:17 5.8 C 46 %
1875 03-05-2020 00:23:17 5.9 C 46 %
Sensor: Nr:Datum:Temp:Feuchte:
Aussen-T/F 1876 03-05-2020 00:33:17 5.6 C 46 %
1877 03-05-2020 00:43:17 5.5 C 46 %
1878 03-05-2020 00:53:17 5.3 C 46 %
1879 03-05-2020 01:03:18 5.2 C 46 %
1880 03-05-2020 01:13:18 5.1 C 46 %
1881 03-05-2020 01:23:17 4.8 C 47 %
1882 03-05-2020 01:33:18 4.6 C 47 %
1883 03-05-2020 01:43:18 4.7 C 47 %
1884 03-05-2020 01:53:18 4.7 C 47 %
1885 03-05-2020 02:03:18 4.7 C 47 %
1886 03-05-2020 02:13:18 5 C 46 %
1887 03-05-2020 02:23:17 4.7 C 47 %
1888 03-05-2020 02:33:18 4.5 C 47 %
1889 03-05-2020 02:43:18 4.5 C 47 %
1890 03-05-2020 02:53:17 4.3 C 47 %
1891 03-05-2020 03:03:17 4.2 C 47 %
1892 03-05-2020 03:13:17 4 C 47 %
1893 03-05-2020 03:23:17 4.2 C 47 %
1894 03-05-2020 03:33:18 4.3 C 47 %
1895 03-05-2020 03:43:18 4.1 C 46 %
1896 03-05-2020 03:53:17 3.8 C 47 %
1897 03-05-2020 04:03:18 3.8 C 47 %
1898 03-05-2020 04:13:18 3.6 C 47 %
1899 03-05-2020 04:23:18 3.5 C 47 %
1900 03-05-2020 04:33:17 3.3 C 47 %
Sensor: Nr:Datum:Temp:Feuchte:
Aussen-T/F 1901 03-05-2020 04:43:17 3 C 47 %
1902 03-05-2020 04:53:17 3.1 C 47 %
1903 03-05-2020 05:03:17 2.9 C 48 %
1904 03-05-2020 05:13:17 2.8 C 48 %
1905 03-05-2020 05:23:17 2.8 C 48 %
1906 03-05-2020 05:33:17 2.8 C 48 %
1907 03-05-2020 05:43:17 2.8 C 48 %
1908 03-05-2020 05:53:17 3.1 C 47 %
1909 03-05-2020 06:03:17 3.3 C 47 %
1910 03-05-2020 06:13:17 3.6 C 47 %
1911 03-05-2020 06:23:17 3.9 C 47 %
1912 03-05-2020 06:33:18 4 C 46 %
1913 03-05-2020 06:43:18 4 C 46 %
1914 03-05-2020 06:53:17 4 C 46 %
1915 03-05-2020 07:03:17 4 C 46 %
1916 03-05-2020 07:13:17 4.1 C 46 %
1917 03-05-2020 07:23:18 4.2 C 46 %
1918 03-05-2020 07:33:18 4.2 C 46 %
1919 03-05-2020 07:43:18 4.4 C 46 %
1920 03-05-2020 07:53:18 4.7 C 46 %
1921 03-05-2020 08:03:18 4.6 C 46 %
1922 03-05-2020 08:13:18 5 C 46 %
1923 03-05-2020 08:23:18 5.5 C 46 %
1924 03-05-2020 08:33:17 5.4 C 46 %
1925 03-05-2020 08:43:17 6.1 C 45 %
Sensor: Nr:Datum:Temp:Feuchte:
Aussen-T/F 1926 03-05-2020 08:53:17 6.2 C 43 %
1927 03-05-2020 09:03:17 6.5 C 43 %
1928 03-05-2020 09:13:17 6.4 C 42 %
1929 03-05-2020 09:23:17 7.2 C 41 %
1930 03-05-2020 09:33:18 7.6 C 42 %
1931 03-05-2020 09:43:18 7.6 C 40 %
1932 03-05-2020 09:53:17 8.6 C 40 %
1933 03-05-2020 10:03:17 8.9 C 40 %
1934 03-05-2020 10:13:17 9.7 C 40 %
1935 03-05-2020 10:23:18 10.1 C 37 %
1936 03-05-2020 10:33:17 10.7 C 39 %
1937 03-05-2020 10:43:17 11.6 C 36 %
1938 03-05-2020 10:53:17 12.5 C 34 %
1939 03-05-2020 11:03:17 12.7 C 33 %
1940 03-05-2020 11:13:17 13.5 C 32 %
1941 03-05-2020 11:23:17 14.4 C 31 %
1942 03-05-2020 11:33:17 14.5 C 30 %
1943 03-05-2020 11:43:18 14.8 C 28 %
1944 03-05-2020 11:53:18 14.5 C 25 %
1945 03-05-2020 12:03:18 14.5 C 25 %
1946 03-05-2020 12:13:18 14.7 C 25 %
1947 03-05-2020 12:23:17 14.7 C 22 %
1948 03-05-2020 12:33:18 14.7 C 23 %
1949 03-05-2020 12:43:18 14.9 C 23 %
1950 03-05-2020 12:53:17 15.1 C 20 %
Sensor: Nr:Datum:Temp:Feuchte:
Aussen-T/F 1951 03-05-2020 13:03:18 16.2 C 20 %
1952 03-05-2020 13:13:18 16.1 C 20 %
1953 03-05-2020 13:23:17 16.3 C 20 %
1954 03-05-2020 13:33:18 16.3 C 20 %
1955 03-05-2020 13:43:18 16.6 C 20 %
1956 03-05-2020 13:53:18 17 C 20 %
1957 03-05-2020 14:03:18 17.4 C 20 %
1958 03-05-2020 14:13:18 18.4 C 20 %
1959 03-05-2020 14:23:17 19.4 C 20 %
1960 03-05-2020 14:33:18 23.3 C 20 %
1961 03-05-2020 14:43:18 22.4 C 20 %
1962 03-05-2020 14:53:17 20.3 C 20 %
1963 03-05-2020 15:03:17 20.3 C 20 %
1964 03-05-2020 15:13:17 20.6 C 20 %
1965 03-05-2020 15:23:17 19.6 C 20 %
1966 03-05-2020 15:33:18 19 C 20 %
1967 03-05-2020 15:43:18 21.2 C 20 %
1968 03-05-2020 15:53:17 19.3 C 20 %
1969 03-05-2020 16:03:17 19 C 20 %
1970 03-05-2020 16:13:17 18.5 C 20 %
1971 03-05-2020 16:23:17 17.9 C 20 %
1972 03-05-2020 16:33:18 17.9 C 20 %
1973 03-05-2020 16:43:18 18.9 C 20 %
1974 03-05-2020 16:53:17 18.2 C 20 %
1975 03-05-2020 17:03:17 17.8 C 20 %
Sensor: Nr:Datum:Temp:Feuchte:
Aussen-T/F 1976 03-05-2020 17:13:17 18.1 C 20 %
1977 03-05-2020 17:23:18 17.2 C 20 %
1978 03-05-2020 17:33:17 17.6 C 20 %
1979 03-05-2020 17:43:17 17.6 C 20 %
1980 03-05-2020 17:53:18 17.3 C 20 %
1981 03-05-2020 18:03:18 16.9 C 20 %
1982 03-05-2020 18:13:18 16.9 C 20 %
1983 03-05-2020 18:23:17 17.2 C 20 %
1984 03-05-2020 18:33:17 16.7 C 20 %
1985 03-05-2020 18:43:17 17 C 20 %
1986 03-05-2020 18:53:17 16.7 C 20 %
1987 03-05-2020 19:03:17 16.2 C 20 %
1988 03-05-2020 19:13:17 15.7 C 21 %
1989 03-05-2020 19:23:17 15.6 C 22 %
1990 03-05-2020 19:33:18 15.2 C 27 %
1991 03-05-2020 19:43:18 14.1 C 29 %
1992 03-05-2020 19:53:17 13.8 C 30 %
1993 03-05-2020 20:03:17 13.3 C 30 %
1994 03-05-2020 20:13:17 13 C 30 %
1995 03-05-2020 20:23:17 12.8 C 31 %
1996 03-05-2020 20:33:18 12.5 C 31 %
1997 03-05-2020 20:43:18 12.4 C 31 %
1998 03-05-2020 20:53:17 12.3 C 32 %
1999 03-05-2020 21:03:17 12.1 C 32 %
2000 03-05-2020 21:13:17 12.1 C 32 %
Sensor: Nr:Datum:Temp:Feuchte:
Aussen-T/F 2001 03-05-2020 21:23:17 12 C 32 %
2002 03-05-2020 21:33:17 12.1 C 32 %
2003 03-05-2020 21:43:18 12 C 32 %
2004 03-05-2020 21:53:17 12 C 33 %
2005 03-05-2020 22:03:18 12 C 33 %
2006 03-05-2020 22:13:18 11.8 C 34 %
2007 03-05-2020 22:23:17 11.8 C 34 %
2008 03-05-2020 22:33:17 11.7 C 34 %
2009 03-05-2020 22:43:17 11.6 C 34 %
2010 03-05-2020 22:53:18 11.4 C 35 %
2011 03-05-2020 23:03:17 11.3 C 35 %
2012 03-05-2020 23:13:17 11.2 C 34 %
2013 03-05-2020 23:23:17 11.4 C 35 %
2014 03-05-2020 23:33:17 11.4 C 34 %
2015 03-05-2020 23:43:17 11.3 C 35 %
2016 03-05-2020 23:53:17 11.4 C 35 %
2017 04-05-2020 00:03:17 11.4 C 35 %
2018 04-05-2020 00:13:17 11.2 C 35 %
2019 04-05-2020 00:23:17 11 C 36 %
2020 04-05-2020 00:33:18 11 C 36 %
2021 04-05-2020 00:43:18 11.1 C 36 %
2022 04-05-2020 00:53:17 11 C 36 %
2023 04-05-2020 01:03:17 10.9 C 36 %
2024 04-05-2020 01:13:17 10.8 C 36 %
2025 04-05-2020 01:23:17 11.1 C 35 %
Sensor: Nr:Datum:Temp:Feuchte:
Aussen-T/F 2026 04-05-2020 01:33:17 11 C 35 %
2027 04-05-2020 01:43:17 11.1 C 35 %
2028 04-05-2020 01:53:17 11 C 35 %
2029 04-05-2020 02:03:17 10.8 C 37 %
2030 04-05-2020 02:13:17 10.8 C 36 %
2031 04-05-2020 02:23:17 10.6 C 37 %
2032 04-05-2020 02:33:18 10.7 C 36 %
2033 04-05-2020 02:43:18 10.7 C 37 %
2034 04-05-2020 02:53:17 10.1 C 37 %
2035 04-05-2020 03:03:17 9.9 C 37 %
2036 04-05-2020 03:13:17 9.7 C 37 %
2037 04-05-2020 03:23:17 9.4 C 38 %
2038 04-05-2020 03:33:17 9.1 C 39 %
2039 04-05-2020 03:43:17 9.1 C 38 %
2040 04-05-2020 03:53:18 8.8 C 39 %
2041 04-05-2020 04:03:17 8.5 C 40 %
2042 04-05-2020 04:13:17 8.6 C 40 %
2043 04-05-2020 04:23:17 8.8 C 40 %
2044 04-05-2020 04:33:17 9 C 40 %
2045 04-05-2020 04:43:17 9.2 C 40 %
2046 04-05-2020 04:53:18 9.3 C 40 %
2047 04-05-2020 05:03:17 9.5 C 39 %
2048 04-05-2020 05:13:17 9.6 C 40 %
2049 04-05-2020 05:23:17 9.6 C 39 %
2050 04-05-2020 05:33:18 9.8 C 39 %
Sensor: Nr:Datum:Temp:Feuchte:
Aussen-T/F 2051 04-05-2020 05:43:18 9.7 C 39 %
2052 04-05-2020 05:53:17 9.7 C 39 %
2053 04-05-2020 06:03:18 9.6 C 40 %
2054 04-05-2020 06:13:18 9.6 C 40 %
2055 04-05-2020 06:23:18 9.6 C 40 %
2056 04-05-2020 06:33:17 9.6 C 40 %
2057 04-05-2020 06:43:17 9.5 C 40 %
2058 04-05-2020 06:53:17 9.6 C 40 %
2059 04-05-2020 07:03:17 9.8 C 40 %
2060 04-05-2020 07:13:17 10.1 C 40 %
2061 04-05-2020 07:23:17 10.6 C 39 %
2062 04-05-2020 07:33:17 11.2 C 37 %
2063 04-05-2020 07:43:18 11.4 C 36 %
2064 04-05-2020 07:53:17 11.3 C 37 %
2065 04-05-2020 08:03:17 10.8 C 40 %
2066 04-05-2020 08:13:17 10.6 C 41 %
2067 04-05-2020 08:23:17 10.7 C 43 %
2068 04-05-2020 08:33:17 11 C 42 %
2069 04-05-2020 08:43:18 11.3 C 42 %
2070 04-05-2020 08:53:17 11.2 C 41 %
2071 04-05-2020 09:03:18 11.2 C 41 %
2072 04-05-2020 09:13:18 11.3 C 41 %
2073 04-05-2020 09:23:18 11.3 C 42 %
2074 04-05-2020 09:33:17 11.3 C 43 %
2075 04-05-2020 09:43:17 11.5 C 41 %
Sensor: Nr:Datum:Temp:Feuchte:
Aussen-T/F 2076 04-05-2020 09:53:17 12.3 C 39 %
2077 04-05-2020 10:03:18 13 C 37 %
2078 04-05-2020 10:13:18 14 C 36 %
2079 04-05-2020 10:23:17 13.6 C 36 %
2080 04-05-2020 10:33:18 14.8 C 35 %
2081 04-05-2020 10:43:18 14.3 C 35 %
2082 04-05-2020 10:53:17 14.2 C 36 %
2083 04-05-2020 11:03:17 13.4 C 37 %
2084 04-05-2020 11:13:17 13.2 C 38 %
2085 04-05-2020 11:23:17 13 C 39 %
2086 04-05-2020 11:33:18 12.4 C 40 %
2087 04-05-2020 11:43:18 12.2 C 40 %
2088 04-05-2020 11:53:17 12 C 41 %
2089 04-05-2020 12:03:17 11.9 C 41 %
2090 04-05-2020 12:13:17 12.3 C 40 %
2091 04-05-2020 12:23:17 13.1 C 38 %
2092 04-05-2020 12:33:17 13.8 C 36 %
2093 04-05-2020 12:43:17 13.5 C 37 %
2094 04-05-2020 12:53:17 14.4 C 36 %
2095 04-05-2020 13:03:18 14.5 C 35 %
2096 04-05-2020 13:13:18 15.6 C 34 %
2097 04-05-2020 13:23:17 16 C 32 %
2098 04-05-2020 13:33:17 16.4 C 32 %
2099 04-05-2020 13:43:17 16.3 C 31 %
2100 04-05-2020 13:53:17 15.3 C 32 %
Sensor: Nr:Datum:Temp:Feuchte:
Aussen-T/F 2101 04-05-2020 14:03:17 15 C 32 %
2102 04-05-2020 14:13:17 15.6 C 33 %
2103 04-05-2020 14:23:17 16.2 C 31 %
2104 04-05-2020 14:33:17 15.9 C 31 %
2105 04-05-2020 14:43:17 15.3 C 31 %
2106 04-05-2020 14:53:17 15.2 C 32 %
2107 04-05-2020 15:03:17 14.4 C 34 %
2108 04-05-2020 15:13:17 14.4 C 34 %
2109 04-05-2020 15:23:17 14.8 C 33 %
2110 04-05-2020 15:33:17 14.5 C 33 %
2111 04-05-2020 15:43:17 15.4 C 31 %
2112 04-05-2020 15:53:17 15.8 C 31 %
2113 04-05-2020 16:03:18 16 C 30 %
2114 04-05-2020 16:13:18 15.9 C 30 %
2115 04-05-2020 16:23:17 15.2 C 30 %
2116 04-05-2020 16:33:17 14.4 C 30 %
2117 04-05-2020 16:43:17 15 C 30 %
2118 04-05-2020 16:53:18 14.9 C 30 %
2119 04-05-2020 17:03:18 14.8 C 31 %
2120 04-05-2020 17:13:18 14.4 C 31 %
2121 04-05-2020 17:23:17 14.7 C 30 %
2122 04-05-2020 17:33:18 14.4 C 31 %
2123 04-05-2020 17:43:18 14.2 C 30 %
2124 04-05-2020 17:53:17 14.4 C 30 %
2125 04-05-2020 18:03:17 14.7 C 30 %
Sensor: Nr:Datum:Temp:Feuchte:
Aussen-T/F 2126 04-05-2020 18:13:17 14.4 C 30 %
2127 04-05-2020 18:23:17 14 C 30 %
2128 04-05-2020 18:33:17 13.8 C 31 %
2129 04-05-2020 18:43:17 13.7 C 31 %
2130 04-05-2020 18:53:17 13.7 C 30 %
2131 04-05-2020 19:03:17 13.7 C 31 %
2132 04-05-2020 19:13:17 13.4 C 32 %
2133 04-05-2020 19:23:17 13.1 C 33 %
2134 04-05-2020 19:33:17 13 C 33 %
2135 04-05-2020 19:43:17 12.8 C 34 %
2136 04-05-2020 19:53:17 12.7 C 35 %
2137 04-05-2020 20:03:18 12.7 C 35 %
2138 04-05-2020 20:13:18 12.6 C 36 %
2139 04-05-2020 20:23:17 12.2 C 36 %
2140 04-05-2020 20:33:17 11.7 C 37 %
2141 04-05-2020 20:43:18 11.8 C 35 %
2142 04-05-2020 20:53:17 11.4 C 36 %
2143 04-05-2020 21:03:17 10.8 C 36 %
2144 04-05-2020 21:13:17 10.4 C 36 %
2145 04-05-2020 21:23:18 9.9 C 36 %
2146 04-05-2020 21:33:17 9.6 C 36 %
2147 04-05-2020 21:43:17 9.1 C 37 %
2148 04-05-2020 21:53:17 8.6 C 37 %
2149 04-05-2020 22:03:17 8.5 C 37 %
2150 04-05-2020 22:13:17 8.3 C 37 %
Sensor: Nr:Datum:Temp:Feuchte:
Aussen-T/F 2151 04-05-2020 22:23:17 7.7 C 40 %
2152 04-05-2020 22:33:17 7.3 C 40 %
2153 04-05-2020 22:43:17 7 C 41 %
2154 04-05-2020 22:53:17 6.9 C 42 %
2155 04-05-2020 23:03:17 6.5 C 42 %
2156 04-05-2020 23:13:17 6.3 C 42 %
2157 04-05-2020 23:23:17 6.4 C 42 %
2158 04-05-2020 23:33:17 6.5 C 41 %
2159 04-05-2020 23:43:17 6.3 C 41 %
2160 04-05-2020 23:53:17 6.1 C 42 %
2161 05-05-2020 00:03:17 6.1 C 41 %
2162 05-05-2020 00:13:17 5.9 C 42 %
2163 05-05-2020 00:23:17 5.8 C 43 %
2164 05-05-2020 00:33:18 5.5 C 43 %
2165 05-05-2020 00:43:18 5.4 C 45 %
2166 05-05-2020 00:53:17 5.4 C 44 %
2167 05-05-2020 01:03:18 5.1 C 44 %
2168 05-05-2020 01:13:18 5 C 45 %
2169 05-05-2020 01:23:18 4.8 C 45 %
2170 05-05-2020 01:33:17 4.7 C 46 %
2171 05-05-2020 01:43:17 4.6 C 45 %
2172 05-05-2020 01:53:18 4.3 C 46 %
2173 05-05-2020 02:03:18 4.2 C 46 %
2174 05-05-2020 02:13:18 4.2 C 46 %
2175 05-05-2020 02:23:17 4.2 C 47 %
Sensor: Nr:Datum:Temp:Feuchte:
Aussen-T/F 2176 05-05-2020 02:33:17 4.1 C 46 %
2177 05-05-2020 02:43:17 4 C 47 %
2178 05-05-2020 02:53:17 4 C 47 %
2179 05-05-2020 03:03:17 3.9 C 48 %
2180 05-05-2020 03:13:18 4.4 C 47 %
2181 05-05-2020 03:23:17 4.4 C 47 %
2182 05-05-2020 03:33:18 4.2 C 46 %
2183 05-05-2020 03:43:18 4.2 C 47 %
2184 05-05-2020 03:53:18 4.1 C 47 %
2185 05-05-2020 04:03:17 4 C 47 %
2186 05-05-2020 04:13:17 3.8 C 47 %
2187 05-05-2020 04:23:17 3.7 C 47 %
2188 05-05-2020 04:33:17 3.7 C 47 %
2189 05-05-2020 04:43:18 3.6 C 47 %
2190 05-05-2020 04:53:17 3.5 C 47 %
2191 05-05-2020 05:03:18 3.4 C 47 %
2192 05-05-2020 05:13:18 3.6 C 47 %
2193 05-05-2020 05:23:17 3.7 C 47 %
2194 05-05-2020 05:33:17 3.6 C 47 %
2195 05-05-2020 05:43:17 3.5 C 47 %
2196 05-05-2020 05:53:17 3.5 C 47 %
2197 05-05-2020 06:03:17 3.6 C 47 %
2198 05-05-2020 06:13:17 3.6 C 47 %
2199 05-05-2020 06:23:17 3.8 C 47 %
2200 05-05-2020 06:33:17 4.1 C 46 %
Sensor: Nr:Datum:Temp:Feuchte:
Aussen-T/F 2201 05-05-2020 06:43:17 4.2 C 46 %
2202 05-05-2020 06:53:17 4.3 C 46 %
2203 05-05-2020 07:03:17 4.6 C 46 %
2204 05-05-2020 07:13:17 4.9 C 46 %
2205 05-05-2020 07:23:18 4.9 C 46 %
2206 05-05-2020 07:33:17 5.3 C 46 %
2207 05-05-2020 07:43:17 5.7 C 46 %
2208 05-05-2020 07:53:17 6 C 45 %
2209 05-05-2020 08:03:17 6.3 C 45 %
2210 05-05-2020 08:13:17 6.4 C 44 %
2211 05-05-2020 08:23:17 6.9 C 43 %
2212 05-05-2020 08:33:17 6.9 C 42 %
2213 05-05-2020 08:43:17 6.9 C 42 %
2214 05-05-2020 08:53:17 7.1 C 41 %
2215 05-05-2020 09:03:17 7.4 C 40 %
2216 05-05-2020 09:13:17 7.9 C 39 %
2217 05-05-2020 09:23:17 8.1 C 39 %
2218 05-05-2020 09:33:17 8.6 C 38 %
2219 05-05-2020 09:43:18 9.1 C 37 %
2220 05-05-2020 09:53:17 9.3 C 36 %
2221 05-05-2020 10:03:17 9.5 C 36 %
2222 05-05-2020 10:13:17 10 C 34 %
2223 05-05-2020 10:23:18 10.1 C 33 %
2224 05-05-2020 10:33:17 10.5 C 32 %
2225 05-05-2020 10:43:17 11 C 31 %
Sensor: Nr:Datum:Temp:Feuchte:
Aussen-T/F 2226 05-05-2020 10:53:17 11.3 C 31 %
2227 05-05-2020 11:03:17 12.1 C 29 %
2228 05-05-2020 11:13:17 12.2 C 28 %
2229 05-05-2020 11:23:18 13.1 C 27 %
2230 05-05-2020 11:33:18 13.1 C 26 %
2231 05-05-2020 11:43:18 13.4 C 26 %
2232 05-05-2020 11:53:17 13.7 C 26 %
2233 05-05-2020 12:03:18 13.7 C 25 %
2234 05-05-2020 12:13:18 14.5 C 25 %
2235 05-05-2020 12:23:17 13.9 C 25 %
2236 05-05-2020 12:33:18 13.5 C 25 %
2237 05-05-2020 12:43:18 13.7 C 25 %
2238 05-05-2020 12:53:17 13.7 C 25 %
2239 05-05-2020 13:03:18 13.9 C 25 %
2240 05-05-2020 13:13:18 14.2 C 25 %
2241 05-05-2020 13:23:18 14.5 C 24 %
2242 05-05-2020 13:33:17 15.8 C 22 %
2243 05-05-2020 13:43:17 15.9 C 21 %
2244 05-05-2020 13:53:17 16.4 C 20 %
2245 05-05-2020 14:03:17 15.3 C 20 %
2246 05-05-2020 14:13:17 16 C 20 %
2247 05-05-2020 14:23:17 21.9 C 20 %
2248 05-05-2020 14:33:17 23.5 C 20 %
2249 05-05-2020 14:43:17 24.9 C 20 %
2250 05-05-2020 14:53:17 23.7 C 20 %
Sensor: Nr:Datum:Temp:Feuchte:
Aussen-T/F 2251 05-05-2020 15:03:17 21.4 C 20 %
2252 05-05-2020 15:13:17 23.8 C 20 %
2253 05-05-2020 15:23:17 24.3 C 20 %
2254 05-05-2020 15:33:17 25.4 C 20 %
2255 05-05-2020 15:43:17 21.3 C 20 %
2256 05-05-2020 15:53:17 22.1 C 20 %
2257 05-05-2020 16:03:18 25 C 20 %
2258 05-05-2020 16:13:18 21.3 C 20 %
2259 05-05-2020 16:23:17 24.8 C 20 %
2260 05-05-2020 16:33:17 25.9 C 20 %
2261 05-05-2020 16:43:18 24.4 C 20 %
2262 05-05-2020 16:53:17 24.7 C 20 %
2263 05-05-2020 17:03:17 22.1 C 20 %
2264 05-05-2020 17:13:17 25.1 C 20 %
2265 05-05-2020 17:23:17 24.2 C 20 %
2266 05-05-2020 17:33:18 23.7 C 20 %
2267 05-05-2020 17:43:18 23.3 C 20 %
2268 05-05-2020 17:53:17 21.2 C 20 %
2269 05-05-2020 18:03:17 20 C 20 %
2270 05-05-2020 18:13:17 18.4 C 20 %
2271 05-05-2020 18:23:17 17.4 C 20 %
2272 05-05-2020 18:33:18 17.6 C 20 %
2273 05-05-2020 18:43:18 16.8 C 20 %
2274 05-05-2020 18:53:17 16.9 C 20 %
2275 05-05-2020 19:03:17 17.1 C 20 %
Sensor: Nr:Datum:Temp:Feuchte:
Aussen-T/F 2276 05-05-2020 19:13:17 16.5 C 20 %
2277 05-05-2020 19:23:17 16.2 C 20 %
2278 05-05-2020 19:33:17 16 C 20 %
2279 05-05-2020 19:43:18 15.7 C 20 %
2280 05-05-2020 19:53:17 15.5 C 20 %
2281 05-05-2020 20:03:18 15.2 C 20 %
2282 05-05-2020 20:13:18 15.1 C 20 %
2283 05-05-2020 20:23:17 14.6 C 20 %
2284 05-05-2020 20:33:17 14.2 C 20 %
2285 05-05-2020 20:43:17 13.8 C 20 %
2286 05-05-2020 20:53:17 12.8 C 20 %
2287 05-05-2020 21:03:17 11.3 C 21 %
2288 05-05-2020 21:13:17 11 C 23 %
2289 05-05-2020 21:23:17 10.7 C 21 %
2290 05-05-2020 21:33:17 10.3 C 25 %
2291 05-05-2020 21:43:17 10.1 C 22 %
2292 05-05-2020 21:53:17 9.8 C 25 %
2293 05-05-2020 22:03:17 9.7 C 25 %
2294 05-05-2020 22:13:17 9.3 C 26 %
2295 05-05-2020 22:23:17 9.4 C 26 %
2296 05-05-2020 22:33:17 9.2 C 26 %
2297 05-05-2020 22:43:17 9.1 C 26 %
2298 05-05-2020 22:53:18 9.1 C 26 %
2299 05-05-2020 23:03:17 8.7 C 27 %
2300 05-05-2020 23:13:17 8.6 C 27 %
Sensor: Nr:Datum:Temp:Feuchte:
Aussen-T/F 2301 05-05-2020 23:23:18 8.2 C 27 %
2302 05-05-2020 23:33:18 8 C 27 %
2303 05-05-2020 23:43:18 7.5 C 29 %
2304 05-05-2020 23:53:18 7.6 C 29 %
2305 06-05-2020 00:03:18 7.5 C 29 %
2306 06-05-2020 00:13:18 7.4 C 30 %
2307 06-05-2020 00:23:18 7 C 30 %
2308 06-05-2020 00:33:17 6.8 C 31 %
2309 06-05-2020 00:43:17 6.4 C 33 %
2310 06-05-2020 00:53:17 6 C 33 %
2311 06-05-2020 01:03:17 5.9 C 34 %
2312 06-05-2020 01:13:17 5.7 C 35 %
2313 06-05-2020 01:23:17 5 C 36 %
2314 06-05-2020 01:33:17 4.7 C 37 %
2315 06-05-2020 01:43:17 4.3 C 38 %
2316 06-05-2020 01:53:18 4.2 C 38 %
2317 06-05-2020 02:03:17 4 C 39 %
2318 06-05-2020 02:13:17 3.7 C 40 %
2319 06-05-2020 02:23:17 3.7 C 40 %
2320 06-05-2020 02:33:18 3.6 C 40 %
2321 06-05-2020 02:43:18 3.4 C 40 %
2322 06-05-2020 02:53:17 3.1 C 41 %
2323 06-05-2020 03:03:17 3.1 C 41 %
2324 06-05-2020 03:13:17 2.8 C 42 %
2325 06-05-2020 03:23:17 2.8 C 42 %
Sensor: Nr:Datum:Temp:Feuchte:
Aussen-T/F 2326 06-05-2020 03:33:17 2.5 C 42 %
2327 06-05-2020 03:43:17 2.3 C 43 %
2328 06-05-2020 03:53:18 2.3 C 43 %
2329 06-05-2020 04:03:17 2.4 C 43 %
2330 06-05-2020 04:13:17 2.2 C 43 %
2331 06-05-2020 04:23:17 2.4 C 44 %
2332 06-05-2020 04:33:18 2.3 C 43 %
2333 06-05-2020 04:43:18 2 C 44 %
2334 06-05-2020 04:53:17 2 C 44 %
2335 06-05-2020 05:03:17 2.1 C 45 %
2336 06-05-2020 05:13:17 1.8 C 45 %
2337 06-05-2020 05:23:17 1.8 C 46 %
2338 06-05-2020 05:33:17 1.8 C 47 %
2339 06-05-2020 05:43:17 1.7 C 46 %
2340 06-05-2020 05:53:18 1.5 C 46 %
2341 06-05-2020 06:03:18 1.5 C 46 %
2342 06-05-2020 06:13:18 1.4 C 46 %
2343 06-05-2020 06:23:17 1.4 C 47 %
2344 06-05-2020 06:33:17 1.4 C 47 %
2345 06-05-2020 06:43:17 1.5 C 47 %
2346 06-05-2020 06:53:17 1.6 C 47 %
2347 06-05-2020 07:03:17 1.7 C 47 %
2348 06-05-2020 07:13:17 1.8 C 47 %
2349 06-05-2020 07:23:17 2 C 47 %
2350 06-05-2020 07:33:17 2.2 C 45 %
Sensor: Nr:Datum:Temp:Feuchte:
Aussen-T/F 2351 06-05-2020 07:43:17 2.4 C 46 %
2352 06-05-2020 07:53:17 2.6 C 46 %
2353 06-05-2020 08:03:18 2.8 C 45 %
2354 06-05-2020 08:13:18 3 C 44 %
2355 06-05-2020 08:23:17 3.6 C 44 %
2356 06-05-2020 08:33:17 3.7 C 44 %
2357 06-05-2020 08:43:17 4.1 C 43 %
2358 06-05-2020 08:53:18 4.7 C 42 %
2359 06-05-2020 09:03:17 5.1 C 41 %
2360 06-05-2020 09:13:18 5.7 C 41 %
2361 06-05-2020 09:23:17 6.5 C 40 %
2362 06-05-2020 09:33:17 6.8 C 39 %
2363 06-05-2020 09:43:17 7.5 C 38 %
2364 06-05-2020 09:53:17 7.8 C 37 %
2365 06-05-2020 10:03:18 8.3 C 37 %
2366 06-05-2020 10:13:18 9 C 35 %
2367 06-05-2020 10:23:17 9.9 C 31 %
2368 06-05-2020 10:33:18 11.7 C 25 %
2369 06-05-2020 10:43:18 12.3 C 20 %
2370 06-05-2020 10:53:17 12.4 C 20 %
2371 06-05-2020 11:03:17 12.9 C 20 %
2372 06-05-2020 11:13:17 13.1 C 20 %
2373 06-05-2020 11:23:17 13.6 C 20 %
2374 06-05-2020 11:33:17 13.7 C 20 %
2375 06-05-2020 11:43:18 13.6 C 20 %
Sensor: Nr:Datum:Temp:Feuchte:
Aussen-T/F 2376 06-05-2020 11:53:17 13.9 C 20 %
2377 06-05-2020 12:03:17 13.8 C 20 %
2378 06-05-2020 12:13:17 13.8 C 20 %
2379 06-05-2020 12:23:18 14 C 20 %
2380 06-05-2020 12:33:18 14.1 C 20 %
2381 06-05-2020 12:43:18 13.8 C 20 %
2382 06-05-2020 12:53:17 14.2 C 20 %
2383 06-05-2020 13:03:18 14.3 C 20 %
2384 06-05-2020 13:13:18 14.2 C 20 %
2385 06-05-2020 13:23:18 14.6 C 20 %
2386 06-05-2020 13:33:17 14.8 C 20 %
2387 06-05-2020 13:43:18 14.8 C 20 %
2388 06-05-2020 13:53:17 15.6 C 20 %
2389 06-05-2020 14:03:18 18.6 C 20 %
2390 06-05-2020 14:13:18 20.6 C 20 %
2391 06-05-2020 14:23:17 23.8 C 20 %
2392 06-05-2020 14:33:17 23.1 C 20 %
2393 06-05-2020 14:43:17 23.1 C 20 %
2394 06-05-2020 14:53:17 24.2 C 20 %
2395 06-05-2020 15:03:17 24.4 C 20 %
2396 06-05-2020 15:13:17 26.3 C 20 %
2397 06-05-2020 15:23:17 22.6 C 20 %
2398 06-05-2020 15:33:17 26.1 C 20 %
2399 06-05-2020 15:43:17 23.6 C 20 %
2400 06-05-2020 15:53:17 24.9 C 20 %
Sensor: Nr:Datum:Temp:Feuchte:
Aussen-T/F 2401 06-05-2020 16:03:18 24.5 C 20 %
2402 06-05-2020 16:13:18 25.9 C 20 %
2403 06-05-2020 16:23:17 25.5 C 20 %
2404 06-05-2020 16:33:17 26.9 C 20 %
2405 06-05-2020 16:43:17 24.7 C 20 %
2406 06-05-2020 16:53:17 24.5 C 20 %
2407 06-05-2020 17:03:17 26.3 C 20 %
2408 06-05-2020 17:13:17 23.5 C 20 %
2409 06-05-2020 17:23:17 24.9 C 20 %
2410 06-05-2020 17:33:17 24.1 C 20 %
2411 06-05-2020 17:43:17 24.5 C 20 %
2412 06-05-2020 17:53:18 25.2 C 20 %
2413 06-05-2020 18:03:18 24.7 C 20 %
2414 06-05-2020 18:13:18 20.4 C 20 %
2415 06-05-2020 18:23:18 20.3 C 20 %
2416 06-05-2020 18:33:17 19.6 C 20 %
2417 06-05-2020 18:43:17 19.1 C 20 %
2418 06-05-2020 18:53:17 18.7 C 20 %
2419 06-05-2020 19:03:18 18.4 C 20 %
2420 06-05-2020 19:13:18 18.1 C 20 %
2421 06-05-2020 19:23:18 18.2 C 20 %
2422 06-05-2020 19:33:17 17.7 C 20 %
2423 06-05-2020 19:43:18 17.4 C 20 %
2424 06-05-2020 19:53:17 17.2 C 20 %
2425 06-05-2020 20:03:17 16.6 C 20 %
Sensor: Nr:Datum:Temp:Feuchte:
Aussen-T/F 2426 06-05-2020 20:13:17 16 C 20 %
2427 06-05-2020 20:23:17 14.8 C 20 %
2428 06-05-2020 20:33:18 14 C 20 %
2429 06-05-2020 20:43:18 13.5 C 20 %
2430 06-05-2020 20:53:17 13 C 20 %
2431 06-05-2020 21:03:17 12.8 C 20 %
2432 06-05-2020 21:13:17 12.4 C 20 %
2433 06-05-2020 21:23:18 11.9 C 25 %
2434 06-05-2020 21:33:17 10.9 C 27 %
2435 06-05-2020 21:43:17 10.5 C 29 %
2436 06-05-2020 21:53:17 9.7 C 31 %
2437 06-05-2020 22:03:18 9.4 C 31 %
2438 06-05-2020 22:13:18 9.4 C 30 %
2439 06-05-2020 22:23:17 9.1 C 32 %
2440 06-05-2020 22:33:18 9 C 31 %
2441 06-05-2020 22:43:18 8.6 C 32 %
2442 06-05-2020 22:53:17 8.2 C 33 %
2443 06-05-2020 23:03:17 8.1 C 33 %
2444 06-05-2020 23:13:18 7.7 C 35 %
2445 06-05-2020 23:23:17 7.2 C 35 %
2446 06-05-2020 23:33:17 6.9 C 36 %
2447 06-05-2020 23:43:17 6.8 C 36 %
2448 06-05-2020 23:53:17 6.6 C 36 %
2449 07-05-2020 00:03:17 6.4 C 36 %
2450 07-05-2020 00:13:17 6.4 C 37 %
Sensor: Nr:Datum:Temp:Feuchte:
Aussen-T/F 2451 07-05-2020 00:23:17 6.1 C 37 %
2452 07-05-2020 00:33:18 6.1 C 37 %
2453 07-05-2020 00:43:18 6.1 C 37 %
2454 07-05-2020 00:53:17 6.3 C 37 %
2455 07-05-2020 01:03:18 6.2 C 37 %
2456 07-05-2020 01:13:18 6.2 C 37 %
2457 07-05-2020 01:23:17 6 C 37 %
2458 07-05-2020 01:33:18 5.9 C 38 %
2459 07-05-2020 01:43:18 5.9 C 38 %
2460 07-05-2020 01:53:17 5.2 C 39 %
2461 07-05-2020 02:03:17 5.2 C 39 %
2462 07-05-2020 02:13:17 5.2 C 39 %
2463 07-05-2020 02:23:18 5.1 C 40 %
2464 07-05-2020 02:33:17 4.8 C 40 %
2465 07-05-2020 02:43:17 4.7 C 40 %
2466 07-05-2020 02:53:17 4.6 C 41 %
2467 07-05-2020 03:03:17 4.6 C 41 %
2468 07-05-2020 03:13:18 4.5 C 41 %
2469 07-05-2020 03:23:17 4.3 C 41 %
2470 07-05-2020 03:33:17 4.4 C 41 %
2471 07-05-2020 03:43:17 4.1 C 41 %
2472 07-05-2020 03:53:17 4.2 C 42 %
2473 07-05-2020 04:03:17 4.2 C 42 %
2474 07-05-2020 04:13:17 4 C 42 %
2475 07-05-2020 04:23:18 3.7 C 43 %
Sensor: Nr:Datum:Temp:Feuchte:
Aussen-T/F 2476 07-05-2020 04:33:17 3.6 C 43 %
2477 07-05-2020 04:43:17 3.3 C 43 %
2478 07-05-2020 04:53:17 3.2 C 44 %
2479 07-05-2020 05:03:17 3.2 C 45 %
2480 07-05-2020 05:13:17 3.3 C 45 %
2481 07-05-2020 05:23:17 3 C 44 %
2482 07-05-2020 05:33:17 3.1 C 45 %
2483 07-05-2020 05:43:17 3 C 45 %
2484 07-05-2020 05:53:17 3.1 C 45 %
2485 07-05-2020 06:03:17 3 C 45 %
2486 07-05-2020 06:13:17 2.9 C 45 %
2487 07-05-2020 06:23:17 2.9 C 46 %
2488 07-05-2020 06:33:17 2.9 C 46 %
2489 07-05-2020 06:43:17 2.7 C 46 %
2490 07-05-2020 06:53:18 3 C 46 %
2491 07-05-2020 07:03:17 3 C 45 %
2492 07-05-2020 07:13:17 3 C 45 %
2493 07-05-2020 07:23:17 3.2 C 46 %
2494 07-05-2020 07:33:17 3.4 C 46 %
2495 07-05-2020 07:43:17 3.6 C 45 %
2496 07-05-2020 07:53:17 3.8 C 44 %
2497 07-05-2020 08:03:17 3.9 C 44 %
2498 07-05-2020 08:13:17 4.2 C 43 %
2499 07-05-2020 08:23:17 4.5 C 43 %
2500 07-05-2020 08:33:18 4.6 C 43 %
Sensor: Nr:Datum:Temp:Feuchte:
Aussen-T/F 2501 07-05-2020 08:43:18 5.1 C 41 %
2502 07-05-2020 08:53:17 5.2 C 41 %
2503 07-05-2020 09:03:17 5.8 C 41 %
2504 07-05-2020 09:13:17 6.2 C 41 %
2505 07-05-2020 09:23:17 6.7 C 41 %
2506 07-05-2020 09:33:18 7.5 C 40 %
2507 07-05-2020 09:43:18 8.6 C 38 %
2508 07-05-2020 09:53:17 8.8 C 38 %
2509 07-05-2020 10:03:17 9.3 C 37 %
2510 07-05-2020 10:13:17 9.8 C 36 %
2511 07-05-2020 10:23:17 10.3 C 35 %
2512 07-05-2020 10:33:17 11.3 C 35 %
2513 07-05-2020 10:43:17 11.9 C 34 %
2514 07-05-2020 10:53:17 13.4 C 30 %
2515 07-05-2020 11:03:17 14.2 C 26 %
2516 07-05-2020 11:13:17 14.7 C 28 %
2517 07-05-2020 11:23:17 15.3 C 25 %
2518 07-05-2020 11:33:17 15.4 C 25 %
2519 07-05-2020 11:43:17 15.9 C 25 %
2520 07-05-2020 11:53:17 16.2 C 22 %
2521 07-05-2020 12:03:17 16.6 C 20 %
2522 07-05-2020 12:13:17 16.8 C 20 %
2523 07-05-2020 12:23:17 16.9 C 20 %
2524 07-05-2020 12:33:17 17 C 20 %
2525 07-05-2020 12:43:18 17 C 20 %
Sensor: Nr:Datum:Temp:Feuchte:
Aussen-T/F 2526 07-05-2020 12:53:17 17.3 C 20 %
2527 07-05-2020 13:03:17 17.5 C 20 %
2528 07-05-2020 13:13:17 17.6 C 20 %
2529 07-05-2020 13:23:17 17.6 C 20 %
2530 07-05-2020 13:33:17 18.2 C 20 %
2531 07-05-2020 13:43:17 18.5 C 20 %
2532 07-05-2020 13:54:17 20.1 C 20 %
2533 07-05-2020 14:03:17 23.3 C 20 %
2534 07-05-2020 14:13:17 25.2 C 20 %
2535 07-05-2020 14:23:17 27.5 C 20 %
2536 07-05-2020 14:33:17 28.2 C 20 %
2537 07-05-2020 14:43:17 28.7 C 20 %
2538 07-05-2020 14:54:17 28.4 C 20 %
2539 07-05-2020 15:03:18 28.7 C 20 %
2540 07-05-2020 15:13:18 27.9 C 20 %
2541 07-05-2020 15:23:17 28.5 C 20 %
2542 07-05-2020 15:33:18 30.2 C 20 %
2543 07-05-2020 15:43:18 29.3 C 20 %
2544 07-05-2020 15:53:17 30 C 20 %
2545 07-05-2020 16:03:17 30.1 C 20 %
2546 07-05-2020 16:13:17 31.3 C 20 %
2547 07-05-2020 16:24:17 28.8 C 20 %
2548 07-05-2020 16:33:17 29.5 C 20 %
2549 07-05-2020 16:43:17 31.1 C 20 %
2550 07-05-2020 16:54:17 31.3 C 20 %
Sensor: Nr:Datum:Temp:Feuchte:
Aussen-T/F 2551 07-05-2020 17:03:17 29 C 20 %
2552 07-05-2020 17:13:17 29.3 C 20 %
2553 07-05-2020 17:23:17 28.6 C 20 %
2554 07-05-2020 17:33:17 30.2 C 20 %
2555 07-05-2020 17:43:17 27.4 C 20 %
2556 07-05-2020 17:53:17 27.9 C 20 %
2557 07-05-2020 18:04:17 27.4 C 20 %
2558 07-05-2020 18:13:17 24.5 C 20 %
2559 07-05-2020 18:23:17 23.3 C 20 %
2560 07-05-2020 18:33:17 23.5 C 20 %
2561 07-05-2020 18:43:18 22.8 C 20 %
2562 07-05-2020 18:54:17 22.1 C 20 %
2563 07-05-2020 19:03:17 22.2 C 20 %
2564 07-05-2020 19:13:18 22.1 C 20 %
2565 07-05-2020 19:24:17 22 C 20 %
2566 07-05-2020 19:33:17 21.4 C 20 %
2567 07-05-2020 19:43:17 20.2 C 20 %
2568 07-05-2020 19:54:17 19.3 C 20 %
2569 07-05-2020 20:03:18 18.7 C 20 %
2570 07-05-2020 20:13:18 18.1 C 20 %
2571 07-05-2020 20:24:17 17.5 C 20 %
2572 07-05-2020 20:34:17 17.1 C 20 %
2573 07-05-2020 20:44:17 16.5 C 20 %
2574 07-05-2020 20:54:17 16.2 C 20 %
2575 07-05-2020 21:04:17 16 C 20 %
Sensor: Nr:Datum:Temp:Feuchte:
Aussen-T/F 2576 07-05-2020 21:14:17 15.4 C 21 %
2577 07-05-2020 21:24:17 15 C 22 %
2578 07-05-2020 21:34:17 14.6 C 25 %
2579 07-05-2020 21:43:17 14.2 C 25 %
2580 07-05-2020 21:54:17 13.7 C 26 %
2581 07-05-2020 22:04:17 13.2 C 27 %
2582 07-05-2020 22:14:17 13.2 C 27 %
2583 07-05-2020 22:24:17 12.8 C 30 %
2584 07-05-2020 22:34:17 12.3 C 30 %
2585 07-05-2020 22:44:17 12.3 C 30 %
2586 07-05-2020 22:53:18 12.2 C 30 %
2587 07-05-2020 23:04:17 11.7 C 31 %
2588 07-05-2020 23:14:17 11.4 C 31 %
2589 07-05-2020 23:24:17 11.4 C 30 %
2590 07-05-2020 23:34:17 11.6 C 31 %
2591 07-05-2020 23:44:17 11.2 C 32 %
2592 07-05-2020 23:54:17 11.1 C 32 %
2593 08-05-2020 00:04:17 10.7 C 33 %
2594 08-05-2020 00:14:17 10.4 C 33 %
2595 08-05-2020 00:24:17 10.2 C 33 %
2596 08-05-2020 00:34:17 9.7 C 35 %
2597 08-05-2020 00:44:17 9.6 C 35 %
2598 08-05-2020 00:54:17 9.4 C 35 %
2599 08-05-2020 01:04:17 9.4 C 35 %
2600 08-05-2020 01:14:17 9.6 C 35 %
Sensor: Nr:Datum:Temp:Feuchte:
Aussen-T/F 2601 08-05-2020 01:24:17 9.6 C 35 %
2602 08-05-2020 01:34:17 9.3 C 36 %
2603 08-05-2020 01:44:17 9.8 C 36 %
2604 08-05-2020 01:54:18 9.5 C 36 %
2605 08-05-2020 02:04:18 9.2 C 36 %
2606 08-05-2020 02:13:18 8.9 C 37 %
2607 08-05-2020 02:24:17 8.6 C 38 %
2608 08-05-2020 02:34:17 8.4 C 38 %
2609 08-05-2020 02:44:17 8.2 C 38 %
2610 08-05-2020 02:54:17 7.9 C 39 %
2611 08-05-2020 03:04:17 7.9 C 39 %
2612 08-05-2020 03:14:17 7.9 C 39 %
2613 08-05-2020 03:24:17 7.8 C 40 %
2614 08-05-2020 03:34:18 7.7 C 40 %
2615 08-05-2020 03:44:18 7.5 C 40 %
2616 08-05-2020 03:54:17 7.4 C 40 %
2617 08-05-2020 04:04:18 7.5 C 40 %
2618 08-05-2020 04:14:18 7 C 40 %
2619 08-05-2020 04:24:18 6.9 C 41 %
2620 08-05-2020 04:34:18 6.8 C 42 %
2621 08-05-2020 04:44:18 7 C 41 %
2622 08-05-2020 04:54:18 7.3 C 41 %
2623 08-05-2020 05:04:18 7.3 C 41 %
2624 08-05-2020 05:14:18 7.4 C 41 %
2625 08-05-2020 05:24:17 7.5 C 41 %
Sensor: Nr:Datum:Temp:Feuchte:
Aussen-T/F 2626 08-05-2020 05:34:17 7.2 C 41 %
2627 08-05-2020 05:44:17 7 C 41 %
2628 08-05-2020 05:54:18 7.1 C 41 %
2629 08-05-2020 06:04:17 6.9 C 42 %
2630 08-05-2020 06:14:17 6.9 C 42 %
2631 08-05-2020 06:24:17 6.8 C 42 %
2632 08-05-2020 06:34:17 6.7 C 43 %
2633 08-05-2020 06:44:17 6.4 C 42 %
2634 08-05-2020 06:54:17 6.3 C 43 %
2635 08-05-2020 07:04:17 6.5 C 43 %
2636 08-05-2020 07:14:17 6.9 C 44 %
2637 08-05-2020 07:24:17 7.3 C 42 %
2638 08-05-2020 07:34:18 7.3 C 41 %
2639 08-05-2020 07:44:18 7.4 C 42 %
2640 08-05-2020 07:54:17 7.9 C 41 %
2641 08-05-2020 08:04:17 8.2 C 40 %
2642 08-05-2020 08:14:17 8.4 C 40 %
2643 08-05-2020 08:24:17 8.4 C 40 %
2644 08-05-2020 08:34:17 8.5 C 40 %
2645 08-05-2020 08:44:17 8.7 C 40 %
2646 08-05-2020 08:54:17 9 C 40 %
2647 08-05-2020 09:04:17 9.5 C 39 %
2648 08-05-2020 09:14:17 10.2 C 37 %
2649 08-05-2020 09:24:17 10.7 C 37 %
2650 08-05-2020 09:34:17 11.1 C 36 %
Sensor: Nr:Datum:Temp:Feuchte:
Aussen-T/F 2651 08-05-2020 09:44:17 11.8 C 36 %
2652 08-05-2020 09:54:17 12.2 C 35 %
2653 08-05-2020 10:04:17 12.5 C 35 %
2654 08-05-2020 10:14:17 13.1 C 34 %
2655 08-05-2020 10:24:17 14 C 33 %
2656 08-05-2020 10:34:17 14.6 C 32 %
2657 08-05-2020 10:44:18 15.8 C 28 %
2658 08-05-2020 10:54:17 16.7 C 27 %
2659 08-05-2020 11:04:17 17.1 C 26 %
2660 08-05-2020 11:14:17 17.5 C 27 %
2661 08-05-2020 11:24:17 17.7 C 27 %
2662 08-05-2020 11:34:17 18.2 C 25 %
2663 08-05-2020 11:44:18 18.9 C 22 %
2664 08-05-2020 11:54:17 19 C 21 %
2665 08-05-2020 12:04:17 19.3 C 20 %
2666 08-05-2020 12:14:18 19.4 C 20 %
2667 08-05-2020 12:24:17 19.5 C 20 %
2668 08-05-2020 12:34:17 19.8 C 20 %
2669 08-05-2020 12:44:17 20 C 20 %
2670 08-05-2020 12:54:17 20.3 C 20 %
2671 08-05-2020 13:04:16 20.7 C 20 %
2672 08-05-2020 13:14:16 21.4 C 20 %
2673 08-05-2020 13:24:17 21.9 C 20 %
2674 08-05-2020 13:34:17 22.3 C 20 %
2675 08-05-2020 13:44:17 22.5 C 20 %
Sensor: Nr:Datum:Temp:Feuchte:
Aussen-T/F 2676 08-05-2020 13:54:16 24 C 20 %
2677 08-05-2020 14:04:17 26.1 C 20 %
2678 08-05-2020 14:14:17 27.5 C 20 %
2679 08-05-2020 14:24:17 28.2 C 20 %
2680 08-05-2020 14:34:16 30 C 20 %
2681 08-05-2020 14:44:16 27.5 C 20 %
2682 08-05-2020 14:54:17 27.3 C 20 %
2683 08-05-2020 15:04:17 26 C 20 %
2684 08-05-2020 15:14:18 25.2 C 20 %
2685 08-05-2020 15:24:17 25.8 C 20 %
2686 08-05-2020 15:34:16 27.1 C 20 %
2687 08-05-2020 15:44:16 28.3 C 20 %
2688 08-05-2020 15:54:17 30.6 C 20 %
2689 08-05-2020 16:04:17 31.3 C 20 %
2690 08-05-2020 16:14:17 29.3 C 20 %
2691 08-05-2020 16:24:17 32 C 20 %
2692 08-05-2020 16:34:16 30.5 C 20 %
2693 08-05-2020 16:44:16 27.4 C 20 %
2694 08-05-2020 16:54:16 26.3 C 20 %
2695 08-05-2020 17:04:17 26.8 C 20 %
2696 08-05-2020 17:14:17 26.3 C 20 %
2697 08-05-2020 17:24:16 28.5 C 20 %
2698 08-05-2020 17:34:16 26.8 C 20 %
2699 08-05-2020 17:44:16 28.8 C 20 %
2700 08-05-2020 17:54:16 27.5 C 20 %
Sensor: Nr:Datum:Temp:Feuchte:
Aussen-T/F 2701 08-05-2020 18:04:17 26.5 C 20 %
2702 08-05-2020 18:14:17 25.5 C 20 %
2703 08-05-2020 18:24:16 25.1 C 20 %
2704 08-05-2020 18:34:17 25.1 C 20 %
2705 08-05-2020 18:44:18 24.4 C 20 %
2706 08-05-2020 18:54:16 24 C 20 %
2707 08-05-2020 19:04:16 23.5 C 20 %
2708 08-05-2020 19:14:16 23.7 C 20 %
2709 08-05-2020 19:24:16 23.6 C 20 %
2710 08-05-2020 19:34:16 22.9 C 20 %
2711 08-05-2020 19:44:16 22.4 C 20 %
2712 08-05-2020 19:54:16 21.6 C 20 %
2713 08-05-2020 20:04:17 19.7 C 20 %
2714 08-05-2020 20:14:17 18.8 C 20 %
2715 08-05-2020 20:24:16 18.5 C 20 %
2716 08-05-2020 20:34:17 18.2 C 20 %
2717 08-05-2020 20:44:17 17.7 C 20 %
2718 08-05-2020 20:54:17 17.3 C 20 %
2719 08-05-2020 21:04:17 17.1 C 20 %
2720 08-05-2020 21:14:17 16.9 C 20 %
2721 08-05-2020 21:24:16 16.4 C 21 %
2722 08-05-2020 21:34:16 16 C 22 %
2723 08-05-2020 21:44:16 15.7 C 24 %
2724 08-05-2020 21:54:16 15.2 C 25 %
2725 08-05-2020 22:04:17 14.9 C 26 %
Sensor: Nr:Datum:Temp:Feuchte:
Aussen-T/F 2726 08-05-2020 22:14:17 15 C 26 %
2727 08-05-2020 22:24:16 14.9 C 27 %
2728 08-05-2020 22:34:16 14.7 C 27 %
2729 08-05-2020 22:44:16 14.3 C 28 %
2730 08-05-2020 22:54:16 14.1 C 27 %
2731 08-05-2020 23:04:17 14 C 27 %
2732 08-05-2020 23:14:17 13.7 C 28 %
2733 08-05-2020 23:24:16 13.6 C 29 %
2734 08-05-2020 23:34:16 13.3 C 29 %
2735 08-05-2020 23:44:16 13.2 C 29 %
2736 08-05-2020 23:54:16 13.3 C 29 %
2737 09-05-2020 00:04:16 12.7 C 30 %
2738 09-05-2020 00:14:16 12.4 C 30 %
2739 09-05-2020 00:24:16 12 C 31 %
2740 09-05-2020 00:34:16 11.8 C 32 %
2741 09-05-2020 00:44:16 11.7 C 32 %
2742 09-05-2020 00:54:16 11.4 C 32 %
2743 09-05-2020 01:04:16 11.7 C 32 %
2744 09-05-2020 01:14:16 11.7 C 32 %
2745 09-05-2020 01:24:16 11.6 C 32 %
2746 09-05-2020 01:34:16 11.6 C 32 %
2747 09-05-2020 01:44:16 11.5 C 33 %
2748 09-05-2020 01:54:16 11.6 C 34 %
2749 09-05-2020 02:04:16 11.7 C 34 %
2750 09-05-2020 02:14:16 12 C 33 %
Sensor: Nr:Datum:Temp:Feuchte:
Aussen-T/F 2751 09-05-2020 02:24:16 12 C 32 %
2752 09-05-2020 02:34:16 11.8 C 34 %
2753 09-05-2020 02:44:16 11.4 C 35 %
2754 09-05-2020 02:54:17 11.4 C 35 %
2755 09-05-2020 03:04:17 11.4 C 35 %
2756 09-05-2020 03:14:17 11.2 C 35 %
2757 09-05-2020 03:24:17 10.8 C 36 %
2758 09-05-2020 03:34:17 10.6 C 36 %
2759 09-05-2020 03:44:17 10.2 C 37 %
2760 09-05-2020 03:54:17 10.1 C 36 %
2761 09-05-2020 04:04:17 9.9 C 37 %
2762 09-05-2020 04:14:17 9.5 C 37 %
2763 09-05-2020 04:24:17 9.4 C 37 %
2764 09-05-2020 04:34:18 9.3 C 37 %
2765 09-05-2020 04:44:18 9 C 37 %
2766 09-05-2020 04:54:18 9 C 39 %
2767 09-05-2020 05:04:17 9 C 39 %
2768 09-05-2020 05:14:17 9 C 39 %
2769 09-05-2020 05:24:17 8.8 C 39 %
2770 09-05-2020 05:34:18 9 C 40 %
2771 09-05-2020 05:44:18 9 C 40 %
2772 09-05-2020 05:54:17 9.2 C 40 %
2773 09-05-2020 06:04:18 9.4 C 39 %
2774 09-05-2020 06:14:18 9.7 C 39 %
2775 09-05-2020 06:24:17 10.2 C 38 %
Sensor: Nr:Datum:Temp:Feuchte:
Aussen-T/F 2776 09-05-2020 06:34:17 10.5 C 37 %
2777 09-05-2020 06:44:17 10.7 C 37 %
2778 09-05-2020 06:54:17 10.9 C 38 %
2779 09-05-2020 07:04:18 11.1 C 36 %
2780 09-05-2020 07:14:18 11.3 C 36 %
2781 09-05-2020 07:24:17 11.5 C 36 %
2782 09-05-2020 07:34:17 11.5 C 36 %
2783 09-05-2020 07:44:17 12 C 35 %
2784 09-05-2020 07:54:17 12.2 C 35 %
2785 09-05-2020 08:04:18 12.3 C 35 %
2786 09-05-2020 08:14:18 12.6 C 35 %
2787 09-05-2020 08:24:17 13.2 C 33 %
2788 09-05-2020 08:34:17 13.9 C 32 %
2789 09-05-2020 08:44:17 14.3 C 31 %
2790 09-05-2020 08:54:17 14.8 C 31 %
2791 09-05-2020 09:04:17 15.3 C 30 %
2792 09-05-2020 09:14:17 16 C 30 %
2793 09-05-2020 09:24:17 16.3 C 30 %
2794 09-05-2020 09:34:17 16 C 29 %
2795 09-05-2020 09:44:17 16.2 C 29 %
2796 09-05-2020 09:54:17 16.7 C 27 %
2797 09-05-2020 10:04:17 17.3 C 25 %
2798 09-05-2020 10:14:17 17.7 C 25 %
2799 09-05-2020 10:24:17 18.1 C 25 %
2800 09-05-2020 10:34:17 18.8 C 22 %
Sensor: Nr:Datum:Temp:Feuchte:
Aussen-T/F 2801 09-05-2020 10:44:17 18.4 C 22 %
2802 09-05-2020 10:54:17 18.9 C 22 %
2803 09-05-2020 11:04:17 19 C 22 %
2804 09-05-2020 11:14:17 18.9 C 22 %
2805 09-05-2020 11:24:17 19.4 C 21 %
2806 09-05-2020 11:34:17 19.5 C 21 %
2807 09-05-2020 11:44:17 19.3 C 20 %
2808 09-05-2020 11:54:17 19.6 C 20 %
2809 09-05-2020 12:04:17 19.9 C 21 %
2810 09-05-2020 12:14:17 20.9 C 20 %
2811 09-05-2020 12:24:17 22.3 C 20 %
2812 09-05-2020 12:34:17 23 C 20 %
2813 09-05-2020 12:44:17 23.6 C 20 %
2814 09-05-2020 12:54:17 22.8 C 20 %
2815 09-05-2020 13:04:18 22.9 C 20 %
2816 09-05-2020 13:14:18 23 C 20 %
2817 09-05-2020 13:24:17 23.9 C 20 %
2818 09-05-2020 13:34:17 23.6 C 20 %
2819 09-05-2020 13:44:17 24.1 C 20 %
2820 09-05-2020 13:54:17 24.5 C 20 %
2821 09-05-2020 14:04:17 23.5 C 20 %
2822 09-05-2020 14:14:17 23.4 C 20 %
2823 09-05-2020 14:24:17 23.3 C 20 %
2824 09-05-2020 14:34:17 21.7 C 20 %
2825 09-05-2020 14:44:17 20.7 C 20 %
Sensor: Nr:Datum:Temp:Feuchte:
Aussen-T/F 2826 09-05-2020 14:54:17 20.7 C 20 %
2827 09-05-2020 15:04:17 19.9 C 21 %
2828 09-05-2020 15:14:17 20 C 21 %
2829 09-05-2020 15:24:17 19.1 C 25 %
2830 09-05-2020 15:34:17 19.7 C 25 %
2831 09-05-2020 15:44:17 21.3 C 22 %
2832 09-05-2020 15:54:17 21.9 C 21 %
2833 09-05-2020 16:04:17 21.6 C 21 %
2834 09-05-2020 16:14:17 21.6 C 22 %
2835 09-05-2020 16:24:17 22.1 C 21 %
2836 09-05-2020 16:34:17 21.4 C 21 %
2837 09-05-2020 16:44:17 21.8 C 21 %
2838 09-05-2020 16:54:17 21.8 C 21 %
2839 09-05-2020 17:04:17 22 C 20 %
2840 09-05-2020 17:14:17 22.4 C 20 %
2841 09-05-2020 17:24:17 22.6 C 20 %
2842 09-05-2020 17:34:17 22.7 C 20 %
2843 09-05-2020 17:44:17 22.2 C 21 %
2844 09-05-2020 17:54:17 23.3 C 20 %
2845 09-05-2020 18:04:18 25 C 20 %
2846 09-05-2020 18:14:18 23.9 C 20 %
2847 09-05-2020 18:24:17 22 C 20 %
2848 09-05-2020 18:34:17 22.1 C 21 %
2849 09-05-2020 18:44:17 21.5 C 21 %
2850 09-05-2020 18:54:17 21.5 C 22 %
Sensor: Nr:Datum:Temp:Feuchte:
Aussen-T/F 2851 09-05-2020 19:04:17 21.3 C 21 %
2852 09-05-2020 19:14:18 21.1 C 22 %
2853 09-05-2020 19:24:17 21.1 C 22 %
2854 09-05-2020 19:34:17 20.8 C 23 %
2855 09-05-2020 19:44:17 20.5 C 23 %
2856 09-05-2020 19:54:17 20.4 C 24 %
2857 09-05-2020 20:04:18 20 C 25 %
2858 09-05-2020 20:14:18 19.7 C 27 %
2859 09-05-2020 20:24:17 19.2 C 28 %
2860 09-05-2020 20:34:17 18.7 C 29 %
2861 09-05-2020 20:44:17 18.2 C 30 %
2862 09-05-2020 20:54:17 17.4 C 31 %
2863 09-05-2020 21:04:17 16.3 C 33 %
2864 09-05-2020 21:14:17 15.8 C 35 %
2865 09-05-2020 21:24:17 15.1 C 35 %
2866 09-05-2020 21:34:17 15.1 C 36 %
2867 09-05-2020 21:44:17 15.3 C 35 %
2868 09-05-2020 21:54:17 15 C 35 %
2869 09-05-2020 22:04:17 14.7 C 36 %
2870 09-05-2020 22:14:17 14.6 C 36 %
2871 09-05-2020 22:24:17 14.3 C 36 %
2872 09-05-2020 22:34:17 14.1 C 36 %
2873 09-05-2020 22:44:17 13.8 C 37 %
2874 09-05-2020 22:54:18 13.6 C 37 %
2875 09-05-2020 23:04:18 13.5 C 38 %
Sensor: Nr:Datum:Temp:Feuchte:
Aussen-T/F 2876 09-05-2020 23:14:18 13.3 C 38 %
2877 09-05-2020 23:24:17 13.3 C 39 %
2878 09-05-2020 23:34:18 12.8 C 40 %
2879 09-05-2020 23:44:18 12.7 C 40 %
2880 09-05-2020 23:54:18 12.4 C 41 %
2881 10-05-2020 00:04:18 12.3 C 41 %
2882 10-05-2020 00:14:18 12.2 C 41 %
2883 10-05-2020 00:24:17 12 C 41 %
2884 10-05-2020 00:34:17 12 C 41 %
2885 10-05-2020 00:44:17 11.7 C 41 %
2886 10-05-2020 00:54:17 11.4 C 41 %
2887 10-05-2020 01:04:18 11.4 C 41 %
2888 10-05-2020 01:14:18 11.4 C 41 %
2889 10-05-2020 01:24:17 11.2 C 41 %
2890 10-05-2020 01:34:17 11.2 C 42 %
2891 10-05-2020 01:44:18 11.4 C 42 %
2892 10-05-2020 01:54:17 11.7 C 42 %
2893 10-05-2020 02:04:17 11.2 C 41 %
2894 10-05-2020 02:14:17 11 C 42 %
2895 10-05-2020 02:24:17 11 C 42 %
2896 10-05-2020 02:34:17 10.8 C 43 %
2897 10-05-2020 02:44:17 10.7 C 43 %
2898 10-05-2020 02:54:17 10.5 C 43 %
2899 10-05-2020 03:04:17 10.5 C 44 %
2900 10-05-2020 03:14:17 10.5 C 44 %
Sensor: Nr:Datum:Temp:Feuchte:
Aussen-T/F 2901 10-05-2020 03:24:17 10.4 C 44 %
2902 10-05-2020 03:34:18 10.8 C 45 %
2903 10-05-2020 03:44:18 10.7 C 45 %
2904 10-05-2020 03:54:17 10.7 C 44 %
2905 10-05-2020 04:04:18 10.7 C 45 %
2906 10-05-2020 04:14:18 10.8 C 45 %
2907 10-05-2020 04:24:17 10.8 C 45 %
2908 10-05-2020 04:34:18 10.5 C 45 %
2909 10-05-2020 04:44:18 10.4 C 45 %
2910 10-05-2020 04:54:17 10.4 C 45 %
2911 10-05-2020 05:04:17 10.8 C 45 %
2912 10-05-2020 05:14:17 10.7 C 45 %
2913 10-05-2020 05:24:17 10.7 C 45 %
2914 10-05-2020 05:34:17 10.8 C 45 %
2915 10-05-2020 05:44:17 10.9 C 45 %
2916 10-05-2020 05:54:18 10.9 C 44 %
2917 10-05-2020 06:04:17 10.9 C 45 %
2918 10-05-2020 06:14:17 11 C 43 %
2919 10-05-2020 06:24:17 11 C 44 %
2920 10-05-2020 06:34:17 11 C 44 %
2921 10-05-2020 06:44:18 11 C 44 %
2922 10-05-2020 06:54:17 11.1 C 44 %
2923 10-05-2020 07:04:17 11.3 C 44 %
2924 10-05-2020 07:14:17 11.3 C 44 %
2925 10-05-2020 07:24:17 11.4 C 44 %
Sensor: Nr:Datum:Temp:Feuchte:
Aussen-T/F 2926 10-05-2020 07:34:17 11.5 C 44 %
2927 10-05-2020 07:44:17 11.6 C 44 %
2928 10-05-2020 07:54:17 11.7 C 44 %
2929 10-05-2020 08:04:17 11.9 C 43 %
2930 10-05-2020 08:14:17 12.1 C 42 %
2931 10-05-2020 08:24:17 12.3 C 41 %
2932 10-05-2020 08:34:18 12.3 C 41 %
2933 10-05-2020 08:44:18 12.3 C 41 %
2934 10-05-2020 08:54:17 12.5 C 41 %
2935 10-05-2020 09:04:17 12.7 C 41 %
2936 10-05-2020 09:14:17 13 C 40 %
2937 10-05-2020 09:24:17 13.1 C 38 %
2938 10-05-2020 09:34:17 13.7 C 38 %
2939 10-05-2020 09:44:17 13.7 C 38 %
2940 10-05-2020 09:54:17 14 C 37 %
2941 10-05-2020 10:04:17 14.4 C 37 %
2942 10-05-2020 10:14:17 15.6 C 36 %
2943 10-05-2020 10:24:17 15.7 C 36 %
2944 10-05-2020 10:34:17 16.6 C 35 %
2945 10-05-2020 10:44:17 16.8 C 35 %
2946 10-05-2020 10:54:17 17.4 C 34 %
2947 10-05-2020 11:04:17 18.9 C 32 %
2948 10-05-2020 11:14:17 19.6 C 32 %
2949 10-05-2020 11:24:17 19.6 C 30 %
2950 10-05-2020 11:34:17 20.3 C 30 %
Sensor: Nr:Datum:Temp:Feuchte:
Aussen-T/F 2951 10-05-2020 11:44:17 20.6 C 29 %
2952 10-05-2020 11:54:17 21.4 C 28 %
2953 10-05-2020 12:04:18 20.5 C 29 %
2954 10-05-2020 12:14:18 20.9 C 30 %
2955 10-05-2020 12:24:18 21.2 C 28 %
2956 10-05-2020 12:34:17 21.6 C 28 %
2957 10-05-2020 12:44:17 21.8 C 28 %
2958 10-05-2020 12:54:17 22.4 C 26 %
2959 10-05-2020 13:04:17 22.3 C 27 %
2960 10-05-2020 13:14:17 21.8 C 28 %
2961 10-05-2020 13:24:17 22.8 C 27 %
2962 10-05-2020 13:34:17 22.5 C 26 %
2963 10-05-2020 13:44:17 22.6 C 27 %
2964 10-05-2020 13:54:17 23.7 C 25 %
2965 10-05-2020 14:04:17 23.8 C 25 %
2966 10-05-2020 14:14:17 24 C 24 %
2967 10-05-2020 14:24:18 23.6 C 25 %
2968 10-05-2020 14:34:17 24.2 C 24 %
2969 10-05-2020 14:44:17 23.7 C 25 %
2970 10-05-2020 14:54:18 22.1 C 26 %
2971 10-05-2020 15:04:17 21.8 C 27 %
2972 10-05-2020 15:14:17 21.7 C 27 %
2973 10-05-2020 15:24:17 22.6 C 25 %
2974 10-05-2020 15:34:18 22.5 C 25 %
2975 10-05-2020 15:44:18 21.5 C 26 %
Sensor: Nr:Datum:Temp:Feuchte:
Aussen-T/F 2976 10-05-2020 15:54:17 21.9 C 26 %
2977 10-05-2020 16:04:17 21.4 C 26 %
2978 10-05-2020 16:14:17 18.8 C 34 %
2979 10-05-2020 16:24:17 19.2 C 33 %
2980 10-05-2020 16:34:18 19.9 C 32 %
2981 10-05-2020 16:44:18 16.9 C 35 %
2982 10-05-2020 16:54:17 16 C 37 %
2983 10-05-2020 17:04:18 19 C 35 %
2984 10-05-2020 17:14:18 22.7 C 26 %
2985 10-05-2020 17:24:17 22.5 C 26 %
2986 10-05-2020 17:34:17 23.1 C 26 %
2987 10-05-2020 17:44:18 21.7 C 27 %
2988 10-05-2020 17:54:17 22.5 C 26 %
2989 10-05-2020 18:04:17 20.2 C 30 %
2990 10-05-2020 18:14:17 19.4 C 31 %
2991 10-05-2020 18:24:17 19.3 C 32 %
2992 10-05-2020 18:34:17 19.2 C 32 %
2993 10-05-2020 18:44:17 19.7 C 32 %
2994 10-05-2020 18:54:17 19.5 C 32 %
2995 10-05-2020 19:04:18 19 C 32 %
2996 10-05-2020 19:14:18 18.9 C 33 %
2997 10-05-2020 19:24:17 18.7 C 33 %
2998 10-05-2020 19:34:17 18.3 C 34 %
2999 10-05-2020 19:44:17 18 C 35 %
3000 10-05-2020 19:54:17 17.7 C 35 %
Sensor: Nr:Datum:Temp:Feuchte:
Aussen-T/F 3001 10-05-2020 20:04:17 17.6 C 36 %
3002 10-05-2020 20:14:17 17.4 C 37 %
3003 10-05-2020 20:24:17 17.2 C 37 %
3004 10-05-2020 20:34:17 17.1 C 37 %
3005 10-05-2020 20:44:18 17.1 C 37 %
3006 10-05-2020 20:54:18 16.8 C 38 %
3007 10-05-2020 21:04:18 16.5 C 38 %
3008 10-05-2020 21:14:18 16.4 C 39 %
3009 10-05-2020 21:24:17 16.1 C 40 %
3010 10-05-2020 21:34:17 16.2 C 39 %
3011 10-05-2020 21:44:17 16 C 39 %
3012 10-05-2020 21:54:17 15.9 C 40 %
3013 10-05-2020 22:04:17 15.8 C 40 %
3014 10-05-2020 22:14:17 15.7 C 40 %
3015 10-05-2020 22:24:17 15.5 C 40 %
3016 10-05-2020 22:34:18 15.5 C 40 %
3017 10-05-2020 22:44:18 15.4 C 40 %
3018 10-05-2020 22:54:17 15.7 C 39 %
3019 10-05-2020 23:04:17 16 C 38 %
3020 10-05-2020 23:14:17 15.7 C 39 %
3021 10-05-2020 23:24:17 15.6 C 39 %
3022 10-05-2020 23:34:17 15.6 C 40 %
3023 10-05-2020 23:44:17 15.7 C 40 %
3024 10-05-2020 23:54:17 15.9 C 39 %
3025 11-05-2020 00:04:17 16.2 C 38 %
Sensor: Nr:Datum:Temp:Feuchte:
Aussen-T/F 3026 11-05-2020 00:14:17 16.2 C 38 %
3027 11-05-2020 00:24:17 16 C 37 %
3028 11-05-2020 00:34:18 15.9 C 37 %
3029 11-05-2020 00:44:18 15.5 C 36 %
3030 11-05-2020 00:54:17 15.3 C 36 %
3031 11-05-2020 01:04:17 14.8 C 36 %
3032 11-05-2020 01:14:17 14.5 C 36 %
3033 11-05-2020 01:24:17 14.3 C 36 %
3034 11-05-2020 01:34:18 14 C 36 %
3035 11-05-2020 01:44:18 13.7 C 36 %
3036 11-05-2020 01:54:18 13.4 C 36 %
3037 11-05-2020 02:04:18 13.1 C 36 %
3038 11-05-2020 02:14:18 12.7 C 37 %
3039 11-05-2020 02:24:18 12.5 C 37 %
3040 11-05-2020 02:34:17 12.1 C 37 %
3041 11-05-2020 02:44:17 11.7 C 38 %
3042 11-05-2020 02:54:17 11.3 C 37 %
3043 11-05-2020 03:04:18 11.1 C 37 %
3044 11-05-2020 03:14:18 11.1 C 37 %
3045 11-05-2020 03:24:18 10.8 C 38 %
3046 11-05-2020 03:34:18 10.3 C 37 %
3047 11-05-2020 03:44:18 9.8 C 39 %
3048 11-05-2020 03:54:17 9.3 C 40 %
3049 11-05-2020 04:04:17 8.8 C 41 %
3050 11-05-2020 04:14:17 8.5 C 42 %
Sensor: Nr:Datum:Temp:Feuchte:
Aussen-T/F 3051 11-05-2020 04:24:18 8.2 C 42 %
3052 11-05-2020 04:34:18 7.8 C 45 %
3053 11-05-2020 04:44:18 7.8 C 45 %
3054 11-05-2020 04:54:17 7.4 C 44 %
3055 11-05-2020 05:04:17 7.2 C 44 %
3056 11-05-2020 05:14:17 7.1 C 44 %
3057 11-05-2020 05:24:17 6.8 C 44 %
3058 11-05-2020 05:34:17 6.7 C 45 %
3059 11-05-2020 05:44:18 6.5 C 45 %
3060 11-05-2020 05:54:17 6.2 C 44 %
3061 11-05-2020 06:04:17 6.2 C 44 %
3062 11-05-2020 06:14:17 6.2 C 44 %
3063 11-05-2020 06:24:17 6.2 C 45 %
3064 11-05-2020 06:34:17 6.2 C 45 %
3065 11-05-2020 06:44:17 6.3 C 46 %
3066 11-05-2020 06:54:18 6.2 C 45 %
3067 11-05-2020 07:04:17 5.8 C 43 %
3068 11-05-2020 07:14:17 5.5 C 43 %
3069 11-05-2020 07:24:17 5.5 C 43 %
3070 11-05-2020 07:34:17 5.4 C 44 %
3071 11-05-2020 07:44:17 5.4 C 45 %
3072 11-05-2020 07:54:17 5.3 C 45 %
3073 11-05-2020 08:04:17 5.5 C 46 %
3074 11-05-2020 08:14:17 5.2 C 45 %
3075 11-05-2020 08:24:17 5.2 C 44 %
Sensor: Nr:Datum:Temp:Feuchte:
Aussen-T/F 3076 11-05-2020 08:34:17 5.1 C 45 %
3077 11-05-2020 08:44:17 5.2 C 45 %
3078 11-05-2020 08:54:17 5 C 43 %
3079 11-05-2020 09:04:17 4.8 C 43 %
3080 11-05-2020 09:14:17 4.8 C 42 %
3081 11-05-2020 09:24:17 4.6 C 41 %
3082 11-05-2020 09:34:17 4.6 C 41 %
3083 11-05-2020 09:44:17 4.6 C 41 %
3084 11-05-2020 09:54:17 4.7 C 41 %
3085 11-05-2020 10:04:17 5 C 40 %
3086 11-05-2020 10:14:17 5.3 C 40 %
3087 11-05-2020 10:24:18 5.4 C 40 %
3088 11-05-2020 10:34:17 5.7 C 40 %
3089 11-05-2020 10:44:17 5.7 C 39 %
3090 11-05-2020 10:54:17 5.9 C 38 %
3091 11-05-2020 11:04:17 5.8 C 37 %
3092 11-05-2020 11:14:17 5.9 C 38 %
3093 11-05-2020 11:24:17 5.9 C 37 %
3094 11-05-2020 11:34:17 5.9 C 38 %
3095 11-05-2020 11:44:17 6.2 C 37 %
3096 11-05-2020 11:54:17 6.2 C 37 %
3097 11-05-2020 12:04:17 6.4 C 37 %
3098 11-05-2020 12:14:17 6.5 C 36 %
3099 11-05-2020 12:24:17 6.6 C 36 %
3100 11-05-2020 12:34:17 6.8 C 36 %
Sensor: Nr:Datum:Temp:Feuchte:
Aussen-T/F 3101 11-05-2020 12:44:17 6.9 C 36 %
3102 11-05-2020 12:54:17 7.2 C 35 %
3103 11-05-2020 13:04:17 7.3 C 35 %
3104 11-05-2020 13:14:17 7.4 C 33 %
3105 11-05-2020 13:24:17 7.7 C 33 %
3106 11-05-2020 13:34:17 8 C 32 %
3107 11-05-2020 13:44:17 8.4 C 31 %
3108 11-05-2020 13:54:17 8.6 C 30 %
3109 11-05-2020 14:04:18 8.8 C 30 %
3110 11-05-2020 14:14:18 8.9 C 30 %
3111 11-05-2020 14:24:17 9.2 C 28 %
3112 11-05-2020 14:34:17 9.7 C 27 %
3113 11-05-2020 14:44:17 10.3 C 26 %
3114 11-05-2020 14:54:17 10.7 C 25 %
3115 11-05-2020 15:04:17 11.8 C 24 %
3116 11-05-2020 15:14:17 13.8 C 20 %
3117 11-05-2020 15:24:17 12.4 C 20 %
3118 11-05-2020 15:34:18 11.8 C 20 %
3119 11-05-2020 15:44:18 13.5 C 20 %
3120 11-05-2020 15:54:17 14.2 C 20 %
3121 11-05-2020 16:04:17 14.5 C 20 %
3122 11-05-2020 16:14:17 12.6 C 20 %
3123 11-05-2020 16:24:17 14.5 C 20 %
3124 11-05-2020 16:34:17 13.3 C 20 %
3125 11-05-2020 16:44:17 14 C 20 %
Sensor: Nr:Datum:Temp:Feuchte:
Aussen-T/F 3126 11-05-2020 16:54:18 13.2 C 20 %
3127 11-05-2020 17:04:17 13 C 20 %
3128 11-05-2020 17:14:17 15 C 20 %
3129 11-05-2020 17:24:18 12.6 C 20 %
3130 11-05-2020 17:34:18 12.2 C 20 %
3131 11-05-2020 17:44:18 12.5 C 20 %
3132 11-05-2020 17:54:17 12.6 C 20 %
3133 11-05-2020 18:04:17 11.9 C 20 %
3134 11-05-2020 18:14:17 11.7 C 20 %
3135 11-05-2020 18:24:18 11.8 C 20 %
3136 11-05-2020 18:34:17 11.5 C 20 %
3137 11-05-2020 18:44:17 11.4 C 20 %
3138 11-05-2020 18:54:17 11.2 C 20 %
3139 11-05-2020 19:04:17 11.4 C 20 %
3140 11-05-2020 19:14:17 11.7 C 20 %
3141 11-05-2020 19:24:17 11.7 C 20 %
3142 11-05-2020 19:34:17 11.4 C 20 %
3143 11-05-2020 19:44:17 11 C 20 %
3144 11-05-2020 19:54:17 11 C 20 %
3145 11-05-2020 20:04:18 11 C 20 %
3146 11-05-2020 20:14:18 11.1 C 20 %
3147 11-05-2020 20:24:17 10.6 C 20 %
3148 11-05-2020 20:34:17 10.2 C 20 %
3149 11-05-2020 20:44:17 9.9 C 20 %
3150 11-05-2020 20:54:18 9.6 C 20 %
Sensor: Nr:Datum:Temp:Feuchte:
Aussen-T/F 3151 11-05-2020 21:04:17 9.5 C 20 %
3152 11-05-2020 21:14:17 9.6 C 20 %
3153 11-05-2020 21:24:17 9.6 C 20 %
3154 11-05-2020 21:34:17 9.6 C 20 %
3155 11-05-2020 21:44:17 9.4 C 20 %
3156 11-05-2020 21:54:17 9.2 C 20 %
3157 11-05-2020 22:04:18 9.1 C 20 %
3158 11-05-2020 22:14:18 9 C 20 %
3159 11-05-2020 22:24:17 9 C 20 %
3160 11-05-2020 22:34:18 8.9 C 21 %
3161 11-05-2020 22:44:18 8.2 C 27 %
3162 11-05-2020 22:54:18 7.6 C 29 %
3163 11-05-2020 23:04:17 7.1 C 30 %
3164 11-05-2020 23:14:18 7.2 C 30 %
3165 11-05-2020 23:24:17 7.1 C 30 %
3166 11-05-2020 23:34:17 7 C 30 %
3167 11-05-2020 23:44:17 6.3 C 32 %
3168 11-05-2020 23:54:18 5.3 C 34 %
3169 12-05-2020 00:04:17 5.3 C 33 %
3170 12-05-2020 00:14:17 5.1 C 33 %
3171 12-05-2020 00:24:17 4.8 C 35 %
3172 12-05-2020 00:34:17 4.5 C 35 %
3173 12-05-2020 00:44:17 4.3 C 35 %
3174 12-05-2020 00:54:17 4.3 C 35 %
3175 12-05-2020 01:04:17 4.3 C 35 %
Sensor: Nr:Datum:Temp:Feuchte:
Aussen-T/F 3176 12-05-2020 01:14:17 4 C 35 %
3177 12-05-2020 01:24:18 3.6 C 36 %
3178 12-05-2020 01:34:17 3.7 C 36 %
3179 12-05-2020 01:44:17 3.7 C 36 %
3180 12-05-2020 01:54:17 4 C 35 %
3181 12-05-2020 02:04:18 4.4 C 33 %
3182 12-05-2020 02:14:18 3.8 C 35 %
3183 12-05-2020 02:24:18 4.2 C 33 %
3184 12-05-2020 02:34:17 3.6 C 35 %
3185 12-05-2020 02:44:17 3.2 C 36 %
3186 12-05-2020 02:54:17 2.8 C 37 %
3187 12-05-2020 03:04:18 2.7 C 38 %
3188 12-05-2020 03:14:18 2.5 C 38 %
3189 12-05-2020 03:24:18 2.5 C 38 %
3190 12-05-2020 03:34:17 2.6 C 38 %
3191 12-05-2020 03:44:17 2.6 C 38 %
3192 12-05-2020 03:54:17 2.4 C 38 %
3193 12-05-2020 04:04:18 2.4 C 38 %
3194 12-05-2020 04:14:18 2.3 C 38 %
3195 12-05-2020 04:24:17 2.2 C 38 %
3196 12-05-2020 04:34:17 2.1 C 38 %
3197 12-05-2020 04:44:17 2.1 C 38 %
3198 12-05-2020 04:54:17 2.1 C 38 %
3199 12-05-2020 05:04:17 1.8 C 40 %
3200 12-05-2020 05:14:17 1.8 C 40 %
Sensor: Nr:Datum:Temp:Feuchte:
Aussen-T/F 3201 12-05-2020 05:24:17 1.1 C 41 %
3202 12-05-2020 05:34:17 1.2 C 41 %
3203 12-05-2020 05:44:17 0.8 C 42 %
3204 12-05-2020 05:54:18 0.5 C 44 %
3205 12-05-2020 06:04:17 0.3 C 45 %
3206 12-05-2020 06:14:17 0.1 C 45 %
3207 12-05-2020 06:24:17 0.2 C 45 %
3208 12-05-2020 06:34:18 0.2 C 46 %
3209 12-05-2020 06:44:18 0.3 C 45 %
3210 12-05-2020 06:54:17 0.3 C 46 %
3211 12-05-2020 07:04:17 0.5 C 46 %
3212 12-05-2020 07:14:17 0.7 C 46 %
3213 12-05-2020 07:24:18 0.7 C 46 %
3214 12-05-2020 07:34:17 0.9 C 46 %
3215 12-05-2020 07:44:17 1.5 C 44 %
3216 12-05-2020 07:54:17 1.8 C 43 %
3217 12-05-2020 08:04:17 2.1 C 42 %
3218 12-05-2020 08:14:17 2.2 C 42 %
3219 12-05-2020 08:24:17 2.5 C 42 %
3220 12-05-2020 08:34:17 2.7 C 42 %
3221 12-05-2020 08:44:17 3.1 C 41 %
3222 12-05-2020 08:54:17 3.6 C 40 %
3223 12-05-2020 09:04:17 3.8 C 40 %
3224 12-05-2020 09:14:17 4.4 C 39 %
3225 12-05-2020 09:24:17 5 C 37 %
Sensor: Nr:Datum:Temp:Feuchte:
Aussen-T/F 3226 12-05-2020 09:34:17 5.8 C 35 %
3227 12-05-2020 09:44:17 6.5 C 35 %
3228 12-05-2020 09:54:17 6.9 C 34 %
3229 12-05-2020 10:04:17 7.2 C 32 %
3230 12-05-2020 10:14:17 7.4 C 31 %
3231 12-05-2020 10:24:17 7.7 C 31 %
3232 12-05-2020 10:34:17 8.4 C 29 %
3233 12-05-2020 10:44:17 8.7 C 28 %
3234 12-05-2020 10:54:17 9.1 C 27 %
3235 12-05-2020 11:04:17 9.7 C 26 %
3236 12-05-2020 11:14:17 9.7 C 25 %
3237 12-05-2020 11:24:17 9.8 C 25 %
3238 12-05-2020 11:34:17 9.8 C 25 %
3239 12-05-2020 11:44:17 10 C 21 %
3240 12-05-2020 11:54:17 10.2 C 20 %
3241 12-05-2020 12:04:17 10.6 C 20 %
3242 12-05-2020 12:14:17 10.5 C 20 %
3243 12-05-2020 12:24:17 10 C 20 %
3244 12-05-2020 12:34:17 10.1 C 20 %
3245 12-05-2020 12:44:17 10.7 C 20 %
3246 12-05-2020 12:54:17 10.4 C 20 %
3247 12-05-2020 13:04:17 10.6 C 20 %
3248 12-05-2020 13:14:17 11.1 C 20 %
3249 12-05-2020 13:24:17 11.3 C 20 %
3250 12-05-2020 13:34:17 11.5 C 20 %
Sensor: Nr:Datum:Temp:Feuchte:
Aussen-T/F 3251 12-05-2020 13:44:17 11.8 C 20 %
3252 12-05-2020 13:54:17 15.2 C 20 %
3253 12-05-2020 14:04:17 17.9 C 20 %
3254 12-05-2020 14:14:17 19.4 C 20 %
3255 12-05-2020 14:24:17 20.6 C 20 %
3256 12-05-2020 14:34:18 18.9 C 20 %
3257 12-05-2020 14:44:18 22.7 C 20 %
3258 12-05-2020 14:54:17 20.5 C 20 %
3259 12-05-2020 15:04:17 17.7 C 20 %
3260 12-05-2020 15:14:17 18.4 C 20 %
3261 12-05-2020 15:24:17 16 C 20 %
3262 12-05-2020 15:34:17 19.3 C 20 %
3263 12-05-2020 15:44:17 19.6 C 20 %
3264 12-05-2020 15:54:17 17.7 C 20 %
3265 12-05-2020 16:04:17 21.9 C 20 %
3266 12-05-2020 16:14:17 21.2 C 20 %
3267 12-05-2020 16:24:17 16.8 C 20 %
3268 12-05-2020 16:34:18 17.4 C 20 %
3269 12-05-2020 16:44:18 15.8 C 20 %
3270 12-05-2020 16:54:18 18.5 C 20 %
3271 12-05-2020 17:04:17 20 C 20 %
3272 12-05-2020 17:14:17 18.6 C 20 %
3273 12-05-2020 17:24:17 14.5 C 20 %
3274 12-05-2020 17:34:17 16.7 C 20 %
3275 12-05-2020 17:44:17 18.5 C 20 %
Sensor: Nr:Datum:Temp:Feuchte:
Aussen-T/F 3276 12-05-2020 17:54:17 20 C 20 %
3277 12-05-2020 18:04:17 21.3 C 20 %
3278 12-05-2020 18:14:18 16.3 C 20 %
3279 12-05-2020 18:24:17 15.4 C 20 %
3280 12-05-2020 18:34:17 15 C 20 %
3281 12-05-2020 18:44:17 14.6 C 20 %
3282 12-05-2020 18:54:17 14.4 C 20 %
3283 12-05-2020 19:04:17 13.5 C 20 %
3284 12-05-2020 19:14:17 13.5 C 20 %
3285 12-05-2020 19:24:17 13 C 20 %
3286 12-05-2020 19:34:17 12.7 C 20 %
3287 12-05-2020 19:44:18 12.4 C 20 %
3288 12-05-2020 19:54:17 12.3 C 20 %
3289 12-05-2020 20:04:17 12 C 20 %
3290 12-05-2020 20:14:18 12 C 20 %
3291 12-05-2020 20:24:17 11.7 C 20 %
3292 12-05-2020 20:34:17 11.2 C 20 %
3293 12-05-2020 20:44:17 10.4 C 25 %
3294 12-05-2020 20:54:17 9.7 C 27 %
3295 12-05-2020 21:04:17 9.2 C 28 %
3296 12-05-2020 21:14:17 8.9 C 29 %
3297 12-05-2020 21:24:18 8.8 C 29 %
3298 12-05-2020 21:34:17 8.5 C 28 %
3299 12-05-2020 21:44:17 8.1 C 29 %
3300 12-05-2020 21:54:17 8 C 29 %
Sensor: Nr:Datum:Temp:Feuchte:
Aussen-T/F 3301 12-05-2020 22:04:17 8.1 C 28 %
3302 12-05-2020 22:14:17 8 C 28 %
3303 12-05-2020 22:24:17 7.7 C 28 %
3304 12-05-2020 22:34:18 7.4 C 30 %
3305 12-05-2020 22:44:18 7.1 C 30 %
3306 12-05-2020 22:54:18 6.8 C 31 %
3307 12-05-2020 23:04:18 6.8 C 31 %
3308 12-05-2020 23:14:18 6.8 C 31 %
3309 12-05-2020 23:24:17 6.8 C 31 %
3310 12-05-2020 23:34:18 6.4 C 32 %
3311 12-05-2020 23:44:18 6.1 C 32 %
3312 12-05-2020 23:54:17 5.9 C 35 %
3313 13-05-2020 00:04:17 5.2 C 35 %
3314 13-05-2020 00:14:17 4.9 C 37 %
3315 13-05-2020 00:24:17 4.6 C 37 %
3316 13-05-2020 00:34:17 4.3 C 38 %
3317 13-05-2020 00:44:18 4.3 C 38 %
3318 13-05-2020 00:54:17 4.1 C 38 %
3319 13-05-2020 01:04:17 4 C 38 %
3320 13-05-2020 01:14:17 3.7 C 40 %
3321 13-05-2020 01:24:17 3.3 C 40 %
3322 13-05-2020 01:34:18 3 C 40 %
3323 13-05-2020 01:44:18 2.9 C 41 %
3324 13-05-2020 01:54:17 2.9 C 41 %
3325 13-05-2020 02:04:17 2.8 C 41 %
Sensor: Nr:Datum:Temp:Feuchte:
Aussen-T/F 3326 13-05-2020 02:14:17 2.9 C 41 %
3327 13-05-2020 02:24:17 2.6 C 41 %
3328 13-05-2020 02:34:18 2.5 C 42 %
3329 13-05-2020 02:44:18 2.4 C 42 %
3330 13-05-2020 02:54:18 2.3 C 42 %
3331 13-05-2020 03:04:17 2.3 C 43 %
3332 13-05-2020 03:14:17 2.2 C 43 %
3333 13-05-2020 03:24:17 2 C 43 %
3334 13-05-2020 03:34:17 1.7 C 44 %
3335 13-05-2020 03:44:17 1.6 C 45 %
3336 13-05-2020 03:54:17 1.8 C 46 %
3337 13-05-2020 04:04:17 1.6 C 45 %
3338 13-05-2020 04:14:17 1.5 C 45 %
3339 13-05-2020 04:24:17 1.3 C 45 %
3340 13-05-2020 04:34:17 1.5 C 46 %
3341 13-05-2020 04:44:17 1.2 C 46 %
3342 13-05-2020 04:54:17 1.3 C 46 %
3343 13-05-2020 05:04:17 1.3 C 46 %
3344 13-05-2020 05:14:17 1.4 C 46 %
3345 13-05-2020 05:24:17 1.5 C 47 %
3346 13-05-2020 05:34:17 1.8 C 47 %
3347 13-05-2020 05:44:17 2.1 C 46 %
3348 13-05-2020 05:54:17 2.3 C 45 %
3349 13-05-2020 06:04:17 2.5 C 45 %
3350 13-05-2020 06:14:17 2.7 C 45 %
Sensor: Nr:Datum:Temp:Feuchte:
Aussen-T/F 3351 13-05-2020 06:24:17 2.8 C 43 %
3352 13-05-2020 06:34:17 2.8 C 43 %
3353 13-05-2020 06:44:17 3 C 42 %
3354 13-05-2020 06:54:17 3.2 C 42 %
3355 13-05-2020 07:04:17 3.1 C 42 %
3356 13-05-2020 07:14:17 3.4 C 42 %
3357 13-05-2020 07:24:17 3.4 C 41 %
3358 13-05-2020 07:34:17 3.8 C 41 %
3359 13-05-2020 07:44:17 4.2 C 41 %
3360 13-05-2020 07:54:17 4.5 C 40 %
3361 13-05-2020 08:04:17 4.7 C 40 %
3362 13-05-2020 08:14:17 5.2 C 38 %
3363 13-05-2020 08:24:18 5.5 C 37 %
3364 13-05-2020 08:34:17 5.8 C 37 %
3365 13-05-2020 08:44:17 5.9 C 37 %
3366 13-05-2020 08:54:18 5.8 C 37 %
3367 13-05-2020 09:04:17 5.8 C 38 %
3368 13-05-2020 09:14:17 6.1 C 37 %
3369 13-05-2020 09:24:17 6.7 C 37 %
3370 13-05-2020 09:34:17 7.5 C 36 %
3371 13-05-2020 09:44:17 7.8 C 36 %
3372 13-05-2020 09:54:17 8.2 C 35 %
3373 13-05-2020 10:04:17 9.1 C 31 %
3374 13-05-2020 10:14:17 9.6 C 30 %
3375 13-05-2020 10:24:17 9.9 C 30 %
Sensor: Nr:Datum:Temp:Feuchte:
Aussen-T/F 3376 13-05-2020 10:34:17 10.8 C 27 %
3377 13-05-2020 10:44:17 11.2 C 26 %
3378 13-05-2020 10:54:17 11.8 C 25 %
3379 13-05-2020 11:04:18 12.4 C 25 %
3380 13-05-2020 11:14:18 12.5 C 21 %
3381 13-05-2020 11:24:17 12.9 C 21 %
3382 13-05-2020 11:34:17 13.2 C 20 %
3383 13-05-2020 11:44:17 13.6 C 20 %
3384 13-05-2020 11:54:17 13.6 C 20 %
3385 13-05-2020 12:04:17 13.3 C 20 %
3386 13-05-2020 12:14:17 14.4 C 20 %
3387 13-05-2020 12:24:17 15.2 C 20 %
3388 13-05-2020 12:34:18 15 C 20 %
3389 13-05-2020 12:44:18 15.1 C 20 %
3390 13-05-2020 12:54:18 15.5 C 20 %
3391 13-05-2020 13:04:17 15.4 C 20 %
3392 13-05-2020 13:14:18 14.8 C 20 %
3393 13-05-2020 13:24:18 14.4 C 20 %
3394 13-05-2020 13:34:18 15.6 C 20 %
3395 13-05-2020 13:44:18 15.6 C 20 %
3396 13-05-2020 13:54:17 14.9 C 20 %
3397 13-05-2020 14:04:17 17.1 C 20 %
3398 13-05-2020 14:14:17 19.1 C 20 %
3399 13-05-2020 14:24:17 19.7 C 20 %
3400 13-05-2020 14:34:17 16.8 C 20 %
Sensor: Nr:Datum:Temp:Feuchte:
Aussen-T/F 3401 13-05-2020 14:44:17 17.6 C 20 %
3402 13-05-2020 14:54:17 18.8 C 20 %
3403 13-05-2020 15:04:17 18.8 C 20 %
3404 13-05-2020 15:14:17 16.6 C 20 %
3405 13-05-2020 15:24:17 16.7 C 20 %
3406 13-05-2020 15:34:17 19.5 C 20 %
3407 13-05-2020 15:44:17 20.3 C 20 %
3408 13-05-2020 15:54:17 19.8 C 20 %
3409 13-05-2020 16:04:17 18 C 20 %
3410 13-05-2020 16:14:18 18.4 C 20 %
3411 13-05-2020 16:24:18 17.4 C 20 %
3412 13-05-2020 16:34:17 15.5 C 20 %
3413 13-05-2020 16:44:17 15.9 C 20 %
3414 13-05-2020 16:54:17 15.3 C 20 %
3415 13-05-2020 17:04:18 18.1 C 20 %
3416 13-05-2020 17:14:18 16.8 C 20 %
3417 13-05-2020 17:24:18 15.6 C 20 %
3418 13-05-2020 17:34:17 15.8 C 20 %
3419 13-05-2020 17:44:17 16 C 20 %
3420 13-05-2020 17:54:17 15.6 C 20 %
3421 13-05-2020 18:04:17 15.6 C 20 %
3422 13-05-2020 18:14:17 14.4 C 20 %
3423 13-05-2020 18:24:17 13.8 C 20 %
3424 13-05-2020 18:34:17 13.7 C 20 %
3425 13-05-2020 18:44:17 13.4 C 20 %
Sensor: Nr:Datum:Temp:Feuchte:
Aussen-T/F 3426 13-05-2020 18:54:18 13.2 C 20 %
3427 13-05-2020 19:04:18 13.4 C 20 %
3428 13-05-2020 19:14:18 13.3 C 20 %
3429 13-05-2020 19:24:17 13 C 20 %
3430 13-05-2020 19:34:17 12.9 C 20 %
3431 13-05-2020 19:44:17 12.7 C 20 %
3432 13-05-2020 19:54:17 12.6 C 20 %
3433 13-05-2020 20:04:17 12.8 C 20 %
3434 13-05-2020 20:14:17 13 C 20 %
3435 13-05-2020 20:24:17 13 C 20 %
3436 13-05-2020 20:34:18 12.9 C 20 %
3437 13-05-2020 20:44:18 12.5 C 20 %
3438 13-05-2020 20:54:17 12.2 C 20 %
3439 13-05-2020 21:04:17 12 C 20 %
3440 13-05-2020 21:14:17 11.5 C 20 %
3441 13-05-2020 21:24:17 11.3 C 21 %
3442 13-05-2020 21:34:17 11 C 25 %
3443 13-05-2020 21:44:17 10.6 C 27 %
3444 13-05-2020 21:54:17 10.4 C 28 %
3445 13-05-2020 22:04:18 10 C 30 %
3446 13-05-2020 22:14:18 9.9 C 30 %
3447 13-05-2020 22:24:17 9.5 C 31 %
3448 13-05-2020 22:34:18 9.2 C 31 %
3449 13-05-2020 22:44:18 8.9 C 32 %
3450 13-05-2020 22:54:17 8.6 C 32 %
Sensor: Nr:Datum:Temp:Feuchte:
Aussen-T/F 3451 13-05-2020 23:04:17 8.3 C 33 %
3452 13-05-2020 23:14:17 8.4 C 33 %
3453 13-05-2020 23:24:18 8.1 C 33 %
3454 13-05-2020 23:34:17 7.9 C 34 %
3455 13-05-2020 23:44:17 7.6 C 35 %
3456 13-05-2020 23:54:17 7.7 C 35 %
3457 14-05-2020 00:04:17 7.7 C 35 %
3458 14-05-2020 00:14:17 7.3 C 35 %
3459 14-05-2020 00:24:17 7.3 C 35 %
3460 14-05-2020 00:34:18 7.1 C 35 %
3461 14-05-2020 00:44:18 7.1 C 35 %
3462 14-05-2020 00:54:17 7 C 35 %
3463 14-05-2020 01:04:17 6.9 C 35 %
3464 14-05-2020 01:14:17 6.7 C 35 %
3465 14-05-2020 01:24:18 6.6 C 36 %
3466 14-05-2020 01:34:18 6.1 C 36 %
3467 14-05-2020 01:44:18 5.7 C 38 %
3468 14-05-2020 01:54:17 5.3 C 38 %
3469 14-05-2020 02:04:18 5 C 39 %
3470 14-05-2020 02:14:18 5.2 C 39 %
3471 14-05-2020 02:24:17 6.2 C 37 %
3472 14-05-2020 02:34:17 5.9 C 38 %
3473 14-05-2020 02:44:18 5.5 C 38 %
3474 14-05-2020 02:54:17 5.8 C 38 %
3475 14-05-2020 03:04:18 5.6 C 38 %
Sensor: Nr:Datum:Temp:Feuchte:
Aussen-T/F 3476 14-05-2020 03:14:18 5.9 C 38 %
3477 14-05-2020 03:24:18 5.5 C 38 %
3478 14-05-2020 03:34:17 5.6 C 39 %
3479 14-05-2020 03:44:17 5.8 C 38 %
3480 14-05-2020 03:54:17 6 C 37 %
3481 14-05-2020 04:04:18 6.2 C 37 %
3482 14-05-2020 04:14:18 5.8 C 38 %
3483 14-05-2020 04:24:17 5.4 C 38 %
3484 14-05-2020 04:34:18 5.2 C 39 %
3485 14-05-2020 04:44:18 5.1 C 39 %
3486 14-05-2020 04:54:18 5.2 C 38 %
3487 14-05-2020 05:04:17 5 C 39 %
3488 14-05-2020 05:14:17 5.2 C 38 %
3489 14-05-2020 05:24:17 5.3 C 38 %
3490 14-05-2020 05:34:17 5.4 C 38 %
3491 14-05-2020 05:44:17 5.4 C 38 %
3492 14-05-2020 05:54:18 5.1 C 39 %
3493 14-05-2020 06:04:18 4.9 C 40 %
3494 14-05-2020 06:14:18 4.1 C 41 %
3495 14-05-2020 06:24:17 3.9 C 43 %
3496 14-05-2020 06:34:18 3.7 C 43 %
3497 14-05-2020 06:44:18 3.9 C 43 %
3498 14-05-2020 06:54:17 3.7 C 43 %
3499 14-05-2020 07:04:17 3.9 C 43 %
3500 14-05-2020 07:14:17 3.9 C 43 %
Sensor: Nr:Datum:Temp:Feuchte:
Aussen-T/F 3501 14-05-2020 07:24:18 4.1 C 42 %
3502 14-05-2020 07:34:17 4.2 C 42 %
3503 14-05-2020 07:44:17 4.8 C 41 %
3504 14-05-2020 07:54:17 5.7 C 39 %
3505 14-05-2020 08:04:18 5.8 C 38 %
3506 14-05-2020 08:14:18 6 C 37 %
3507 14-05-2020 08:24:17 6.3 C 37 %
3508 14-05-2020 08:34:17 6.4 C 37 %
3509 14-05-2020 08:44:17 7.2 C 35 %
3510 14-05-2020 08:54:18 7.6 C 35 %
3511 14-05-2020 09:04:17 7.6 C 35 %
3512 14-05-2020 09:14:17 7.9 C 34 %
3513 14-05-2020 09:24:17 8.1 C 33 %
3514 14-05-2020 09:34:17 8.2 C 33 %
3515 14-05-2020 09:44:17 8.6 C 32 %
3516 14-05-2020 09:54:17 8.7 C 32 %
3517 14-05-2020 10:04:17 8.6 C 32 %
3518 14-05-2020 10:14:17 9.2 C 31 %
3519 14-05-2020 10:24:18 9.5 C 32 %
3520 14-05-2020 10:34:17 10 C 30 %
3521 14-05-2020 10:44:17 10.6 C 30 %
3522 14-05-2020 10:54:17 11 C 28 %
3523 14-05-2020 11:04:17 11.1 C 27 %
3524 14-05-2020 11:14:18 11.5 C 27 %
3525 14-05-2020 11:24:17 12 C 26 %
Sensor: Nr:Datum:Temp:Feuchte:
Aussen-T/F 3526 14-05-2020 11:34:18 12.4 C 26 %
3527 14-05-2020 11:44:18 12.2 C 25 %
3528 14-05-2020 11:54:17 12.8 C 25 %
3529 14-05-2020 12:04:17 13 C 25 %
3530 14-05-2020 12:14:17 13.3 C 25 %
3531 14-05-2020 12:24:17 13.3 C 22 %
3532 14-05-2020 12:34:18 12.9 C 23 %
3533 14-05-2020 12:44:18 13.5 C 22 %
3534 14-05-2020 12:54:18 13.7 C 20 %
3535 14-05-2020 13:04:18 13.6 C 20 %
3536 14-05-2020 13:14:18 14.4 C 20 %
3537 14-05-2020 13:24:17 14 C 20 %
3538 14-05-2020 13:34:17 13.9 C 20 %
3539 14-05-2020 13:44:18 15.6 C 20 %
3540 14-05-2020 13:54:17 15.5 C 20 %
3541 14-05-2020 14:04:17 14.7 C 20 %
3542 14-05-2020 14:14:17 15.1 C 20 %
3543 14-05-2020 14:24:17 16.1 C 20 %
3544 14-05-2020 14:34:18 16.3 C 20 %
3545 14-05-2020 14:44:18 16.2 C 20 %
3546 14-05-2020 14:54:17 15.1 C 20 %
3547 14-05-2020 15:04:17 14.8 C 20 %
3548 14-05-2020 15:14:17 15.1 C 20 %
3549 14-05-2020 15:24:17 15.2 C 20 %
3550 14-05-2020 15:34:17 16.4 C 20 %
Sensor: Nr:Datum:Temp:Feuchte:
Aussen-T/F 3551 14-05-2020 15:44:17 16.2 C 20 %
3552 14-05-2020 15:54:17 15.4 C 20 %
3553 14-05-2020 16:04:17 16.1 C 20 %
3554 14-05-2020 16:14:17 18.7 C 20 %
3555 14-05-2020 16:24:17 16.4 C 20 %
3556 14-05-2020 16:34:17 16.5 C 20 %
3557 14-05-2020 16:44:18 15 C 20 %
3558 14-05-2020 16:54:17 14.6 C 20 %
3559 14-05-2020 17:04:17 14.7 C 20 %
3560 14-05-2020 17:14:18 16.2 C 20 %
3561 14-05-2020 17:24:17 15.2 C 20 %
3562 14-05-2020 17:34:17 14.6 C 20 %
3563 14-05-2020 17:44:17 14.6 C 20 %
3564 14-05-2020 17:54:17 14.6 C 20 %
3565 14-05-2020 18:04:18 15 C 20 %
3566 14-05-2020 18:14:18 15.4 C 20 %
3567 14-05-2020 18:24:17 14.9 C 20 %
3568 14-05-2020 18:34:17 14.6 C 20 %
3569 14-05-2020 18:44:17 14.7 C 20 %
3570 14-05-2020 18:54:18 14.6 C 20 %
3571 14-05-2020 19:04:17 14.5 C 20 %
3572 14-05-2020 19:14:17 14.7 C 20 %
3573 14-05-2020 19:24:17 14.5 C 20 %
3574 14-05-2020 19:34:17 14 C 20 %
3575 14-05-2020 19:44:17 13.3 C 20 %
Sensor: Nr:Datum:Temp:Feuchte:
Aussen-T/F 3576 14-05-2020 19:54:18 12.9 C 20 %
3577 14-05-2020 20:04:18 12.2 C 20 %
3578 14-05-2020 20:14:18 11.8 C 20 %
3579 14-05-2020 20:24:17 11.2 C 21 %
3580 14-05-2020 20:34:18 10.7 C 20 %
3581 14-05-2020 20:44:18 10.4 C 22 %
3582 14-05-2020 20:54:17 10.1 C 23 %
3583 14-05-2020 21:04:17 9.5 C 25 %
3584 14-05-2020 21:14:17 9.3 C 25 %
3585 14-05-2020 21:24:18 8.9 C 27 %
3586 14-05-2020 21:34:18 8.7 C 27 %
3587 14-05-2020 21:44:18 8.6 C 27 %
3588 14-05-2020 21:54:18 8.4 C 27 %
3589 14-05-2020 22:04:18 7.9 C 28 %
3590 14-05-2020 22:14:18 8 C 28 %
3591 14-05-2020 22:24:18 7.6 C 29 %
3592 14-05-2020 22:34:17 7.5 C 29 %
3593 14-05-2020 22:44:17 7.1 C 30 %
3594 14-05-2020 22:54:18 7.3 C 29 %
3595 14-05-2020 23:04:18 7.3 C 29 %
3596 14-05-2020 23:14:18 7.2 C 29 %
3597 14-05-2020 23:24:18 7 C 30 %
3598 14-05-2020 23:34:17 6.9 C 30 %
3599 14-05-2020 23:44:17 6.5 C 31 %
3600 14-05-2020 23:54:17 6.8 C 31 %
Sensor: Nr:Datum:Temp:Feuchte:
Aussen-T/F 3601 15-05-2020 00:04:18 6.8 C 31 %
3602 15-05-2020 00:14:18 6.4 C 31 %
3603 15-05-2020 00:24:17 5.6 C 34 %
3604 15-05-2020 00:34:18 4.9 C 36 %
3605 15-05-2020 00:44:18 4.8 C 36 %
3606 15-05-2020 00:54:18 5.2 C 35 %
3607 15-05-2020 01:04:17 5.4 C 35 %
3608 15-05-2020 01:14:17 5.2 C 35 %
3609 15-05-2020 01:24:17 5.1 C 35 %
3610 15-05-2020 01:34:18 5.3 C 35 %
3611 15-05-2020 01:44:18 5.2 C 35 %
3612 15-05-2020 01:54:17 5.2 C 35 %
3613 15-05-2020 02:04:17 5.2 C 35 %
3614 15-05-2020 02:14:17 4.9 C 35 %
3615 15-05-2020 02:24:17 4.9 C 35 %
3616 15-05-2020 02:34:17 4.7 C 35 %
3617 15-05-2020 02:44:17 4.5 C 35 %
3618 15-05-2020 02:54:17 4.1 C 36 %
3619 15-05-2020 03:04:17 3.8 C 38 %
3620 15-05-2020 03:14:17 3.5 C 38 %
3621 15-05-2020 03:24:17 3.2 C 39 %
3622 15-05-2020 03:34:17 3.1 C 39 %
3623 15-05-2020 03:44:17 3.1 C 40 %
3624 15-05-2020 03:54:17 3.3 C 39 %
3625 15-05-2020 04:04:17 3.1 C 40 %
Sensor: Nr:Datum:Temp:Feuchte:
Aussen-T/F 3626 15-05-2020 04:14:17 2.9 C 40 %
3627 15-05-2020 04:24:17 2.6 C 41 %
3628 15-05-2020 04:34:18 2.3 C 41 %
3629 15-05-2020 04:44:18 2.1 C 41 %
3630 15-05-2020 04:54:17 2 C 42 %
3631 15-05-2020 05:04:18 1.8 C 42 %
3632 15-05-2020 05:14:18 1.6 C 43 %
3633 15-05-2020 05:24:18 1.6 C 44 %
3634 15-05-2020 05:34:17 1.5 C 44 %
3635 15-05-2020 05:44:17 1.5 C 45 %
3636 15-05-2020 05:54:17 1.5 C 45 %
3637 15-05-2020 06:04:17 1.4 C 45 %
3638 15-05-2020 06:14:17 1.4 C 45 %
3639 15-05-2020 06:24:17 1.4 C 45 %
3640 15-05-2020 06:34:17 1.5 C 46 %
3641 15-05-2020 06:44:17 1.5 C 46 %
3642 15-05-2020 06:54:18 1.8 C 45 %
3643 15-05-2020 07:04:17 2.2 C 45 %
3644 15-05-2020 07:14:17 2.8 C 42 %
3645 15-05-2020 07:24:17 3.2 C 41 %
3646 15-05-2020 07:34:18 3.4 C 41 %
3647 15-05-2020 07:44:18 3.8 C 40 %
3648 15-05-2020 07:54:18 4 C 40 %
3649 15-05-2020 08:04:18 4.1 C 40 %
3650 15-05-2020 08:14:18 4.6 C 39 %
Sensor: Nr:Datum:Temp:Feuchte:
Aussen-T/F 3651 15-05-2020 08:24:18 4.8 C 39 %
3652 15-05-2020 08:34:18 4.8 C 39 %
3653 15-05-2020 08:44:18 5.9 C 37 %
3654 15-05-2020 08:54:17 5.8 C 37 %
3655 15-05-2020 09:04:18 6.5 C 36 %
3656 15-05-2020 09:14:18 6.9 C 36 %
3657 15-05-2020 09:24:17 7.5 C 35 %
3658 15-05-2020 09:34:18 8.8 C 32 %
3659 15-05-2020 09:44:18 9.5 C 30 %
3660 15-05-2020 09:54:18 10.1 C 29 %
3661 15-05-2020 10:04:17 10.3 C 28 %
3662 15-05-2020 10:14:18 10.8 C 28 %
3663 15-05-2020 10:24:17 11.1 C 26 %
3664 15-05-2020 10:34:17 11.2 C 26 %
3665 15-05-2020 10:44:17 12.1 C 25 %
3666 15-05-2020 10:54:18 12.9 C 25 %
3667 15-05-2020 11:04:17 12.8 C 25 %
3668 15-05-2020 11:14:17 13.1 C 20 %
3669 15-05-2020 11:24:17 13.2 C 20 %
3670 15-05-2020 11:34:17 13.8 C 20 %
3671 15-05-2020 11:44:17 14 C 20 %
3672 15-05-2020 11:54:17 14.6 C 20 %
3673 15-05-2020 12:04:17 14.3 C 20 %
3674 15-05-2020 12:14:17 14.7 C 20 %
3675 15-05-2020 12:24:18 14.6 C 20 %
Sensor: Nr:Datum:Temp:Feuchte:
Aussen-T/F 3676 15-05-2020 12:34:17 14.8 C 20 %
3677 15-05-2020 12:44:17 14.7 C 20 %
3678 15-05-2020 12:54:17 15 C 20 %
3679 15-05-2020 13:04:17 15.1 C 20 %
3680 15-05-2020 13:14:17 15.2 C 20 %
3681 15-05-2020 13:24:17 15.6 C 20 %
3682 15-05-2020 13:34:18 15.1 C 20 %
3683 15-05-2020 13:44:18 16.3 C 20 %
3684 15-05-2020 13:54:17 19.5 C 20 %
3685 15-05-2020 14:04:17 23.4 C 20 %
3686 15-05-2020 14:14:17 23.3 C 20 %
3687 15-05-2020 14:24:17 23.8 C 20 %
3688 15-05-2020 14:34:18 22.9 C 20 %
3689 15-05-2020 14:44:18 23.1 C 20 %
3690 15-05-2020 14:54:17 25.4 C 20 %
3691 15-05-2020 15:04:17 26.3 C 20 %
3692 15-05-2020 15:14:17 24.6 C 20 %
3693 15-05-2020 15:24:18 24.5 C 20 %
3694 15-05-2020 15:34:18 24.4 C 20 %
3695 15-05-2020 15:44:18 24.2 C 20 %
3696 15-05-2020 15:54:18 24.5 C 20 %
3697 15-05-2020 16:04:18 24.5 C 20 %
3698 15-05-2020 16:14:18 24.5 C 20 %
3699 15-05-2020 16:24:18 22 C 20 %
3700 15-05-2020 16:34:18 24 C 20 %
Sensor: Nr:Datum:Temp:Feuchte:
Aussen-T/F 3701 15-05-2020 16:44:18 25.1 C 20 %
3702 15-05-2020 16:54:17 22.6 C 20 %
3703 15-05-2020 17:04:17 22 C 20 %
3704 15-05-2020 17:14:17 22.4 C 20 %
3705 15-05-2020 17:24:17 25.2 C 20 %
3706 15-05-2020 17:34:17 22.7 C 20 %
3707 15-05-2020 17:44:17 22.5 C 20 %
3708 15-05-2020 17:54:17 21.2 C 20 %
3709 15-05-2020 18:04:17 21.1 C 20 %
3710 15-05-2020 18:14:17 18.7 C 20 %
3711 15-05-2020 18:24:17 17.7 C 20 %
3712 15-05-2020 18:34:17 18.1 C 20 %
3713 15-05-2020 18:44:18 17.7 C 20 %
3714 15-05-2020 18:54:17 16.9 C 20 %
3715 15-05-2020 19:04:17 16.8 C 20 %
3716 15-05-2020 19:14:17 16.9 C 20 %
3717 15-05-2020 19:24:17 16.8 C 20 %
3718 15-05-2020 19:34:18 16.6 C 20 %
3719 15-05-2020 19:44:18 16 C 20 %
3720 15-05-2020 19:54:17 15.8 C 20 %
3721 15-05-2020 20:04:18 15.6 C 20 %
3722 15-05-2020 20:14:18 15.3 C 20 %
3723 15-05-2020 20:24:17 15.1 C 20 %
3724 15-05-2020 20:34:17 14.8 C 20 %
3725 15-05-2020 20:44:17 14.2 C 20 %
Sensor: Nr:Datum:Temp:Feuchte:
Aussen-T/F 3726 15-05-2020 20:54:17 13.5 C 20 %
3727 15-05-2020 21:04:17 12.1 C 20 %
3728 15-05-2020 21:14:17 11.8 C 20 %
3729 15-05-2020 21:24:17 10.9 C 20 %
3730 15-05-2020 21:34:17 10.7 C 20 %
3731 15-05-2020 21:44:17 10.4 C 20 %
3732 15-05-2020 21:54:17 11.6 C 20 %
3733 15-05-2020 22:04:17 10.5 C 20 %
3734 15-05-2020 22:14:17 9.9 C 25 %
3735 15-05-2020 22:24:17 9.5 C 26 %
3736 15-05-2020 22:34:18 9.2 C 26 %
3737 15-05-2020 22:44:18 9 C 27 %
3738 15-05-2020 22:54:18 9.1 C 27 %
3739 15-05-2020 23:04:18 8.9 C 28 %
3740 15-05-2020 23:14:18 9 C 28 %
3741 15-05-2020 23:24:18 9.2 C 27 %
3742 15-05-2020 23:34:17 8.5 C 29 %
3743 15-05-2020 23:44:17 8.5 C 28 %
3744 15-05-2020 23:54:17 8.4 C 28 %
3745 16-05-2020 00:04:17 8 C 29 %
3746 16-05-2020 00:14:17 8.2 C 28 %
3747 16-05-2020 00:24:17 7.8 C 30 %
3748 16-05-2020 00:34:18 7.5 C 30 %
3749 16-05-2020 00:44:18 7.1 C 31 %
3750 16-05-2020 00:54:17 6.5 C 33 %
Sensor: Nr:Datum:Temp:Feuchte:
Aussen-T/F 3751 16-05-2020 01:04:17 6 C 34 %
3752 16-05-2020 01:14:17 5.6 C 35 %
3753 16-05-2020 01:24:17 5.1 C 36 %
3754 16-05-2020 01:34:17 4.8 C 37 %
3755 16-05-2020 01:44:17 4.6 C 37 %
3756 16-05-2020 01:54:17 4.4 C 38 %
3757 16-05-2020 02:04:17 4.3 C 38 %
3758 16-05-2020 02:14:17 4.3 C 39 %
3759 16-05-2020 02:24:18 4.1 C 39 %
3760 16-05-2020 02:34:17 3.8 C 40 %
3761 16-05-2020 02:44:17 3.7 C 40 %
3762 16-05-2020 02:54:18 3.6 C 40 %
3763 16-05-2020 03:04:17 3.5 C 41 %
3764 16-05-2020 03:14:17 3.4 C 41 %
3765 16-05-2020 03:24:18 3.2 C 41 %
3766 16-05-2020 03:34:18 3.7 C 41 %
3767 16-05-2020 03:44:18 3.2 C 42 %
3768 16-05-2020 03:54:17 3.2 C 41 %
3769 16-05-2020 04:04:17 3 C 42 %
3770 16-05-2020 04:14:17 2.9 C 43 %
3771 16-05-2020 04:24:17 2.7 C 43 %
3772 16-05-2020 04:34:18 2.5 C 43 %
3773 16-05-2020 04:44:18 2.6 C 44 %
3774 16-05-2020 04:54:17 2.7 C 44 %
3775 16-05-2020 05:04:17 2.4 C 44 %
Sensor: Nr:Datum:Temp:Feuchte:
Aussen-T/F 3776 16-05-2020 05:14:17 2.5 C 45 %
3777 16-05-2020 05:24:17 2.5 C 44 %
3778 16-05-2020 05:34:17 2.3 C 44 %
3779 16-05-2020 05:44:17 2.1 C 44 %
3780 16-05-2020 05:54:17 2.1 C 45 %
3781 16-05-2020 06:04:17 2.3 C 45 %
3782 16-05-2020 06:14:17 2.2 C 45 %
3783 16-05-2020 06:24:17 2.1 C 45 %
3784 16-05-2020 06:34:18 2.2 C 45 %
3785 16-05-2020 06:44:18 2.4 C 45 %
3786 16-05-2020 06:54:18 2.4 C 45 %
3787 16-05-2020 07:04:17 2.4 C 45 %
3788 16-05-2020 07:14:17 2.7 C 45 %
3789 16-05-2020 07:24:18 2.7 C 45 %
3790 16-05-2020 07:34:17 3 C 44 %
3791 16-05-2020 07:44:17 3.2 C 44 %
3792 16-05-2020 07:54:17 3.4 C 43 %
3793 16-05-2020 08:04:17 3.6 C 43 %
3794 16-05-2020 08:14:17 4 C 42 %
3795 16-05-2020 08:24:17 4.4 C 41 %
3796 16-05-2020 08:34:17 4.6 C 41 %
3797 16-05-2020 08:44:17 5.3 C 40 %
3798 16-05-2020 08:54:17 5.7 C 40 %
3799 16-05-2020 09:04:17 6.1 C 39 %
3800 16-05-2020 09:14:17 6.6 C 38 %
Sensor: Nr:Datum:Temp:Feuchte:
Aussen-T/F 3801 16-05-2020 09:24:17 7.4 C 37 %
3802 16-05-2020 09:34:17 8.1 C 36 %
3803 16-05-2020 09:44:18 8.8 C 36 %
3804 16-05-2020 09:54:17 9.6 C 35 %
3805 16-05-2020 10:04:17 10.2 C 32 %
3806 16-05-2020 10:14:17 10.8 C 32 %
3807 16-05-2020 10:24:17 11.7 C 31 %
3808 16-05-2020 10:34:17 12.4 C 29 %
3809 16-05-2020 10:44:17 13.1 C 21 %
3810 16-05-2020 10:54:17 13.5 C 21 %
3811 16-05-2020 11:04:17 14.2 C 20 %
3812 16-05-2020 11:14:17 14.5 C 20 %
3813 16-05-2020 11:24:17 14.7 C 20 %
3814 16-05-2020 11:34:17 14.3 C 20 %
3815 16-05-2020 11:44:17 15.5 C 20 %
3816 16-05-2020 11:54:17 15.1 C 20 %
3817 16-05-2020 12:04:18 15.6 C 20 %
3818 16-05-2020 12:14:18 15.4 C 20 %
3819 16-05-2020 12:24:17 14.8 C 20 %
3820 16-05-2020 12:34:17 15.1 C 20 %
3821 16-05-2020 12:44:17 15.1 C 20 %
3822 16-05-2020 12:54:17 15.6 C 20 %
3823 16-05-2020 13:04:18 15.5 C 20 %
3824 16-05-2020 13:14:18 15.8 C 20 %
3825 16-05-2020 13:24:17 16.5 C 20 %
Sensor: Nr:Datum:Temp:Feuchte:
Aussen-T/F 3826 16-05-2020 13:34:17 16.5 C 20 %
3827 16-05-2020 13:44:17 17.3 C 20 %
3828 16-05-2020 13:54:18 21.1 C 20 %
3829 16-05-2020 14:04:18 21.6 C 20 %
3830 16-05-2020 14:14:18 25.7 C 20 %
3831 16-05-2020 14:24:17 25.2 C 20 %
3832 16-05-2020 14:34:17 25 C 20 %
3833 16-05-2020 14:44:17 23.5 C 20 %
3834 16-05-2020 14:54:17 23.9 C 20 %
3835 16-05-2020 15:04:17 24.7 C 20 %
3836 16-05-2020 15:14:17 24.6 C 20 %
3837 16-05-2020 15:24:17 24.7 C 20 %
3838 16-05-2020 15:34:17 22.4 C 20 %
3839 16-05-2020 15:44:18 23.5 C 20 %
3840 16-05-2020 15:54:18 24.6 C 20 %
3841 16-05-2020 16:04:18 24.3 C 20 %
3842 16-05-2020 16:14:18 26.8 C 20 %
3843 16-05-2020 16:24:18 24.3 C 20 %
3844 16-05-2020 16:34:17 22.9 C 20 %
3845 16-05-2020 16:44:17 23.4 C 20 %
3846 16-05-2020 16:54:17 21.3 C 20 %
3847 16-05-2020 17:04:17 21.6 C 20 %
3848 16-05-2020 17:14:17 20.7 C 20 %
3849 16-05-2020 17:24:18 20.6 C 20 %
3850 16-05-2020 17:34:17 20.7 C 20 %
Sensor: Nr:Datum:Temp:Feuchte:
Aussen-T/F 3851 16-05-2020 17:44:17 20.4 C 20 %
3852 16-05-2020 17:54:17 20 C 20 %
3853 16-05-2020 18:04:18 20.7 C 20 %
3854 16-05-2020 18:14:18 20.9 C 20 %
3855 16-05-2020 18:24:17 19.7 C 20 %
3856 16-05-2020 18:34:17 20.7 C 20 %
3857 16-05-2020 18:44:17 20.1 C 20 %
3858 16-05-2020 18:54:17 19 C 20 %
3859 16-05-2020 19:04:17 18.7 C 20 %
3860 16-05-2020 19:14:18 18.1 C 20 %
3861 16-05-2020 19:24:17 18 C 20 %
3862 16-05-2020 19:34:17 18.1 C 20 %
3863 16-05-2020 19:44:17 17.9 C 20 %
3864 16-05-2020 19:54:18 18.1 C 20 %
3865 16-05-2020 20:04:17 17.7 C 20 %
3866 16-05-2020 20:14:17 17.4 C 20 %
3867 16-05-2020 20:24:18 17 C 20 %
3868 16-05-2020 20:34:17 16.5 C 20 %
3869 16-05-2020 20:44:17 16 C 20 %
3870 16-05-2020 20:54:18 14.5 C 20 %
3871 16-05-2020 21:04:18 13.7 C 23 %
3872 16-05-2020 21:14:18 13.6 C 20 %
3873 16-05-2020 21:24:18 13.8 C 20 %
3874 16-05-2020 21:34:18 13.4 C 23 %
3875 16-05-2020 21:44:18 13.2 C 23 %
Sensor: Nr:Datum:Temp:Feuchte:
Aussen-T/F 3876 16-05-2020 21:54:17 13.2 C 24 %
3877 16-05-2020 22:04:17 13 C 23 %
3878 16-05-2020 22:14:17 13 C 23 %
3879 16-05-2020 22:24:17 12.7 C 25 %
3880 16-05-2020 22:34:17 12.6 C 25 %
3881 16-05-2020 22:44:17 12.6 C 25 %
3882 16-05-2020 22:54:17 12.3 C 25 %
3883 16-05-2020 23:04:17 11.7 C 27 %
3884 16-05-2020 23:14:17 12.2 C 26 %
3885 16-05-2020 23:24:18 12.1 C 26 %
3886 16-05-2020 23:34:18 11.8 C 27 %
3887 16-05-2020 23:44:18 11 C 29 %
3888 16-05-2020 23:54:17 11.2 C 29 %
3889 17-05-2020 00:04:17 11.6 C 28 %
3890 17-05-2020 00:14:17 10.7 C 30 %
3891 17-05-2020 00:24:17 10.9 C 30 %
3892 17-05-2020 00:34:18 10.7 C 30 %
3893 17-05-2020 00:44:18 10 C 31 %
3894 17-05-2020 00:54:17 9.8 C 32 %
3895 17-05-2020 01:04:17 9.9 C 32 %
3896 17-05-2020 01:14:17 9.5 C 33 %
3897 17-05-2020 01:24:17 9.4 C 33 %
3898 17-05-2020 01:34:18 9.3 C 33 %
3899 17-05-2020 01:44:18 9 C 33 %
3900 17-05-2020 01:54:17 8.8 C 35 %
Sensor: Nr:Datum:Temp:Feuchte:
Aussen-T/F 3901 17-05-2020 02:04:17 9 C 33 %
3902 17-05-2020 02:14:17 9.2 C 33 %
3903 17-05-2020 02:24:17 9.1 C 33 %
3904 17-05-2020 02:34:18 9 C 34 %
3905 17-05-2020 02:44:18 8.6 C 35 %
3906 17-05-2020 02:54:17 8.5 C 35 %
3907 17-05-2020 03:04:17 8.2 C 36 %
3908 17-05-2020 03:14:17 8.5 C 36 %
3909 17-05-2020 03:24:17 8.3 C 36 %
3910 17-05-2020 03:34:17 8.3 C 36 %
3911 17-05-2020 03:44:18 8.5 C 36 %
3912 17-05-2020 03:54:17 8.2 C 36 %
3913 17-05-2020 04:04:17 8.2 C 36 %
3914 17-05-2020 04:14:17 7.7 C 37 %
3915 17-05-2020 04:24:17 7.8 C 38 %
3916 17-05-2020 04:34:18 7.4 C 38 %
3917 17-05-2020 04:44:18 7 C 39 %
3918 17-05-2020 04:54:17 7.1 C 39 %
3919 17-05-2020 05:04:17 6.8 C 40 %
3920 17-05-2020 05:14:17 6.8 C 40 %
3921 17-05-2020 05:24:17 6.8 C 40 %
3922 17-05-2020 05:34:18 6.8 C 40 %
3923 17-05-2020 05:44:18 6.4 C 40 %
3924 17-05-2020 05:54:18 6.5 C 40 %
3925 17-05-2020 06:04:17 6.4 C 40 %
Sensor: Nr:Datum:Temp:Feuchte:
Aussen-T/F 3926 17-05-2020 06:14:17 6.5 C 40 %
3927 17-05-2020 06:24:17 6.3 C 40 %
3928 17-05-2020 06:34:17 6.5 C 40 %
3929 17-05-2020 06:44:17 6.7 C 40 %
3930 17-05-2020 06:54:17 6.6 C 40 %
3931 17-05-2020 07:04:17 6.5 C 40 %
3932 17-05-2020 07:14:17 6.5 C 40 %
3933 17-05-2020 07:24:18 6.4 C 41 %
3934 17-05-2020 07:34:17 6.6 C 41 %
3935 17-05-2020 07:44:17 6.7 C 41 %
3936 17-05-2020 07:54:17 6.8 C 40 %
3937 17-05-2020 08:04:17 7.1 C 40 %
3938 17-05-2020 08:14:17 7.1 C 40 %
3939 17-05-2020 08:24:17 7.3 C 40 %
3940 17-05-2020 08:34:17 7.5 C 40 %
3941 17-05-2020 08:44:17 8.1 C 38 %
3942 17-05-2020 08:54:17 9 C 37 %
3943 17-05-2020 09:04:17 9.8 C 35 %
3944 17-05-2020 09:14:17 10.4 C 35 %
3945 17-05-2020 09:24:17 11.2 C 32 %
3946 17-05-2020 09:34:17 12.5 C 31 %
3947 17-05-2020 09:44:17 12 C 30 %
3948 17-05-2020 09:54:17 12.2 C 29 %
3949 17-05-2020 10:04:17 12.4 C 28 %
3950 17-05-2020 10:14:17 13 C 27 %
Sensor: Nr:Datum:Temp:Feuchte:
Aussen-T/F 3951 17-05-2020 10:24:17 13.7 C 25 %
3952 17-05-2020 10:34:18 13.9 C 26 %
3953 17-05-2020 10:44:18 14.8 C 25 %
3954 17-05-2020 10:54:17 14 C 25 %
3955 17-05-2020 11:04:18 14.3 C 25 %
3956 17-05-2020 11:14:18 14.1 C 25 %
3957 17-05-2020 11:24:17 14.2 C 25 %
3958 17-05-2020 11:34:18 14.3 C 24 %
3959 17-05-2020 11:44:18 14.3 C 25 %
3960 17-05-2020 11:54:17 15 C 23 %
3961 17-05-2020 12:04:18 14.7 C 23 %
3962 17-05-2020 12:14:18 15.4 C 21 %
3963 17-05-2020 12:24:17 15.4 C 20 %
3964 17-05-2020 12:34:17 15.1 C 22 %
3965 17-05-2020 12:44:17 15.1 C 21 %
3966 17-05-2020 12:54:17 14.8 C 22 %
3967 17-05-2020 13:04:17 15.3 C 21 %
3968 17-05-2020 13:14:17 15.8 C 21 %
3969 17-05-2020 13:24:17 16 C 20 %
3970 17-05-2020 13:34:18 16.3 C 20 %
3971 17-05-2020 13:44:18 17.1 C 20 %
3972 17-05-2020 13:54:17 20.1 C 20 %
3973 17-05-2020 14:04:17 23.5 C 20 %
3974 17-05-2020 14:14:17 23.5 C 20 %
3975 17-05-2020 14:24:17 22.3 C 20 %
Sensor: Nr:Datum:Temp:Feuchte:
Aussen-T/F 3976 17-05-2020 14:34:17 26.4 C 20 %
3977 17-05-2020 14:44:17 27.4 C 20 %
3978 17-05-2020 14:54:17 27.8 C 20 %
3979 17-05-2020 15:04:18 24.2 C 20 %
3980 17-05-2020 15:14:18 24.3 C 20 %
3981 17-05-2020 15:24:18 24.6 C 20 %
3982 17-05-2020 15:34:18 25.9 C 20 %
3983 17-05-2020 15:44:18 25.7 C 20 %
3984 17-05-2020 15:54:17 24.2 C 20 %
3985 17-05-2020 16:04:17 26.3 C 20 %
3986 17-05-2020 16:14:17 24.6 C 20 %
3987 17-05-2020 16:24:17 27.6 C 20 %
3988 17-05-2020 16:34:17 24.8 C 20 %
3989 17-05-2020 16:44:17 28.3 C 20 %
3990 17-05-2020 16:54:18 27.9 C 20 %
3991 17-05-2020 17:04:18 27 C 20 %
3992 17-05-2020 17:14:18 28.4 C 20 %
3993 17-05-2020 17:24:18 27.3 C 20 %
3994 17-05-2020 17:34:18 27.7 C 20 %
3995 17-05-2020 17:44:18 25.2 C 20 %
3996 17-05-2020 17:54:17 26.2 C 20 %
3997 17-05-2020 18:04:17 26.9 C 20 %
3998 17-05-2020 18:14:18 24.1 C 20 %
3999 17-05-2020 18:24:17 21 C 20 %
4000 17-05-2020 18:34:17 20.5 C 20 %
Sensor: Nr:Datum:Temp:Feuchte:
Aussen-T/F 4001 17-05-2020 18:44:17 19.9 C 20 %
4002 17-05-2020 18:54:17 19.5 C 20 %
4003 17-05-2020 19:04:18 19.5 C 20 %
4004 17-05-2020 19:14:18 19.5 C 20 %
4005 17-05-2020 19:24:17 19.1 C 20 %
4006 17-05-2020 19:34:17 19.1 C 20 %
4007 17-05-2020 19:44:17 18.7 C 20 %
4008 17-05-2020 19:54:17 18.7 C 20 %
4009 17-05-2020 20:04:18 18.6 C 20 %
4010 17-05-2020 20:14:18 18.4 C 20 %
4011 17-05-2020 20:24:17 18.1 C 20 %
4012 17-05-2020 20:34:17 17.7 C 20 %
4013 17-05-2020 20:44:17 17.2 C 20 %
4014 17-05-2020 20:54:17 15.5 C 20 %
4015 17-05-2020 21:04:17 15.1 C 20 %
4016 17-05-2020 21:14:17 14.8 C 20 %
4017 17-05-2020 21:24:17 14.4 C 20 %
4018 17-05-2020 21:34:18 14.1 C 20 %
4019 17-05-2020 21:44:18 13.8 C 21 %
4020 17-05-2020 21:54:17 13.6 C 21 %
4021 17-05-2020 22:04:17 13.5 C 21 %
4022 17-05-2020 22:14:17 13.3 C 21 %
4023 17-05-2020 22:24:17 12.9 C 25 %
4024 17-05-2020 22:34:17 12.3 C 26 %
4025 17-05-2020 22:44:17 11.8 C 28 %
Sensor: Nr:Datum:Temp:Feuchte:
Aussen-T/F 4026 17-05-2020 22:54:18 11 C 30 %
4027 17-05-2020 23:04:17 10.6 C 31 %
4028 17-05-2020 23:14:17 10.1 C 32 %
4029 17-05-2020 23:24:17 9.9 C 33 %
4030 17-05-2020 23:34:17 9.8 C 33 %
4031 17-05-2020 23:44:17 9.5 C 34 %
4032 17-05-2020 23:54:17 9.1 C 35 %
Sensor: Nr:Datum:Temp:Feuchte:
G-T/H 1 20-04-2020 00:02:17 14.1 C 59 %
2 20-04-2020 00:12:17 14.1 C 59 %
3 20-04-2020 00:22:17 14.2 C 59 %
4 20-04-2020 00:32:18 14.1 C 59 %
5 20-04-2020 00:42:18 14.1 C 59 %
6 20-04-2020 00:52:18 14.1 C 59 %
7 20-04-2020 01:02:17 14.1 C 59 %
8 20-04-2020 01:12:17 14.1 C 59 %
9 20-04-2020 01:22:17 14.1 C 59 %
10 20-04-2020 01:32:17 14.1 C 59 %
11 20-04-2020 01:42:17 14.1 C 59 %
12 20-04-2020 01:52:17 14 C 59 %
13 20-04-2020 02:02:18 14 C 59 %
14 20-04-2020 02:12:18 14 C 59 %
15 20-04-2020 02:22:17 14 C 59 %
16 20-04-2020 02:32:18 14 C 59 %
17 20-04-2020 02:42:18 14 C 58 %
18 20-04-2020 02:52:17 14 C 58 %
19 20-04-2020 03:02:17 13.9 C 59 %
20 20-04-2020 03:12:17 13.9 C 59 %
21 20-04-2020 03:22:17 13.9 C 59 %
22 20-04-2020 03:32:17 13.9 C 59 %
23 20-04-2020 03:42:17 13.9 C 59 %
24 20-04-2020 03:52:17 13.9 C 59 %
25 20-04-2020 04:02:17 13.8 C 58 %
Sensor: Nr:Datum:Temp:Feuchte:
G-T/H 26 20-04-2020 04:12:17 13.8 C 58 %
27 20-04-2020 04:22:17 13.8 C 58 %
28 20-04-2020 04:32:18 13.8 C 58 %
29 20-04-2020 04:42:18 13.8 C 58 %
30 20-04-2020 04:52:17 13.8 C 58 %
31 20-04-2020 05:02:18 13.8 C 58 %
32 20-04-2020 05:12:18 13.7 C 59 %
33 20-04-2020 05:22:17 13.7 C 59 %
34 20-04-2020 05:32:17 13.7 C 59 %
35 20-04-2020 05:42:18 13.7 C 59 %
36 20-04-2020 05:52:17 13.7 C 59 %
37 20-04-2020 06:02:18 13.6 C 59 %
38 20-04-2020 06:12:18 13.6 C 59 %
39 20-04-2020 06:22:17 13.6 C 59 %
40 20-04-2020 06:32:17 13.6 C 59 %
41 20-04-2020 06:42:17 13.5 C 59 %
42 20-04-2020 06:52:17 13.6 C 59 %
43 20-04-2020 07:02:17 13.5 C 59 %
44 20-04-2020 07:12:17 13.5 C 59 %
45 20-04-2020 07:22:17 13.5 C 59 %
46 20-04-2020 07:32:17 13.5 C 59 %
47 20-04-2020 07:42:17 13.4 C 59 %
48 20-04-2020 07:52:17 13.4 C 59 %
49 20-04-2020 08:02:18 13.4 C 59 %
50 20-04-2020 08:12:18 13.4 C 59 %
Sensor: Nr:Datum:Temp:Feuchte:
G-T/H 51 20-04-2020 08:22:17 13.4 C 59 %
52 20-04-2020 08:32:17 13.4 C 59 %
53 20-04-2020 08:42:18 13.3 C 59 %
54 20-04-2020 08:52:18 13.4 C 59 %
55 20-04-2020 09:02:17 13.3 C 59 %
56 20-04-2020 09:12:17 13.3 C 59 %
57 20-04-2020 09:22:17 13.3 C 59 %
58 20-04-2020 09:32:17 13.3 C 59 %
59 20-04-2020 09:42:17 13.3 C 59 %
60 20-04-2020 09:52:18 13.2 C 59 %
61 20-04-2020 10:02:18 13.2 C 59 %
62 20-04-2020 10:12:18 13.2 C 59 %
63 20-04-2020 10:22:17 13.2 C 59 %
64 20-04-2020 10:32:17 13.2 C 59 %
65 20-04-2020 10:42:18 13.2 C 59 %
66 20-04-2020 10:52:17 13.2 C 59 %
67 20-04-2020 11:02:18 13.1 C 59 %
68 20-04-2020 11:12:18 13.1 C 59 %
69 20-04-2020 11:22:17 13.1 C 59 %
70 20-04-2020 11:32:17 13.1 C 60 %
71 20-04-2020 11:42:18 13.1 C 60 %
72 20-04-2020 11:52:17 13.1 C 60 %
73 20-04-2020 12:02:17 13.1 C 61 %
74 20-04-2020 12:12:17 13.1 C 61 %
75 20-04-2020 12:22:17 13.1 C 61 %
Sensor: Nr:Datum:Temp:Feuchte:
G-T/H 76 20-04-2020 12:32:17 13.1 C 61 %
77 20-04-2020 12:42:17 13.1 C 61 %
78 20-04-2020 12:52:17 13.1 C 61 %
79 20-04-2020 13:02:17 13.1 C 61 %
80 20-04-2020 13:12:17 13.1 C 62 %
81 20-04-2020 13:22:17 13.1 C 62 %
82 20-04-2020 13:32:17 13.2 C 61 %
83 20-04-2020 13:42:17 13.2 C 61 %
84 20-04-2020 13:52:17 13.2 C 61 %
85 20-04-2020 14:02:17 13.2 C 60 %
86 20-04-2020 14:12:17 13.2 C 60 %
87 20-04-2020 14:22:17 13.2 C 60 %
88 20-04-2020 14:32:18 13.2 C 60 %
89 20-04-2020 14:42:18 13.2 C 59 %
90 20-04-2020 14:52:18 13.3 C 59 %
91 20-04-2020 15:02:17 13.3 C 59 %
92 20-04-2020 15:12:17 13.3 C 59 %
93 20-04-2020 15:22:17 13.3 C 59 %
94 20-04-2020 15:32:17 13.3 C 60 %
95 20-04-2020 15:42:17 13.3 C 60 %
96 20-04-2020 15:52:17 13.3 C 60 %
97 20-04-2020 16:02:17 13.4 C 60 %
98 20-04-2020 16:12:17 13.3 C 60 %
99 20-04-2020 16:22:17 13.4 C 60 %
100 20-04-2020 16:32:17 13.4 C 60 %
Sensor: Nr:Datum:Temp:Feuchte:
G-T/H 101 20-04-2020 16:42:17 13.4 C 60 %
102 20-04-2020 16:52:17 13.4 C 60 %
103 20-04-2020 17:02:17 13.4 C 60 %
104 20-04-2020 17:12:17 13.4 C 60 %
105 20-04-2020 17:22:17 13.4 C 60 %
106 20-04-2020 17:32:17 13.5 C 60 %
107 20-04-2020 17:42:17 13.5 C 60 %
108 20-04-2020 17:52:17 13.5 C 61 %
109 20-04-2020 18:02:18 13.5 C 61 %
110 20-04-2020 18:12:18 13.5 C 61 %
111 20-04-2020 18:22:18 13.5 C 61 %
112 20-04-2020 18:32:17 13.5 C 61 %
113 20-04-2020 18:42:18 13.6 C 61 %
114 20-04-2020 18:52:18 13.6 C 61 %
115 20-04-2020 19:02:17 13.6 C 61 %
116 20-04-2020 19:12:17 13.6 C 61 %
117 20-04-2020 19:22:17 13.7 C 61 %
118 20-04-2020 19:32:17 13.7 C 61 %
119 20-04-2020 19:42:17 13.7 C 61 %
120 20-04-2020 19:52:17 13.6 C 61 %
121 20-04-2020 20:02:17 13.7 C 61 %
122 20-04-2020 20:12:17 13.7 C 61 %
123 20-04-2020 20:22:17 13.7 C 60 %
124 20-04-2020 20:32:17 13.7 C 60 %
125 20-04-2020 20:42:17 13.6 C 60 %
Sensor: Nr:Datum:Temp:Feuchte:
G-T/H 126 20-04-2020 20:52:17 13.6 C 60 %
127 20-04-2020 21:02:17 13.6 C 59 %
128 20-04-2020 21:12:17 13.6 C 60 %
129 20-04-2020 21:22:17 13.6 C 60 %
130 20-04-2020 21:32:17 13.6 C 60 %
131 20-04-2020 21:42:17 13.6 C 60 %
132 20-04-2020 21:52:17 13.6 C 60 %
133 20-04-2020 22:02:17 13.6 C 60 %
134 20-04-2020 22:12:17 13.6 C 60 %
135 20-04-2020 22:22:17 13.6 C 60 %
136 20-04-2020 22:32:17 13.6 C 60 %
137 20-04-2020 22:42:17 13.6 C 60 %
138 20-04-2020 22:52:18 13.6 C 60 %
139 20-04-2020 23:02:17 13.6 C 60 %
140 20-04-2020 23:12:17 13.6 C 60 %
141 20-04-2020 23:22:17 13.6 C 60 %
142 20-04-2020 23:32:18 13.6 C 60 %
143 20-04-2020 23:42:18 13.6 C 59 %
144 20-04-2020 23:52:17 13.6 C 59 %
145 21-04-2020 00:02:17 13.5 C 59 %
146 21-04-2020 00:12:17 13.6 C 59 %
147 21-04-2020 00:22:17 13.5 C 59 %
148 21-04-2020 00:32:17 13.5 C 59 %
149 21-04-2020 00:42:17 13.5 C 59 %
150 21-04-2020 00:52:17 13.6 C 58 %
Sensor: Nr:Datum:Temp:Feuchte:
G-T/H 151 21-04-2020 01:02:18 13.5 C 58 %
152 21-04-2020 01:12:18 13.5 C 58 %
153 21-04-2020 01:22:18 13.6 C 58 %
154 21-04-2020 01:32:18 13.5 C 58 %
155 21-04-2020 01:42:18 13.5 C 58 %
156 21-04-2020 01:52:17 13.5 C 58 %
157 21-04-2020 02:02:17 13.5 C 58 %
158 21-04-2020 02:12:18 13.5 C 58 %
159 21-04-2020 02:22:17 13.5 C 58 %
160 21-04-2020 02:32:18 13.5 C 58 %
161 21-04-2020 02:42:18 13.5 C 58 %
162 21-04-2020 02:52:17 13.4 C 58 %
163 21-04-2020 03:02:17 13.4 C 58 %
164 21-04-2020 03:12:17 13.4 C 58 %
165 21-04-2020 03:22:18 13.4 C 58 %
166 21-04-2020 03:32:17 13.4 C 58 %
167 21-04-2020 03:42:17 13.4 C 58 %
168 21-04-2020 03:52:18 13.4 C 58 %
169 21-04-2020 04:02:18 13.4 C 58 %
170 21-04-2020 04:12:18 13.4 C 58 %
171 21-04-2020 04:22:17 13.4 C 58 %
172 21-04-2020 04:32:17 13.4 C 58 %
173 21-04-2020 04:42:17 13.3 C 58 %
174 21-04-2020 04:52:17 13.3 C 58 %
175 21-04-2020 05:02:17 13.3 C 58 %
Sensor: Nr:Datum:Temp:Feuchte:
G-T/H 176 21-04-2020 05:12:17 13.3 C 58 %
177 21-04-2020 05:22:17 13.3 C 58 %
178 21-04-2020 05:32:18 13.3 C 58 %
179 21-04-2020 05:42:18 13.2 C 58 %
180 21-04-2020 05:52:17 13.2 C 58 %
181 21-04-2020 06:02:17 13.2 C 58 %
182 21-04-2020 06:12:17 13.2 C 58 %
183 21-04-2020 06:22:18 13.2 C 58 %
184 21-04-2020 06:32:18 13.2 C 58 %
185 21-04-2020 06:42:18 13.2 C 58 %
186 21-04-2020 06:52:17 13.2 C 58 %
187 21-04-2020 07:02:18 13.1 C 58 %
188 21-04-2020 07:12:18 13.1 C 58 %
189 21-04-2020 07:22:17 13.1 C 58 %
190 21-04-2020 07:32:17 13.1 C 58 %
191 21-04-2020 07:42:17 13.1 C 58 %
192 21-04-2020 07:52:17 13.1 C 58 %
193 21-04-2020 08:02:17 13.1 C 58 %
194 21-04-2020 08:12:17 13.1 C 58 %
195 21-04-2020 08:22:17 13 C 58 %
196 21-04-2020 08:32:17 13 C 58 %
197 21-04-2020 08:42:18 13 C 58 %
198 21-04-2020 08:52:17 13 C 58 %
199 21-04-2020 09:02:17 13 C 58 %
200 21-04-2020 09:12:17 13 C 58 %
Sensor: Nr:Datum:Temp:Feuchte:
G-T/H 201 21-04-2020 09:22:17 13 C 58 %
202 21-04-2020 09:32:17 12.9 C 59 %
203 21-04-2020 09:42:17 12.9 C 59 %
204 21-04-2020 09:52:17 12.9 C 59 %
205 21-04-2020 10:02:17 12.9 C 59 %
206 21-04-2020 10:12:17 12.9 C 59 %
207 21-04-2020 10:22:17 12.9 C 59 %
208 21-04-2020 10:32:17 12.9 C 59 %
209 21-04-2020 10:42:17 12.8 C 59 %
210 21-04-2020 10:52:17 12.8 C 59 %
211 21-04-2020 11:02:17 12.8 C 59 %
212 21-04-2020 11:12:17 12.8 C 59 %
213 21-04-2020 11:22:17 12.8 C 59 %
214 21-04-2020 11:32:18 12.8 C 59 %
215 21-04-2020 11:42:18 12.8 C 59 %
216 21-04-2020 11:52:18 12.8 C 59 %
217 21-04-2020 12:02:17 12.8 C 59 %
218 21-04-2020 12:12:18 12.8 C 60 %
219 21-04-2020 12:22:17 12.9 C 60 %
220 21-04-2020 12:32:17 12.9 C 60 %
221 21-04-2020 12:42:17 12.9 C 60 %
222 21-04-2020 12:52:17 12.9 C 60 %
223 21-04-2020 13:02:17 12.9 C 61 %
224 21-04-2020 13:12:17 12.9 C 61 %
225 21-04-2020 13:22:17 12.9 C 61 %
Sensor: Nr:Datum:Temp:Feuchte:
G-T/H 226 21-04-2020 13:32:17 12.9 C 61 %
227 21-04-2020 13:42:17 13 C 60 %
228 21-04-2020 13:52:17 13 C 60 %
229 21-04-2020 14:02:17 13 C 60 %
230 21-04-2020 14:12:17 13 C 59 %
231 21-04-2020 14:22:17 13 C 59 %
232 21-04-2020 14:32:17 13.1 C 59 %
233 21-04-2020 14:42:17 13.1 C 59 %
234 21-04-2020 14:52:17 13.1 C 59 %
235 21-04-2020 15:02:17 13.1 C 59 %
236 21-04-2020 15:12:17 13.1 C 59 %
237 21-04-2020 15:22:17 13.1 C 59 %
238 21-04-2020 15:32:18 13.2 C 59 %
239 21-04-2020 15:42:18 13.2 C 59 %
240 21-04-2020 15:52:17 13.2 C 59 %
241 21-04-2020 16:02:18 13.2 C 59 %
242 21-04-2020 16:12:18 13.2 C 59 %
243 21-04-2020 16:22:17 13.3 C 59 %
244 21-04-2020 16:32:17 13.3 C 59 %
245 21-04-2020 16:42:17 13.3 C 59 %
246 21-04-2020 16:52:17 13.3 C 59 %
247 21-04-2020 17:02:17 13.4 C 59 %
248 21-04-2020 17:12:17 13.6 C 55 %
249 21-04-2020 17:22:18 13.5 C 55 %
250 21-04-2020 17:32:17 13.5 C 56 %
Sensor: Nr:Datum:Temp:Feuchte:
G-T/H 251 21-04-2020 17:42:17 13.5 C 57 %
252 21-04-2020 17:52:17 13.5 C 57 %
253 21-04-2020 18:02:18 13.5 C 58 %
254 21-04-2020 18:12:18 13.5 C 58 %
255 21-04-2020 18:22:17 13.5 C 58 %
256 21-04-2020 18:32:17 13.5 C 58 %
257 21-04-2020 18:42:17 13.6 C 59 %
258 21-04-2020 18:52:18 13.6 C 59 %
259 21-04-2020 19:02:17 13.6 C 59 %
260 21-04-2020 19:12:17 13.6 C 59 %
261 21-04-2020 19:22:17 13.6 C 59 %
262 21-04-2020 19:32:18 13.6 C 59 %
263 21-04-2020 19:42:18 13.6 C 60 %
264 21-04-2020 19:52:17 13.6 C 60 %
265 21-04-2020 20:02:17 13.6 C 60 %
266 21-04-2020 20:12:17 13.7 C 60 %
267 21-04-2020 20:22:17 13.6 C 60 %
268 21-04-2020 20:32:17 13.6 C 60 %
269 21-04-2020 20:42:17 13.7 C 60 %
270 21-04-2020 20:52:17 13.6 C 60 %
271 21-04-2020 21:02:18 13.6 C 60 %
272 21-04-2020 21:12:18 13.6 C 60 %
273 21-04-2020 21:22:17 13.6 C 60 %
274 21-04-2020 21:32:17 13.6 C 60 %
275 21-04-2020 21:42:17 13.6 C 60 %
Sensor: Nr:Datum:Temp:Feuchte:
G-T/H 276 21-04-2020 21:52:18 13.6 C 60 %
277 21-04-2020 22:02:17 13.6 C 60 %
278 21-04-2020 22:12:17 13.7 C 60 %
279 21-04-2020 22:22:17 13.6 C 60 %
280 21-04-2020 22:32:17 13.7 C 60 %
281 21-04-2020 22:42:17 13.6 C 60 %
282 21-04-2020 22:52:18 13.6 C 60 %
283 21-04-2020 23:02:18 13.6 C 60 %
284 21-04-2020 23:12:18 13.6 C 60 %
285 21-04-2020 23:22:17 13.7 C 60 %
286 21-04-2020 23:32:18 13.6 C 60 %
287 21-04-2020 23:42:18 13.7 C 60 %
288 21-04-2020 23:52:18 13.6 C 60 %
289 22-04-2020 00:02:18 13.6 C 60 %
290 22-04-2020 00:12:18 13.6 C 60 %
291 22-04-2020 00:22:17 13.7 C 60 %
292 22-04-2020 00:32:18 13.6 C 60 %
293 22-04-2020 00:42:18 13.6 C 60 %
294 22-04-2020 00:52:17 13.6 C 60 %
295 22-04-2020 01:02:17 13.6 C 60 %
296 22-04-2020 01:12:17 13.6 C 60 %
297 22-04-2020 01:22:17 13.6 C 60 %
298 22-04-2020 01:32:18 13.6 C 60 %
299 22-04-2020 01:42:18 13.6 C 59 %
300 22-04-2020 01:52:17 13.6 C 59 %
Sensor: Nr:Datum:Temp:Feuchte:
G-T/H 301 22-04-2020 02:02:17 13.6 C 59 %
302 22-04-2020 02:12:17 13.6 C 59 %
303 22-04-2020 02:22:17 13.6 C 59 %
304 22-04-2020 02:32:17 13.5 C 59 %
305 22-04-2020 02:42:17 13.5 C 59 %
306 22-04-2020 02:52:17 13.5 C 59 %
307 22-04-2020 03:02:17 13.6 C 59 %
308 22-04-2020 03:12:17 13.5 C 59 %
309 22-04-2020 03:22:18 13.5 C 59 %
310 22-04-2020 03:32:18 13.5 C 59 %
311 22-04-2020 03:42:18 13.5 C 58 %
312 22-04-2020 03:52:17 13.5 C 58 %
313 22-04-2020 04:02:18 13.5 C 58 %
314 22-04-2020 04:12:18 13.5 C 58 %
315 22-04-2020 04:22:17 13.5 C 58 %
316 22-04-2020 04:32:18 13.4 C 58 %
317 22-04-2020 04:42:18 13.4 C 58 %
318 22-04-2020 04:52:17 13.5 C 58 %
319 22-04-2020 05:02:18 13.4 C 58 %
320 22-04-2020 05:12:18 13.4 C 58 %
321 22-04-2020 05:22:17 13.4 C 58 %
322 22-04-2020 05:32:17 13.4 C 58 %
323 22-04-2020 05:42:18 13.4 C 58 %
324 22-04-2020 05:52:17 13.4 C 58 %
325 22-04-2020 06:02:18 13.3 C 58 %
Sensor: Nr:Datum:Temp:Feuchte:
G-T/H 326 22-04-2020 06:12:18 13.3 C 58 %
327 22-04-2020 06:22:17 13.3 C 58 %
328 22-04-2020 06:32:17 13.3 C 58 %
329 22-04-2020 06:42:17 13.3 C 58 %
330 22-04-2020 06:52:17 13.3 C 58 %
331 22-04-2020 07:02:17 13.3 C 58 %
332 22-04-2020 07:12:17 13.2 C 58 %
333 22-04-2020 07:22:18 13.2 C 58 %
334 22-04-2020 07:32:17 13.2 C 58 %
335 22-04-2020 07:42:17 13.2 C 58 %
336 22-04-2020 07:52:17 13.2 C 58 %
337 22-04-2020 08:02:17 13.2 C 58 %
338 22-04-2020 08:12:17 13.2 C 58 %
339 22-04-2020 08:22:17 13.2 C 58 %
340 22-04-2020 08:32:17 13.1 C 58 %
341 22-04-2020 08:42:17 13.1 C 58 %
342 22-04-2020 08:52:18 13.1 C 58 %
343 22-04-2020 09:02:18 13.1 C 58 %
344 22-04-2020 09:12:18 13.1 C 58 %
345 22-04-2020 09:22:17 13.1 C 58 %
346 22-04-2020 09:32:17 13.1 C 58 %
347 22-04-2020 09:42:17 13.1 C 58 %
348 22-04-2020 09:52:17 13.1 C 58 %
349 22-04-2020 10:02:17 13.1 C 58 %
350 22-04-2020 10:12:17 13 C 58 %
Sensor: Nr:Datum:Temp:Feuchte:
G-T/H 351 22-04-2020 10:22:17 13 C 58 %
352 22-04-2020 10:32:17 13 C 58 %
353 22-04-2020 10:42:17 13 C 59 %
354 22-04-2020 10:52:17 13 C 59 %
355 22-04-2020 11:02:17 13 C 59 %
356 22-04-2020 11:12:17 13 C 59 %
357 22-04-2020 11:22:17 13 C 59 %
358 22-04-2020 11:32:17 13 C 59 %
359 22-04-2020 11:42:17 13 C 60 %
360 22-04-2020 11:52:18 13 C 60 %
361 22-04-2020 12:02:18 13 C 60 %
362 22-04-2020 12:12:18 13 C 60 %
363 22-04-2020 12:22:17 13 C 60 %
364 22-04-2020 12:32:17 13 C 60 %
365 22-04-2020 12:42:17 13.1 C 60 %
366 22-04-2020 12:52:18 13.1 C 60 %
367 22-04-2020 13:02:17 13.1 C 60 %
368 22-04-2020 13:12:17 13.1 C 60 %
369 22-04-2020 13:22:17 13.1 C 60 %
370 22-04-2020 13:32:17 13.1 C 60 %
371 22-04-2020 13:42:17 13.1 C 60 %
372 22-04-2020 13:52:17 13.1 C 60 %
373 22-04-2020 14:02:17 13.2 C 60 %
374 22-04-2020 14:12:17 13.2 C 60 %
375 22-04-2020 14:22:17 13.2 C 60 %
Sensor: Nr:Datum:Temp:Feuchte:
G-T/H 376 22-04-2020 14:32:17 13.2 C 60 %
377 22-04-2020 14:42:17 13.2 C 60 %
378 22-04-2020 14:52:17 13.3 C 60 %
379 22-04-2020 15:02:17 13.3 C 60 %
380 22-04-2020 15:12:18 13.3 C 60 %
381 22-04-2020 15:22:17 13.3 C 60 %
382 22-04-2020 15:32:17 13.3 C 60 %
383 22-04-2020 15:42:17 13.3 C 60 %
384 22-04-2020 15:52:17 13.4 C 61 %
385 22-04-2020 16:02:17 13.4 C 61 %
386 22-04-2020 16:12:17 13.4 C 61 %
387 22-04-2020 16:22:17 13.4 C 61 %
388 22-04-2020 16:32:18 13.5 C 61 %
389 22-04-2020 16:42:18 13.5 C 61 %
390 22-04-2020 16:52:17 13.5 C 61 %
391 22-04-2020 17:02:17 13.5 C 61 %
392 22-04-2020 17:12:17 13.6 C 61 %
393 22-04-2020 17:22:17 13.6 C 61 %
394 22-04-2020 17:32:17 13.6 C 61 %
395 22-04-2020 17:42:17 13.6 C 61 %
396 22-04-2020 17:52:17 13.7 C 61 %
397 22-04-2020 18:02:17 13.7 C 60 %
398 22-04-2020 18:12:17 13.7 C 60 %
399 22-04-2020 18:22:17 13.7 C 59 %
400 22-04-2020 18:32:17 13.8 C 59 %
Sensor: Nr:Datum:Temp:Feuchte:
G-T/H 401 22-04-2020 18:42:17 13.8 C 59 %
402 22-04-2020 18:52:17 13.8 C 60 %
403 22-04-2020 19:02:17 13.8 C 60 %
404 22-04-2020 19:12:17 13.8 C 60 %
405 22-04-2020 19:22:17 13.8 C 60 %
406 22-04-2020 19:32:18 13.8 C 60 %
407 22-04-2020 19:42:18 13.8 C 61 %
408 22-04-2020 19:52:17 13.8 C 61 %
409 22-04-2020 20:02:18 13.8 C 61 %
410 22-04-2020 20:12:18 13.9 C 61 %
411 22-04-2020 20:22:17 13.8 C 61 %
412 22-04-2020 20:32:17 13.9 C 61 %
413 22-04-2020 20:42:17 13.9 C 61 %
414 22-04-2020 20:52:17 13.9 C 61 %
415 22-04-2020 21:02:17 13.8 C 60 %
416 22-04-2020 21:12:17 13.8 C 60 %
417 22-04-2020 21:22:17 13.9 C 60 %
418 22-04-2020 21:32:17 13.9 C 60 %
419 22-04-2020 21:42:17 13.8 C 60 %
420 22-04-2020 21:52:17 13.8 C 60 %
421 22-04-2020 22:02:17 13.8 C 60 %
422 22-04-2020 22:12:17 13.8 C 60 %
423 22-04-2020 22:22:17 13.8 C 60 %
424 22-04-2020 22:32:17 13.8 C 60 %
425 22-04-2020 22:42:17 13.9 C 60 %
Sensor: Nr:Datum:Temp:Feuchte:
G-T/H 426 22-04-2020 22:52:18 13.9 C 60 %
427 22-04-2020 23:02:17 13.8 C 60 %
428 22-04-2020 23:12:17 13.8 C 60 %
429 22-04-2020 23:22:17 13.8 C 60 %
430 22-04-2020 23:32:17 13.8 C 60 %
431 22-04-2020 23:42:17 13.8 C 60 %
432 22-04-2020 23:52:18 13.9 C 60 %
433 23-04-2020 00:02:17 13.8 C 60 %
434 23-04-2020 00:12:17 13.9 C 60 %
435 23-04-2020 00:22:17 13.8 C 60 %
436 23-04-2020 00:32:17 13.9 C 60 %
437 23-04-2020 00:42:17 13.9 C 60 %
438 23-04-2020 00:52:17 13.8 C 60 %
439 23-04-2020 01:02:17 13.9 C 60 %
440 23-04-2020 01:12:17 13.8 C 60 %
441 23-04-2020 01:22:18 13.8 C 60 %
442 23-04-2020 01:32:17 13.8 C 60 %
443 23-04-2020 01:42:17 13.8 C 60 %
444 23-04-2020 01:52:17 13.8 C 60 %
445 23-04-2020 02:02:17 13.8 C 60 %
446 23-04-2020 02:12:17 13.8 C 60 %
447 23-04-2020 02:22:18 13.8 C 60 %
448 23-04-2020 02:32:17 13.8 C 60 %
449 23-04-2020 02:42:17 13.8 C 60 %
450 23-04-2020 02:52:17 13.8 C 60 %
Sensor: Nr:Datum:Temp:Feuchte:
G-T/H 451 23-04-2020 03:02:18 13.8 C 60 %
452 23-04-2020 03:12:18 13.8 C 59 %
453 23-04-2020 03:22:17 13.8 C 59 %
454 23-04-2020 03:32:17 13.8 C 59 %
455 23-04-2020 03:42:17 13.8 C 59 %
456 23-04-2020 03:52:17 13.8 C 59 %
457 23-04-2020 04:02:17 13.8 C 59 %
458 23-04-2020 04:12:17 13.7 C 59 %
459 23-04-2020 04:22:17 13.7 C 59 %
460 23-04-2020 04:32:17 13.7 C 59 %
461 23-04-2020 04:42:17 13.7 C 58 %
462 23-04-2020 04:52:17 13.7 C 58 %
463 23-04-2020 05:02:17 13.7 C 58 %
464 23-04-2020 05:12:17 13.7 C 58 %
465 23-04-2020 05:22:17 13.7 C 58 %
466 23-04-2020 05:32:17 13.7 C 58 %
467 23-04-2020 05:42:17 13.6 C 58 %
468 23-04-2020 05:52:17 13.6 C 58 %
469 23-04-2020 06:02:17 13.6 C 58 %
470 23-04-2020 06:12:18 13.6 C 58 %
471 23-04-2020 06:22:17 13.6 C 58 %
472 23-04-2020 06:32:18 13.6 C 58 %
473 23-04-2020 06:42:18 13.5 C 58 %
474 23-04-2020 06:52:17 13.5 C 58 %
475 23-04-2020 07:02:17 13.5 C 58 %
Sensor: Nr:Datum:Temp:Feuchte:
G-T/H 476 23-04-2020 07:12:17 13.5 C 58 %
477 23-04-2020 07:22:17 13.5 C 58 %
478 23-04-2020 07:32:17 13.5 C 58 %
479 23-04-2020 07:42:17 13.5 C 58 %
480 23-04-2020 07:52:17 13.5 C 58 %
481 23-04-2020 08:02:17 13.4 C 58 %
482 23-04-2020 08:12:18 13.4 C 58 %
483 23-04-2020 08:22:18 13.4 C 58 %
484 23-04-2020 08:32:18 13.4 C 58 %
485 23-04-2020 08:42:18 13.4 C 58 %
486 23-04-2020 08:52:17 13.3 C 58 %
487 23-04-2020 09:02:17 13.3 C 58 %
488 23-04-2020 09:12:17 13.4 C 58 %
489 23-04-2020 09:22:17 13.3 C 58 %
490 23-04-2020 09:32:17 13.3 C 58 %
491 23-04-2020 09:42:17 13.3 C 58 %
492 23-04-2020 09:52:17 13.3 C 59 %
493 23-04-2020 10:02:18 13.3 C 59 %
494 23-04-2020 10:12:18 13.3 C 59 %
495 23-04-2020 10:22:17 13.3 C 59 %
496 23-04-2020 10:32:17 13.3 C 59 %
497 23-04-2020 10:42:17 13.2 C 59 %
498 23-04-2020 10:52:17 13.2 C 59 %
499 23-04-2020 11:02:18 13.2 C 59 %
500 23-04-2020 11:12:18 13.2 C 59 %
Sensor: Nr:Datum:Temp:Feuchte:
G-T/H 501 23-04-2020 11:22:17 13.2 C 60 %
502 23-04-2020 11:32:17 13.2 C 60 %
503 23-04-2020 11:42:17 13.2 C 60 %
504 23-04-2020 11:52:18 13.3 C 60 %
505 23-04-2020 12:02:17 13.3 C 61 %
506 23-04-2020 12:12:17 13.3 C 61 %
507 23-04-2020 12:22:17 13.3 C 61 %
508 23-04-2020 12:32:18 13.3 C 61 %
509 23-04-2020 12:42:18 13.3 C 61 %
510 23-04-2020 12:52:17 13.3 C 61 %
511 23-04-2020 13:02:17 13.3 C 61 %
512 23-04-2020 13:12:17 13.4 C 61 %
513 23-04-2020 13:22:17 13.3 C 61 %
514 23-04-2020 13:32:17 13.4 C 61 %
515 23-04-2020 13:42:17 13.4 C 61 %
516 23-04-2020 13:52:17 13.4 C 61 %
517 23-04-2020 14:02:17 13.4 C 61 %
518 23-04-2020 14:12:17 13.5 C 61 %
519 23-04-2020 14:22:17 13.4 C 61 %
520 23-04-2020 14:32:17 13.4 C 61 %
521 23-04-2020 14:42:17 13.5 C 61 %
522 23-04-2020 14:52:17 13.5 C 60 %
523 23-04-2020 15:02:17 13.5 C 60 %
524 23-04-2020 15:12:17 13.5 C 60 %
525 23-04-2020 15:22:18 13.5 C 60 %
Sensor: Nr:Datum:Temp:Feuchte:
G-T/H 526 23-04-2020 15:32:17 13.5 C 60 %
527 23-04-2020 15:42:17 13.6 C 61 %
528 23-04-2020 15:52:17 13.6 C 61 %
529 23-04-2020 16:02:18 13.6 C 61 %
530 23-04-2020 16:12:18 13.7 C 61 %
531 23-04-2020 16:22:17 13.7 C 61 %
532 23-04-2020 16:32:18 13.7 C 61 %
533 23-04-2020 16:42:18 13.7 C 61 %
534 23-04-2020 16:52:17 13.7 C 61 %
535 23-04-2020 17:02:17 13.8 C 61 %
536 23-04-2020 17:12:18 13.7 C 61 %
537 23-04-2020 17:22:17 13.8 C 61 %
538 23-04-2020 17:32:18 13.8 C 61 %
539 23-04-2020 17:42:18 13.8 C 61 %
540 23-04-2020 17:52:18 13.9 C 61 %
541 23-04-2020 18:02:17 13.9 C 61 %
542 23-04-2020 18:12:17 13.9 C 61 %
543 23-04-2020 18:22:17 14 C 60 %
544 23-04-2020 18:32:17 14 C 60 %
545 23-04-2020 18:42:17 14 C 60 %
546 23-04-2020 18:52:17 14 C 60 %
547 23-04-2020 19:02:17 14 C 60 %
548 23-04-2020 19:12:17 14.1 C 60 %
549 23-04-2020 19:22:17 14.1 C 60 %
550 23-04-2020 19:32:18 14 C 60 %
Sensor: Nr:Datum:Temp:Feuchte:
G-T/H 551 23-04-2020 19:42:18 14.1 C 60 %
552 23-04-2020 19:52:17 14.1 C 60 %
553 23-04-2020 20:02:18 14.1 C 60 %
554 23-04-2020 20:12:18 14.1 C 60 %
555 23-04-2020 20:22:17 14.1 C 60 %
556 23-04-2020 20:32:18 14.1 C 60 %
557 23-04-2020 20:42:18 14 C 60 %
558 23-04-2020 20:52:18 14.1 C 60 %
559 23-04-2020 21:02:18 14.1 C 60 %
560 23-04-2020 21:12:18 14.1 C 60 %
561 23-04-2020 21:22:17 14.1 C 60 %
562 23-04-2020 21:32:17 14.1 C 60 %
563 23-04-2020 21:42:17 14.1 C 60 %
564 23-04-2020 21:52:17 14.1 C 61 %
565 23-04-2020 22:02:17 14 C 61 %
566 23-04-2020 22:12:17 14.1 C 60 %
567 23-04-2020 22:22:17 14 C 59 %
568 23-04-2020 22:32:18 14 C 59 %
569 23-04-2020 22:42:18 14 C 59 %
570 23-04-2020 22:52:18 14.1 C 59 %
571 23-04-2020 23:02:18 14.1 C 59 %
572 23-04-2020 23:12:18 14.1 C 59 %
573 23-04-2020 23:22:18 14 C 59 %
574 23-04-2020 23:32:17 14.1 C 59 %
575 23-04-2020 23:42:17 14.1 C 59 %
Sensor: Nr:Datum:Temp:Feuchte:
G-T/H 576 23-04-2020 23:52:17 14 C 59 %
577 24-04-2020 00:02:18 14.1 C 59 %
578 24-04-2020 00:12:18 14 C 59 %
579 24-04-2020 00:22:17 14 C 59 %
580 24-04-2020 00:32:18 14 C 59 %
581 24-04-2020 00:42:18 14 C 59 %
582 24-04-2020 00:52:17 14 C 59 %
583 24-04-2020 01:02:18 14 C 59 %
584 24-04-2020 01:12:18 14 C 59 %
585 24-04-2020 01:22:17 14 C 59 %
586 24-04-2020 01:32:18 14 C 59 %
587 24-04-2020 01:42:18 14 C 59 %
588 24-04-2020 01:52:17 14 C 58 %
589 24-04-2020 02:02:17 14 C 58 %
590 24-04-2020 02:12:17 14 C 58 %
591 24-04-2020 02:22:17 13.9 C 59 %
592 24-04-2020 02:32:18 13.9 C 59 %
593 24-04-2020 02:42:18 13.9 C 59 %
594 24-04-2020 02:52:18 13.9 C 59 %
595 24-04-2020 03:02:17 13.9 C 59 %
596 24-04-2020 03:12:18 13.9 C 59 %
597 24-04-2020 03:22:17 13.9 C 59 %
598 24-04-2020 03:32:17 13.9 C 59 %
599 24-04-2020 03:42:17 13.9 C 59 %
600 24-04-2020 03:52:17 13.8 C 59 %
Sensor: Nr:Datum:Temp:Feuchte:
G-T/H 601 24-04-2020 04:02:17 13.8 C 59 %
602 24-04-2020 04:12:17 13.8 C 59 %
603 24-04-2020 04:22:17 13.8 C 59 %
604 24-04-2020 04:32:17 13.8 C 59 %
605 24-04-2020 04:42:17 13.8 C 59 %
606 24-04-2020 04:52:17 13.8 C 58 %
607 24-04-2020 05:02:17 13.8 C 58 %
608 24-04-2020 05:12:17 13.8 C 58 %
609 24-04-2020 05:22:17 13.7 C 58 %
610 24-04-2020 05:32:18 13.7 C 58 %
611 24-04-2020 05:42:18 13.7 C 58 %
612 24-04-2020 05:52:17 13.7 C 58 %
613 24-04-2020 06:02:17 13.7 C 58 %
614 24-04-2020 06:12:17 13.7 C 58 %
615 24-04-2020 06:22:18 13.7 C 58 %
616 24-04-2020 06:32:17 13.6 C 58 %
617 24-04-2020 06:42:17 13.6 C 58 %
618 24-04-2020 06:52:17 13.6 C 58 %
619 24-04-2020 07:02:17 13.6 C 58 %
620 24-04-2020 07:12:17 13.5 C 59 %
621 24-04-2020 07:22:17 13.6 C 59 %
622 24-04-2020 07:32:18 13.6 C 59 %
623 24-04-2020 07:42:18 13.5 C 59 %
624 24-04-2020 07:52:17 13.5 C 59 %
625 24-04-2020 08:02:18 13.5 C 59 %
Sensor: Nr:Datum:Temp:Feuchte:
G-T/H 626 24-04-2020 08:12:18 13.5 C 59 %
627 24-04-2020 08:22:17 13.5 C